<?xml version="1.0" encoding="UTF-8" standalone="no" ?>
<gpx xmlns="http://www.topografix.com/GPX/1/1" xmlns:xsi="http://www.w3.org/2001/XMLSchema-instance" xsi:schemaLocation="http://www.topografix.com/GPX/1/1 http://www.topografix.com/GPX/1/1/gpx.xsd" version="1.1" creator="VisuGPX - https://www.visugpx.com">
  <metadata>
    <name>Champagnat Cyclisme sur route</name>
  </metadata>
  <trk>
    <name><![CDATA[Champagnat Cyclisme sur route_1]]></name>
    <trkseg>
      <trkpt lat="46.48271" lon="5.36839">
        <ele>266.6</ele>
        <time>2022-05-18T12:17:22Z</time>
      </trkpt>
      <trkpt lat="46.48261" lon="5.36828">
        <ele>266</ele>
        <time>2022-05-18T12:17:23Z</time>
      </trkpt>
      <trkpt lat="46.48251" lon="5.36817">
        <ele>265.4</ele>
        <time>2022-05-18T12:17:24Z</time>
      </trkpt>
      <trkpt lat="46.48241" lon="5.36808">
        <ele>264.2</ele>
        <time>2022-05-18T12:17:25Z</time>
      </trkpt>
      <trkpt lat="46.48219" lon="5.36791">
        <ele>262.4</ele>
        <time>2022-05-18T12:17:27Z</time>
      </trkpt>
      <trkpt lat="46.48197" lon="5.36772">
        <ele>261.2</ele>
        <time>2022-05-18T12:17:29Z</time>
      </trkpt>
      <trkpt lat="46.48175" lon="5.36754">
        <ele>260</ele>
        <time>2022-05-18T12:17:31Z</time>
      </trkpt>
      <trkpt lat="46.48154" lon="5.36738">
        <ele>258.8</ele>
        <time>2022-05-18T12:17:33Z</time>
      </trkpt>
      <trkpt lat="46.48135" lon="5.36722">
        <ele>256.4</ele>
        <time>2022-05-18T12:17:35Z</time>
      </trkpt>
      <trkpt lat="46.48119" lon="5.3671">
        <ele>255.2</ele>
        <time>2022-05-18T12:17:37Z</time>
      </trkpt>
      <trkpt lat="46.48114" lon="5.36703">
        <ele>255</ele>
        <time>2022-05-18T12:17:38Z</time>
      </trkpt>
      <trkpt lat="46.48112" lon="5.36694">
        <ele>254.2</ele>
        <time>2022-05-18T12:17:39Z</time>
      </trkpt>
      <trkpt lat="46.48112" lon="5.36684">
        <ele>253.6</ele>
        <time>2022-05-18T12:17:40Z</time>
      </trkpt>
      <trkpt lat="46.48117" lon="5.36676">
        <ele>252.8</ele>
        <time>2022-05-18T12:17:41Z</time>
      </trkpt>
      <trkpt lat="46.48123" lon="5.3667">
        <ele>252</ele>
        <time>2022-05-18T12:17:42Z</time>
      </trkpt>
      <trkpt lat="46.48129" lon="5.36664">
        <ele>251.8</ele>
        <time>2022-05-18T12:17:43Z</time>
      </trkpt>
      <trkpt lat="46.48142" lon="5.36652">
        <ele>251</ele>
        <time>2022-05-18T12:17:45Z</time>
      </trkpt>
      <trkpt lat="46.48147" lon="5.36646">
        <ele>250.4</ele>
        <time>2022-05-18T12:17:46Z</time>
      </trkpt>
      <trkpt lat="46.48151" lon="5.36639">
        <ele>250</ele>
        <time>2022-05-18T12:17:47Z</time>
      </trkpt>
      <trkpt lat="46.4816" lon="5.36624">
        <ele>249.2</ele>
        <time>2022-05-18T12:17:49Z</time>
      </trkpt>
      <trkpt lat="46.48171" lon="5.36619">
        <ele>249</ele>
        <time>2022-05-18T12:17:50Z</time>
      </trkpt>
      <trkpt lat="46.4819" lon="5.36611">
        <ele>249</ele>
        <time>2022-05-18T12:17:52Z</time>
      </trkpt>
      <trkpt lat="46.482" lon="5.36608">
        <ele>248.8</ele>
        <time>2022-05-18T12:17:53Z</time>
      </trkpt>
      <trkpt lat="46.48206" lon="5.36606">
        <ele>248.6</ele>
        <time>2022-05-18T12:17:54Z</time>
      </trkpt>
      <trkpt lat="46.48217" lon="5.36591">
        <ele>248.6</ele>
        <time>2022-05-18T12:17:56Z</time>
      </trkpt>
      <trkpt lat="46.48227" lon="5.36561">
        <ele>248.6</ele>
        <time>2022-05-18T12:17:59Z</time>
      </trkpt>
      <trkpt lat="46.48245" lon="5.3654">
        <ele>248</ele>
        <time>2022-05-18T12:18:02Z</time>
      </trkpt>
      <trkpt lat="46.48251" lon="5.36534">
        <ele>247.6</ele>
        <time>2022-05-18T12:18:03Z</time>
      </trkpt>
      <trkpt lat="46.48275" lon="5.36508">
        <ele>247</ele>
        <time>2022-05-18T12:18:07Z</time>
      </trkpt>
      <trkpt lat="46.483" lon="5.36481">
        <ele>246.2</ele>
        <time>2022-05-18T12:18:11Z</time>
      </trkpt>
      <trkpt lat="46.48306" lon="5.36474">
        <ele>246</ele>
        <time>2022-05-18T12:18:12Z</time>
      </trkpt>
      <trkpt lat="46.48319" lon="5.3646">
        <ele>245.8</ele>
        <time>2022-05-18T12:18:14Z</time>
      </trkpt>
      <trkpt lat="46.48364" lon="5.36411">
        <ele>244.8</ele>
        <time>2022-05-18T12:18:21Z</time>
      </trkpt>
      <trkpt lat="46.48383" lon="5.3639">
        <ele>243.8</ele>
        <time>2022-05-18T12:18:24Z</time>
      </trkpt>
      <trkpt lat="46.48389" lon="5.36383">
        <ele>243.6</ele>
        <time>2022-05-18T12:18:25Z</time>
      </trkpt>
      <trkpt lat="46.48416" lon="5.3636">
        <ele>242.8</ele>
        <time>2022-05-18T12:18:29Z</time>
      </trkpt>
      <trkpt lat="46.48423" lon="5.36357">
        <ele>242.8</ele>
        <time>2022-05-18T12:18:30Z</time>
      </trkpt>
      <trkpt lat="46.4843" lon="5.36354">
        <ele>242.6</ele>
        <time>2022-05-18T12:18:31Z</time>
      </trkpt>
      <trkpt lat="46.48437" lon="5.36352">
        <ele>242.4</ele>
        <time>2022-05-18T12:18:32Z</time>
      </trkpt>
      <trkpt lat="46.48458" lon="5.36348">
        <ele>242.2</ele>
        <time>2022-05-18T12:18:35Z</time>
      </trkpt>
      <trkpt lat="46.48504" lon="5.3634">
        <ele>241.8</ele>
        <time>2022-05-18T12:18:42Z</time>
      </trkpt>
      <trkpt lat="46.48523" lon="5.36337">
        <ele>241.6</ele>
        <time>2022-05-18T12:18:45Z</time>
      </trkpt>
      <trkpt lat="46.48549" lon="5.36332">
        <ele>241.4</ele>
        <time>2022-05-18T12:18:49Z</time>
      </trkpt>
      <trkpt lat="46.48555" lon="5.36331">
        <ele>241.4</ele>
        <time>2022-05-18T12:18:50Z</time>
      </trkpt>
      <trkpt lat="46.48605" lon="5.36324">
        <ele>240.8</ele>
        <time>2022-05-18T12:18:57Z</time>
      </trkpt>
      <trkpt lat="46.48612" lon="5.36321">
        <ele>240.6</ele>
        <time>2022-05-18T12:18:58Z</time>
      </trkpt>
      <trkpt lat="46.48618" lon="5.36316">
        <ele>240.6</ele>
        <time>2022-05-18T12:18:59Z</time>
      </trkpt>
      <trkpt lat="46.48624" lon="5.36309">
        <ele>240.2</ele>
        <time>2022-05-18T12:19:00Z</time>
      </trkpt>
      <trkpt lat="46.48634" lon="5.36287">
        <ele>239.8</ele>
        <time>2022-05-18T12:19:02Z</time>
      </trkpt>
      <trkpt lat="46.48636" lon="5.36277">
        <ele>239.4</ele>
        <time>2022-05-18T12:19:03Z</time>
      </trkpt>
      <trkpt lat="46.4864" lon="5.36239">
        <ele>238.2</ele>
        <time>2022-05-18T12:19:06Z</time>
      </trkpt>
      <trkpt lat="46.48643" lon="5.362">
        <ele>237</ele>
        <time>2022-05-18T12:19:09Z</time>
      </trkpt>
      <trkpt lat="46.48645" lon="5.36175">
        <ele>236.6</ele>
        <time>2022-05-18T12:19:11Z</time>
      </trkpt>
      <trkpt lat="46.48646" lon="5.36162">
        <ele>236</ele>
        <time>2022-05-18T12:19:12Z</time>
      </trkpt>
      <trkpt lat="46.48653" lon="5.36115">
        <ele>235.2</ele>
        <time>2022-05-18T12:19:16Z</time>
      </trkpt>
      <trkpt lat="46.48663" lon="5.36069">
        <ele>235</ele>
        <time>2022-05-18T12:19:20Z</time>
      </trkpt>
      <trkpt lat="46.48667" lon="5.36051">
        <ele>235</ele>
        <time>2022-05-18T12:19:22Z</time>
      </trkpt>
      <trkpt lat="46.48675" lon="5.36015">
        <ele>235</ele>
        <time>2022-05-18T12:19:26Z</time>
      </trkpt>
      <trkpt lat="46.48676" lon="5.36006">
        <ele>235.2</ele>
        <time>2022-05-18T12:19:27Z</time>
      </trkpt>
      <trkpt lat="46.4868" lon="5.35972">
        <ele>236</ele>
        <time>2022-05-18T12:19:31Z</time>
      </trkpt>
      <trkpt lat="46.48683" lon="5.35953">
        <ele>236.2</ele>
        <time>2022-05-18T12:19:33Z</time>
      </trkpt>
      <trkpt lat="46.48684" lon="5.35943">
        <ele>236.2</ele>
        <time>2022-05-18T12:19:34Z</time>
      </trkpt>
      <trkpt lat="46.48687" lon="5.35923">
        <ele>236.4</ele>
        <time>2022-05-18T12:19:36Z</time>
      </trkpt>
      <trkpt lat="46.48692" lon="5.35904">
        <ele>236.6</ele>
        <time>2022-05-18T12:19:38Z</time>
      </trkpt>
      <trkpt lat="46.48714" lon="5.35849">
        <ele>236.2</ele>
        <time>2022-05-18T12:19:44Z</time>
      </trkpt>
      <trkpt lat="46.48742" lon="5.35785">
        <ele>235.2</ele>
        <time>2022-05-18T12:19:51Z</time>
      </trkpt>
      <trkpt lat="46.48746" lon="5.35776">
        <ele>235</ele>
        <time>2022-05-18T12:19:52Z</time>
      </trkpt>
      <trkpt lat="46.48773" lon="5.35715">
        <ele>234.2</ele>
        <time>2022-05-18T12:19:59Z</time>
      </trkpt>
      <trkpt lat="46.4878" lon="5.35698">
        <ele>233.8</ele>
        <time>2022-05-18T12:20:01Z</time>
      </trkpt>
      <trkpt lat="46.48805" lon="5.35642">
        <ele>233.2</ele>
        <time>2022-05-18T12:20:08Z</time>
      </trkpt>
      <trkpt lat="46.48834" lon="5.35577">
        <ele>234</ele>
        <time>2022-05-18T12:20:16Z</time>
      </trkpt>
      <trkpt lat="46.48838" lon="5.35572">
        <ele>234</ele>
        <time>2022-05-18T12:20:17Z</time>
      </trkpt>
      <trkpt lat="46.48849" lon="5.35563">
        <ele>234.2</ele>
        <time>2022-05-18T12:20:19Z</time>
      </trkpt>
      <trkpt lat="46.48876" lon="5.35561">
        <ele>234.2</ele>
        <time>2022-05-18T12:20:23Z</time>
      </trkpt>
      <trkpt lat="46.4892" lon="5.35558">
        <ele>233.4</ele>
        <time>2022-05-18T12:20:29Z</time>
      </trkpt>
      <trkpt lat="46.48951" lon="5.35557">
        <ele>232.8</ele>
        <time>2022-05-18T12:20:33Z</time>
      </trkpt>
      <trkpt lat="46.48968" lon="5.35556">
        <ele>232.6</ele>
        <time>2022-05-18T12:20:35Z</time>
      </trkpt>
      <trkpt lat="46.49" lon="5.35554">
        <ele>231.6</ele>
        <time>2022-05-18T12:20:39Z</time>
      </trkpt>
      <trkpt lat="46.49016" lon="5.35553">
        <ele>231.2</ele>
        <time>2022-05-18T12:20:41Z</time>
      </trkpt>
      <trkpt lat="46.49024" lon="5.35552">
        <ele>231.2</ele>
        <time>2022-05-18T12:20:42Z</time>
      </trkpt>
      <trkpt lat="46.49061" lon="5.35551">
        <ele>231</ele>
        <time>2022-05-18T12:20:47Z</time>
      </trkpt>
      <trkpt lat="46.49091" lon="5.3555">
        <ele>231.6</ele>
        <time>2022-05-18T12:20:52Z</time>
      </trkpt>
      <trkpt lat="46.49123" lon="5.35548">
        <ele>232.6</ele>
        <time>2022-05-18T12:20:58Z</time>
      </trkpt>
      <trkpt lat="46.49129" lon="5.35549">
        <ele>232.8</ele>
        <time>2022-05-18T12:20:59Z</time>
      </trkpt>
      <trkpt lat="46.49154" lon="5.35548">
        <ele>233.4</ele>
        <time>2022-05-18T12:21:03Z</time>
      </trkpt>
      <trkpt lat="46.4917" lon="5.35546">
        <ele>233.8</ele>
        <time>2022-05-18T12:21:06Z</time>
      </trkpt>
      <trkpt lat="46.49183" lon="5.35545">
        <ele>234.2</ele>
        <time>2022-05-18T12:21:08Z</time>
      </trkpt>
      <trkpt lat="46.49188" lon="5.35545">
        <ele>234.2</ele>
        <time>2022-05-18T12:21:09Z</time>
      </trkpt>
      <trkpt lat="46.49199" lon="5.35545">
        <ele>234.6</ele>
        <time>2022-05-18T12:21:11Z</time>
      </trkpt>
      <trkpt lat="46.49212" lon="5.35544">
        <ele>235</ele>
        <time>2022-05-18T12:21:13Z</time>
      </trkpt>
      <trkpt lat="46.49231" lon="5.35542">
        <ele>235.4</ele>
        <time>2022-05-18T12:21:16Z</time>
      </trkpt>
      <trkpt lat="46.49248" lon="5.35541">
        <ele>235.6</ele>
        <time>2022-05-18T12:21:19Z</time>
      </trkpt>
      <trkpt lat="46.49261" lon="5.35539">
        <ele>235.6</ele>
        <time>2022-05-18T12:21:21Z</time>
      </trkpt>
      <trkpt lat="46.4928" lon="5.35537">
        <ele>235.4</ele>
        <time>2022-05-18T12:21:24Z</time>
      </trkpt>
      <trkpt lat="46.49288" lon="5.35537">
        <ele>235.4</ele>
        <time>2022-05-18T12:21:25Z</time>
      </trkpt>
      <trkpt lat="46.49315" lon="5.35534">
        <ele>235.2</ele>
        <time>2022-05-18T12:21:29Z</time>
      </trkpt>
      <trkpt lat="46.49321" lon="5.35534">
        <ele>235.2</ele>
        <time>2022-05-18T12:21:30Z</time>
      </trkpt>
      <trkpt lat="46.49342" lon="5.35535">
        <ele>235.2</ele>
        <time>2022-05-18T12:21:33Z</time>
      </trkpt>
      <trkpt lat="46.49386" lon="5.35535">
        <ele>234.4</ele>
        <time>2022-05-18T12:21:39Z</time>
      </trkpt>
      <trkpt lat="46.49393" lon="5.35537">
        <ele>234.2</ele>
        <time>2022-05-18T12:21:40Z</time>
      </trkpt>
      <trkpt lat="46.49423" lon="5.35545">
        <ele>234</ele>
        <time>2022-05-18T12:21:44Z</time>
      </trkpt>
      <trkpt lat="46.49458" lon="5.35558">
        <ele>233.4</ele>
        <time>2022-05-18T12:21:49Z</time>
      </trkpt>
      <trkpt lat="46.49512" lon="5.35579">
        <ele>233.2</ele>
        <time>2022-05-18T12:21:57Z</time>
      </trkpt>
      <trkpt lat="46.49538" lon="5.35591">
        <ele>233</ele>
        <time>2022-05-18T12:22:01Z</time>
      </trkpt>
      <trkpt lat="46.49579" lon="5.35608">
        <ele>232.2</ele>
        <time>2022-05-18T12:22:07Z</time>
      </trkpt>
      <trkpt lat="46.49606" lon="5.35617">
        <ele>231.8</ele>
        <time>2022-05-18T12:22:11Z</time>
      </trkpt>
      <trkpt lat="46.4964" lon="5.35628">
        <ele>231.2</ele>
        <time>2022-05-18T12:22:16Z</time>
      </trkpt>
      <trkpt lat="46.49673" lon="5.35638">
        <ele>231</ele>
        <time>2022-05-18T12:22:21Z</time>
      </trkpt>
      <trkpt lat="46.49691" lon="5.35644">
        <ele>230.6</ele>
        <time>2022-05-18T12:22:24Z</time>
      </trkpt>
      <trkpt lat="46.49695" lon="5.35645">
        <ele>230.4</ele>
        <time>2022-05-18T12:22:25Z</time>
      </trkpt>
      <trkpt lat="46.49701" lon="5.35642">
        <ele>229.8</ele>
        <time>2022-05-18T12:22:27Z</time>
      </trkpt>
      <trkpt lat="46.49707" lon="5.35632">
        <ele>229.4</ele>
        <time>2022-05-18T12:22:29Z</time>
      </trkpt>
      <trkpt lat="46.49709" lon="5.35625">
        <ele>229</ele>
        <time>2022-05-18T12:22:30Z</time>
      </trkpt>
      <trkpt lat="46.49711" lon="5.35609">
        <ele>228.4</ele>
        <time>2022-05-18T12:22:32Z</time>
      </trkpt>
      <trkpt lat="46.49714" lon="5.35581">
        <ele>228</ele>
        <time>2022-05-18T12:22:35Z</time>
      </trkpt>
      <trkpt lat="46.49721" lon="5.35513">
        <ele>227.6</ele>
        <time>2022-05-18T12:22:42Z</time>
      </trkpt>
      <trkpt lat="46.49731" lon="5.35429">
        <ele>227.6</ele>
        <time>2022-05-18T12:22:50Z</time>
      </trkpt>
      <trkpt lat="46.49732" lon="5.35418">
        <ele>227.4</ele>
        <time>2022-05-18T12:22:51Z</time>
      </trkpt>
      <trkpt lat="46.49734" lon="5.35407">
        <ele>227.4</ele>
        <time>2022-05-18T12:22:52Z</time>
      </trkpt>
      <trkpt lat="46.49736" lon="5.3535">
        <ele>226.4</ele>
        <time>2022-05-18T12:22:57Z</time>
      </trkpt>
      <trkpt lat="46.49736" lon="5.35339">
        <ele>226.2</ele>
        <time>2022-05-18T12:22:58Z</time>
      </trkpt>
      <trkpt lat="46.49729" lon="5.3529">
        <ele>226.2</ele>
        <time>2022-05-18T12:23:03Z</time>
      </trkpt>
      <trkpt lat="46.49722" lon="5.35255">
        <ele>226.2</ele>
        <time>2022-05-18T12:23:07Z</time>
      </trkpt>
      <trkpt lat="46.4972" lon="5.35246">
        <ele>226.2</ele>
        <time>2022-05-18T12:23:08Z</time>
      </trkpt>
      <trkpt lat="46.49705" lon="5.35176">
        <ele>227</ele>
        <time>2022-05-18T12:23:16Z</time>
      </trkpt>
      <trkpt lat="46.49692" lon="5.35117">
        <ele>226.8</ele>
        <time>2022-05-18T12:23:22Z</time>
      </trkpt>
      <trkpt lat="46.49679" lon="5.35051">
        <ele>226.4</ele>
        <time>2022-05-18T12:23:29Z</time>
      </trkpt>
      <trkpt lat="46.49665" lon="5.34982">
        <ele>227</ele>
        <time>2022-05-18T12:23:37Z</time>
      </trkpt>
      <trkpt lat="46.49659" lon="5.34944">
        <ele>227.6</ele>
        <time>2022-05-18T12:23:42Z</time>
      </trkpt>
      <trkpt lat="46.49652" lon="5.34912">
        <ele>228.6</ele>
        <time>2022-05-18T12:23:46Z</time>
      </trkpt>
      <trkpt lat="46.49643" lon="5.34863">
        <ele>229.6</ele>
        <time>2022-05-18T12:23:52Z</time>
      </trkpt>
      <trkpt lat="46.49638" lon="5.34838">
        <ele>229.6</ele>
        <time>2022-05-18T12:23:55Z</time>
      </trkpt>
      <trkpt lat="46.4963" lon="5.34792">
        <ele>228.8</ele>
        <time>2022-05-18T12:24:00Z</time>
      </trkpt>
      <trkpt lat="46.49629" lon="5.34733">
        <ele>228.2</ele>
        <time>2022-05-18T12:24:05Z</time>
      </trkpt>
      <trkpt lat="46.49631" lon="5.34696">
        <ele>227.6</ele>
        <time>2022-05-18T12:24:08Z</time>
      </trkpt>
      <trkpt lat="46.49634" lon="5.34671">
        <ele>227</ele>
        <time>2022-05-18T12:24:10Z</time>
      </trkpt>
      <trkpt lat="46.49635" lon="5.34648">
        <ele>226.2</ele>
        <time>2022-05-18T12:24:12Z</time>
      </trkpt>
      <trkpt lat="46.4964" lon="5.34606">
        <ele>224.8</ele>
        <time>2022-05-18T12:24:15Z</time>
      </trkpt>
      <trkpt lat="46.49644" lon="5.34579">
        <ele>224.2</ele>
        <time>2022-05-18T12:24:17Z</time>
      </trkpt>
      <trkpt lat="46.49648" lon="5.34554">
        <ele>223.6</ele>
        <time>2022-05-18T12:24:19Z</time>
      </trkpt>
      <trkpt lat="46.49655" lon="5.34521">
        <ele>222.4</ele>
        <time>2022-05-18T12:24:22Z</time>
      </trkpt>
      <trkpt lat="46.4966" lon="5.34497">
        <ele>222.2</ele>
        <time>2022-05-18T12:24:24Z</time>
      </trkpt>
      <trkpt lat="46.49673" lon="5.34452">
        <ele>222.8</ele>
        <time>2022-05-18T12:24:29Z</time>
      </trkpt>
      <trkpt lat="46.49677" lon="5.34436">
        <ele>223.4</ele>
        <time>2022-05-18T12:24:31Z</time>
      </trkpt>
      <trkpt lat="46.49689" lon="5.34398">
        <ele>224.2</ele>
        <time>2022-05-18T12:24:36Z</time>
      </trkpt>
      <trkpt lat="46.49693" lon="5.34385">
        <ele>224.4</ele>
        <time>2022-05-18T12:24:38Z</time>
      </trkpt>
      <trkpt lat="46.49698" lon="5.3437">
        <ele>224.6</ele>
        <time>2022-05-18T12:24:40Z</time>
      </trkpt>
      <trkpt lat="46.49705" lon="5.34353">
        <ele>225</ele>
        <time>2022-05-18T12:24:43Z</time>
      </trkpt>
      <trkpt lat="46.49719" lon="5.34315">
        <ele>225.6</ele>
        <time>2022-05-18T12:24:49Z</time>
      </trkpt>
      <trkpt lat="46.49726" lon="5.34304">
        <ele>226</ele>
        <time>2022-05-18T12:24:51Z</time>
      </trkpt>
      <trkpt lat="46.49737" lon="5.34284">
        <ele>226.2</ele>
        <time>2022-05-18T12:24:54Z</time>
      </trkpt>
      <trkpt lat="46.49768" lon="5.34226">
        <ele>226.4</ele>
        <time>2022-05-18T12:25:02Z</time>
      </trkpt>
      <trkpt lat="46.49793" lon="5.3418">
        <ele>226.6</ele>
        <time>2022-05-18T12:25:09Z</time>
      </trkpt>
      <trkpt lat="46.49797" lon="5.34174">
        <ele>226.6</ele>
        <time>2022-05-18T12:25:10Z</time>
      </trkpt>
      <trkpt lat="46.49825" lon="5.34121">
        <ele>227</ele>
        <time>2022-05-18T12:25:18Z</time>
      </trkpt>
      <trkpt lat="46.49859" lon="5.34073">
        <ele>227</ele>
        <time>2022-05-18T12:25:26Z</time>
      </trkpt>
      <trkpt lat="46.49899" lon="5.34025">
        <ele>227</ele>
        <time>2022-05-18T12:25:34Z</time>
      </trkpt>
      <trkpt lat="46.49935" lon="5.33987">
        <ele>227.6</ele>
        <time>2022-05-18T12:25:42Z</time>
      </trkpt>
      <trkpt lat="46.49939" lon="5.33983">
        <ele>227.8</ele>
        <time>2022-05-18T12:25:43Z</time>
      </trkpt>
      <trkpt lat="46.49957" lon="5.33966">
        <ele>228.4</ele>
        <time>2022-05-18T12:25:47Z</time>
      </trkpt>
      <trkpt lat="46.49961" lon="5.33963">
        <ele>228.6</ele>
        <time>2022-05-18T12:25:48Z</time>
      </trkpt>
      <trkpt lat="46.49974" lon="5.33951">
        <ele>228.8</ele>
        <time>2022-05-18T12:25:51Z</time>
      </trkpt>
      <trkpt lat="46.49978" lon="5.33946">
        <ele>228.8</ele>
        <time>2022-05-18T12:25:52Z</time>
      </trkpt>
      <trkpt lat="46.49982" lon="5.33941">
        <ele>229</ele>
        <time>2022-05-18T12:25:53Z</time>
      </trkpt>
      <trkpt lat="46.49987" lon="5.33937">
        <ele>229.2</ele>
        <time>2022-05-18T12:25:54Z</time>
      </trkpt>
      <trkpt lat="46.5001" lon="5.33909">
        <ele>230</ele>
        <time>2022-05-18T12:25:59Z</time>
      </trkpt>
      <trkpt lat="46.50015" lon="5.33904">
        <ele>230</ele>
        <time>2022-05-18T12:26:00Z</time>
      </trkpt>
      <trkpt lat="46.50025" lon="5.33892">
        <ele>230</ele>
        <time>2022-05-18T12:26:02Z</time>
      </trkpt>
      <trkpt lat="46.50062" lon="5.33849">
        <ele>229.4</ele>
        <time>2022-05-18T12:26:09Z</time>
      </trkpt>
      <trkpt lat="46.5008" lon="5.33829">
        <ele>228.8</ele>
        <time>2022-05-18T12:26:12Z</time>
      </trkpt>
      <trkpt lat="46.50104" lon="5.33801">
        <ele>228.2</ele>
        <time>2022-05-18T12:26:16Z</time>
      </trkpt>
      <trkpt lat="46.50115" lon="5.33788">
        <ele>227.6</ele>
        <time>2022-05-18T12:26:18Z</time>
      </trkpt>
      <trkpt lat="46.50139" lon="5.33763">
        <ele>227.4</ele>
        <time>2022-05-18T12:26:22Z</time>
      </trkpt>
      <trkpt lat="46.50172" lon="5.33729">
        <ele>227.2</ele>
        <time>2022-05-18T12:26:28Z</time>
      </trkpt>
      <trkpt lat="46.50187" lon="5.33712">
        <ele>227.4</ele>
        <time>2022-05-18T12:26:31Z</time>
      </trkpt>
      <trkpt lat="46.50207" lon="5.33691">
        <ele>227.8</ele>
        <time>2022-05-18T12:26:35Z</time>
      </trkpt>
      <trkpt lat="46.50253" lon="5.3364">
        <ele>227.4</ele>
        <time>2022-05-18T12:26:44Z</time>
      </trkpt>
      <trkpt lat="46.50264" lon="5.33628">
        <ele>227.2</ele>
        <time>2022-05-18T12:26:46Z</time>
      </trkpt>
      <trkpt lat="46.50302" lon="5.33587">
        <ele>226.6</ele>
        <time>2022-05-18T12:26:53Z</time>
      </trkpt>
      <trkpt lat="46.50313" lon="5.33575">
        <ele>226.6</ele>
        <time>2022-05-18T12:26:55Z</time>
      </trkpt>
      <trkpt lat="46.50357" lon="5.33527">
        <ele>226</ele>
        <time>2022-05-18T12:27:03Z</time>
      </trkpt>
      <trkpt lat="46.50403" lon="5.33479">
        <ele>225.6</ele>
        <time>2022-05-18T12:27:11Z</time>
      </trkpt>
      <trkpt lat="46.50409" lon="5.33473">
        <ele>225.4</ele>
        <time>2022-05-18T12:27:12Z</time>
      </trkpt>
      <trkpt lat="46.50447" lon="5.33425">
        <ele>224.4</ele>
        <time>2022-05-18T12:27:19Z</time>
      </trkpt>
      <trkpt lat="46.50455" lon="5.33408">
        <ele>224.2</ele>
        <time>2022-05-18T12:27:21Z</time>
      </trkpt>
      <trkpt lat="46.50461" lon="5.33388">
        <ele>224</ele>
        <time>2022-05-18T12:27:23Z</time>
      </trkpt>
      <trkpt lat="46.50466" lon="5.33357">
        <ele>223.8</ele>
        <time>2022-05-18T12:27:26Z</time>
      </trkpt>
      <trkpt lat="46.50467" lon="5.33336">
        <ele>223.4</ele>
        <time>2022-05-18T12:27:28Z</time>
      </trkpt>
      <trkpt lat="46.50469" lon="5.33276">
        <ele>223.2</ele>
        <time>2022-05-18T12:27:34Z</time>
      </trkpt>
      <trkpt lat="46.50468" lon="5.33257">
        <ele>223.2</ele>
        <time>2022-05-18T12:27:36Z</time>
      </trkpt>
      <trkpt lat="46.50469" lon="5.33228">
        <ele>223.4</ele>
        <time>2022-05-18T12:27:39Z</time>
      </trkpt>
      <trkpt lat="46.50469" lon="5.332">
        <ele>223.6</ele>
        <time>2022-05-18T12:27:42Z</time>
      </trkpt>
      <trkpt lat="46.50471" lon="5.33163">
        <ele>223.8</ele>
        <time>2022-05-18T12:27:46Z</time>
      </trkpt>
      <trkpt lat="46.50472" lon="5.33109">
        <ele>223.8</ele>
        <time>2022-05-18T12:27:51Z</time>
      </trkpt>
      <trkpt lat="46.50472" lon="5.33097">
        <ele>223.8</ele>
        <time>2022-05-18T12:27:52Z</time>
      </trkpt>
      <trkpt lat="46.50473" lon="5.33059">
        <ele>223</ele>
        <time>2022-05-18T12:27:55Z</time>
      </trkpt>
      <trkpt lat="46.50473" lon="5.33031">
        <ele>222.2</ele>
        <time>2022-05-18T12:27:57Z</time>
      </trkpt>
      <trkpt lat="46.50473" lon="5.32987">
        <ele>221</ele>
        <time>2022-05-18T12:28:00Z</time>
      </trkpt>
      <trkpt lat="46.50474" lon="5.32958">
        <ele>220</ele>
        <time>2022-05-18T12:28:02Z</time>
      </trkpt>
      <trkpt lat="46.50474" lon="5.32943">
        <ele>219.6</ele>
        <time>2022-05-18T12:28:03Z</time>
      </trkpt>
      <trkpt lat="46.50475" lon="5.32899">
        <ele>218.2</ele>
        <time>2022-05-18T12:28:06Z</time>
      </trkpt>
      <trkpt lat="46.50475" lon="5.32855">
        <ele>216.8</ele>
        <time>2022-05-18T12:28:09Z</time>
      </trkpt>
      <trkpt lat="46.50476" lon="5.32825">
        <ele>215.6</ele>
        <time>2022-05-18T12:28:11Z</time>
      </trkpt>
      <trkpt lat="46.50477" lon="5.32782">
        <ele>214.2</ele>
        <time>2022-05-18T12:28:14Z</time>
      </trkpt>
      <trkpt lat="46.50477" lon="5.32741">
        <ele>213</ele>
        <time>2022-05-18T12:28:17Z</time>
      </trkpt>
      <trkpt lat="46.50478" lon="5.32688">
        <ele>212</ele>
        <time>2022-05-18T12:28:21Z</time>
      </trkpt>
      <trkpt lat="46.50478" lon="5.32636">
        <ele>211.4</ele>
        <time>2022-05-18T12:28:25Z</time>
      </trkpt>
      <trkpt lat="46.50478" lon="5.32599">
        <ele>211</ele>
        <time>2022-05-18T12:28:28Z</time>
      </trkpt>
      <trkpt lat="46.50476" lon="5.32562">
        <ele>210.4</ele>
        <time>2022-05-18T12:28:31Z</time>
      </trkpt>
      <trkpt lat="46.50473" lon="5.32503">
        <ele>210.2</ele>
        <time>2022-05-18T12:28:36Z</time>
      </trkpt>
      <trkpt lat="46.50468" lon="5.32444">
        <ele>209.6</ele>
        <time>2022-05-18T12:28:41Z</time>
      </trkpt>
      <trkpt lat="46.50458" lon="5.32388">
        <ele>209</ele>
        <time>2022-05-18T12:28:46Z</time>
      </trkpt>
      <trkpt lat="46.50451" lon="5.32357">
        <ele>208.6</ele>
        <time>2022-05-18T12:28:49Z</time>
      </trkpt>
      <trkpt lat="46.50436" lon="5.32286">
        <ele>208.4</ele>
        <time>2022-05-18T12:28:56Z</time>
      </trkpt>
      <trkpt lat="46.50432" lon="5.32213">
        <ele>208.2</ele>
        <time>2022-05-18T12:29:03Z</time>
      </trkpt>
      <trkpt lat="46.50439" lon="5.32194">
        <ele>208.2</ele>
        <time>2022-05-18T12:29:05Z</time>
      </trkpt>
      <trkpt lat="46.50445" lon="5.32188">
        <ele>208.2</ele>
        <time>2022-05-18T12:29:06Z</time>
      </trkpt>
      <trkpt lat="46.50457" lon="5.32178">
        <ele>208</ele>
        <time>2022-05-18T12:29:08Z</time>
      </trkpt>
      <trkpt lat="46.50462" lon="5.32172">
        <ele>208</ele>
        <time>2022-05-18T12:29:09Z</time>
      </trkpt>
      <trkpt lat="46.50466" lon="5.32164">
        <ele>208</ele>
        <time>2022-05-18T12:29:10Z</time>
      </trkpt>
      <trkpt lat="46.50479" lon="5.3212">
        <ele>208</ele>
        <time>2022-05-18T12:29:15Z</time>
      </trkpt>
      <trkpt lat="46.50502" lon="5.32064">
        <ele>207.8</ele>
        <time>2022-05-18T12:29:22Z</time>
      </trkpt>
      <trkpt lat="46.50532" lon="5.32018">
        <ele>207.8</ele>
        <time>2022-05-18T12:29:29Z</time>
      </trkpt>
      <trkpt lat="46.50536" lon="5.32012">
        <ele>207.8</ele>
        <time>2022-05-18T12:29:30Z</time>
      </trkpt>
      <trkpt lat="46.50554" lon="5.31983">
        <ele>208.2</ele>
        <time>2022-05-18T12:29:35Z</time>
      </trkpt>
      <trkpt lat="46.50568" lon="5.31948">
        <ele>209</ele>
        <time>2022-05-18T12:29:41Z</time>
      </trkpt>
      <trkpt lat="46.5057" lon="5.31943">
        <ele>209.2</ele>
        <time>2022-05-18T12:29:42Z</time>
      </trkpt>
      <trkpt lat="46.50575" lon="5.31934">
        <ele>209.6</ele>
        <time>2022-05-18T12:29:44Z</time>
      </trkpt>
      <trkpt lat="46.50582" lon="5.31914">
        <ele>210.6</ele>
        <time>2022-05-18T12:29:48Z</time>
      </trkpt>
      <trkpt lat="46.50589" lon="5.31893">
        <ele>211.6</ele>
        <time>2022-05-18T12:29:52Z</time>
      </trkpt>
      <trkpt lat="46.50596" lon="5.31873">
        <ele>212.2</ele>
        <time>2022-05-18T12:29:56Z</time>
      </trkpt>
      <trkpt lat="46.50598" lon="5.31868">
        <ele>212.4</ele>
        <time>2022-05-18T12:29:57Z</time>
      </trkpt>
      <trkpt lat="46.50605" lon="5.31854">
        <ele>212.8</ele>
        <time>2022-05-18T12:30:00Z</time>
      </trkpt>
      <trkpt lat="46.50612" lon="5.31831">
        <ele>214</ele>
        <time>2022-05-18T12:30:04Z</time>
      </trkpt>
      <trkpt lat="46.50618" lon="5.31813">
        <ele>215</ele>
        <time>2022-05-18T12:30:07Z</time>
      </trkpt>
      <trkpt lat="46.50621" lon="5.31802">
        <ele>215.4</ele>
        <time>2022-05-18T12:30:09Z</time>
      </trkpt>
      <trkpt lat="46.50625" lon="5.31791">
        <ele>215.6</ele>
        <time>2022-05-18T12:30:11Z</time>
      </trkpt>
      <trkpt lat="46.50631" lon="5.31775">
        <ele>216</ele>
        <time>2022-05-18T12:30:14Z</time>
      </trkpt>
      <trkpt lat="46.50633" lon="5.31769">
        <ele>216.2</ele>
        <time>2022-05-18T12:30:15Z</time>
      </trkpt>
      <trkpt lat="46.50637" lon="5.31758">
        <ele>216.4</ele>
        <time>2022-05-18T12:30:17Z</time>
      </trkpt>
      <trkpt lat="46.50649" lon="5.31733">
        <ele>216.4</ele>
        <time>2022-05-18T12:30:21Z</time>
      </trkpt>
      <trkpt lat="46.50658" lon="5.31723">
        <ele>216.4</ele>
        <time>2022-05-18T12:30:23Z</time>
      </trkpt>
      <trkpt lat="46.50667" lon="5.31717">
        <ele>216.4</ele>
        <time>2022-05-18T12:30:25Z</time>
      </trkpt>
      <trkpt lat="46.50694" lon="5.31711">
        <ele>216.4</ele>
        <time>2022-05-18T12:30:30Z</time>
      </trkpt>
      <trkpt lat="46.50739" lon="5.31706">
        <ele>216.4</ele>
        <time>2022-05-18T12:30:38Z</time>
      </trkpt>
      <trkpt lat="46.50762" lon="5.31705">
        <ele>216.4</ele>
        <time>2022-05-18T12:30:42Z</time>
      </trkpt>
      <trkpt lat="46.50774" lon="5.31708">
        <ele>216.4</ele>
        <time>2022-05-18T12:30:44Z</time>
      </trkpt>
      <trkpt lat="46.50779" lon="5.31711">
        <ele>216.4</ele>
        <time>2022-05-18T12:30:45Z</time>
      </trkpt>
      <trkpt lat="46.508" lon="5.31726">
        <ele>216.4</ele>
        <time>2022-05-18T12:30:49Z</time>
      </trkpt>
      <trkpt lat="46.50825" lon="5.31745">
        <ele>216.8</ele>
        <time>2022-05-18T12:30:54Z</time>
      </trkpt>
      <trkpt lat="46.50836" lon="5.31747">
        <ele>217</ele>
        <time>2022-05-18T12:30:56Z</time>
      </trkpt>
      <trkpt lat="46.50846" lon="5.31746">
        <ele>217.2</ele>
        <time>2022-05-18T12:30:58Z</time>
      </trkpt>
      <trkpt lat="46.50851" lon="5.31743">
        <ele>217.4</ele>
        <time>2022-05-18T12:30:59Z</time>
      </trkpt>
      <trkpt lat="46.50856" lon="5.3174">
        <ele>217.6</ele>
        <time>2022-05-18T12:31:00Z</time>
      </trkpt>
      <trkpt lat="46.50864" lon="5.31731">
        <ele>217.8</ele>
        <time>2022-05-18T12:31:02Z</time>
      </trkpt>
      <trkpt lat="46.50878" lon="5.31717">
        <ele>218.2</ele>
        <time>2022-05-18T12:31:05Z</time>
      </trkpt>
      <trkpt lat="46.50892" lon="5.31702">
        <ele>218.4</ele>
        <time>2022-05-18T12:31:08Z</time>
      </trkpt>
      <trkpt lat="46.50912" lon="5.31681">
        <ele>218.4</ele>
        <time>2022-05-18T12:31:12Z</time>
      </trkpt>
      <trkpt lat="46.50947" lon="5.31644">
        <ele>218</ele>
        <time>2022-05-18T12:31:18Z</time>
      </trkpt>
      <trkpt lat="46.50971" lon="5.31619">
        <ele>217.4</ele>
        <time>2022-05-18T12:31:22Z</time>
      </trkpt>
      <trkpt lat="46.50988" lon="5.31601">
        <ele>217</ele>
        <time>2022-05-18T12:31:25Z</time>
      </trkpt>
      <trkpt lat="46.51015" lon="5.31573">
        <ele>217</ele>
        <time>2022-05-18T12:31:30Z</time>
      </trkpt>
      <trkpt lat="46.51029" lon="5.31556">
        <ele>217.2</ele>
        <time>2022-05-18T12:31:33Z</time>
      </trkpt>
      <trkpt lat="46.51036" lon="5.31541">
        <ele>217.2</ele>
        <time>2022-05-18T12:31:35Z</time>
      </trkpt>
      <trkpt lat="46.51042" lon="5.31522">
        <ele>217.2</ele>
        <time>2022-05-18T12:31:37Z</time>
      </trkpt>
      <trkpt lat="46.51046" lon="5.31502">
        <ele>217.2</ele>
        <time>2022-05-18T12:31:39Z</time>
      </trkpt>
      <trkpt lat="46.51063" lon="5.31435">
        <ele>216.2</ele>
        <time>2022-05-18T12:31:45Z</time>
      </trkpt>
      <trkpt lat="46.51065" lon="5.31423">
        <ele>216</ele>
        <time>2022-05-18T12:31:46Z</time>
      </trkpt>
      <trkpt lat="46.5107" lon="5.314">
        <ele>215.4</ele>
        <time>2022-05-18T12:31:48Z</time>
      </trkpt>
      <trkpt lat="46.51072" lon="5.31375">
        <ele>215</ele>
        <time>2022-05-18T12:31:50Z</time>
      </trkpt>
      <trkpt lat="46.5107" lon="5.31338">
        <ele>214.4</ele>
        <time>2022-05-18T12:31:53Z</time>
      </trkpt>
      <trkpt lat="46.5107" lon="5.31327">
        <ele>214.2</ele>
        <time>2022-05-18T12:31:54Z</time>
      </trkpt>
      <trkpt lat="46.51072" lon="5.31316">
        <ele>213.8</ele>
        <time>2022-05-18T12:31:55Z</time>
      </trkpt>
      <trkpt lat="46.5108" lon="5.31296">
        <ele>213.4</ele>
        <time>2022-05-18T12:31:57Z</time>
      </trkpt>
      <trkpt lat="46.51093" lon="5.3128">
        <ele>212.8</ele>
        <time>2022-05-18T12:31:59Z</time>
      </trkpt>
      <trkpt lat="46.51101" lon="5.31273">
        <ele>212.6</ele>
        <time>2022-05-18T12:32:00Z</time>
      </trkpt>
      <trkpt lat="46.51109" lon="5.31265">
        <ele>212.2</ele>
        <time>2022-05-18T12:32:01Z</time>
      </trkpt>
      <trkpt lat="46.51123" lon="5.31247">
        <ele>211.6</ele>
        <time>2022-05-18T12:32:03Z</time>
      </trkpt>
      <trkpt lat="46.51131" lon="5.31238">
        <ele>211.2</ele>
        <time>2022-05-18T12:32:04Z</time>
      </trkpt>
      <trkpt lat="46.51146" lon="5.3122">
        <ele>210.6</ele>
        <time>2022-05-18T12:32:06Z</time>
      </trkpt>
      <trkpt lat="46.51181" lon="5.31174">
        <ele>209.4</ele>
        <time>2022-05-18T12:32:11Z</time>
      </trkpt>
      <trkpt lat="46.51215" lon="5.31128">
        <ele>208.4</ele>
        <time>2022-05-18T12:32:16Z</time>
      </trkpt>
      <trkpt lat="46.5123" lon="5.31108">
        <ele>208.2</ele>
        <time>2022-05-18T12:32:18Z</time>
      </trkpt>
      <trkpt lat="46.51243" lon="5.31092">
        <ele>208</ele>
        <time>2022-05-18T12:32:20Z</time>
      </trkpt>
      <trkpt lat="46.51252" lon="5.31086">
        <ele>208</ele>
        <time>2022-05-18T12:32:21Z</time>
      </trkpt>
      <trkpt lat="46.5126" lon="5.31081">
        <ele>207.6</ele>
        <time>2022-05-18T12:32:22Z</time>
      </trkpt>
      <trkpt lat="46.5128" lon="5.31077">
        <ele>207.4</ele>
        <time>2022-05-18T12:32:24Z</time>
      </trkpt>
      <trkpt lat="46.51287" lon="5.31077">
        <ele>206.8</ele>
        <time>2022-05-18T12:32:25Z</time>
      </trkpt>
      <trkpt lat="46.51334" lon="5.31075">
        <ele>206</ele>
        <time>2022-05-18T12:32:31Z</time>
      </trkpt>
      <trkpt lat="46.51391" lon="5.31072">
        <ele>206</ele>
        <time>2022-05-18T12:32:39Z</time>
      </trkpt>
      <trkpt lat="46.51447" lon="5.3107">
        <ele>206</ele>
        <time>2022-05-18T12:32:47Z</time>
      </trkpt>
      <trkpt lat="46.51454" lon="5.3107">
        <ele>206</ele>
        <time>2022-05-18T12:32:48Z</time>
      </trkpt>
      <trkpt lat="46.51474" lon="5.3107">
        <ele>205.8</ele>
        <time>2022-05-18T12:32:51Z</time>
      </trkpt>
      <trkpt lat="46.515" lon="5.31072">
        <ele>205.8</ele>
        <time>2022-05-18T12:32:55Z</time>
      </trkpt>
      <trkpt lat="46.51556" lon="5.31075">
        <ele>205.8</ele>
        <time>2022-05-18T12:33:04Z</time>
      </trkpt>
      <trkpt lat="46.51597" lon="5.31084">
        <ele>205.8</ele>
        <time>2022-05-18T12:33:11Z</time>
      </trkpt>
      <trkpt lat="46.51629" lon="5.311">
        <ele>206.2</ele>
        <time>2022-05-18T12:33:17Z</time>
      </trkpt>
      <trkpt lat="46.51633" lon="5.31102">
        <ele>206.4</ele>
        <time>2022-05-18T12:33:18Z</time>
      </trkpt>
      <trkpt lat="46.51648" lon="5.31105">
        <ele>207</ele>
        <time>2022-05-18T12:33:21Z</time>
      </trkpt>
      <trkpt lat="46.51661" lon="5.31104">
        <ele>207.6</ele>
        <time>2022-05-18T12:33:24Z</time>
      </trkpt>
      <trkpt lat="46.51669" lon="5.31107">
        <ele>207.8</ele>
        <time>2022-05-18T12:33:26Z</time>
      </trkpt>
      <trkpt lat="46.51677" lon="5.31118">
        <ele>208</ele>
        <time>2022-05-18T12:33:28Z</time>
      </trkpt>
      <trkpt lat="46.51681" lon="5.31125">
        <ele>208</ele>
        <time>2022-05-18T12:33:29Z</time>
      </trkpt>
      <trkpt lat="46.51688" lon="5.31139">
        <ele>208.4</ele>
        <time>2022-05-18T12:33:31Z</time>
      </trkpt>
      <trkpt lat="46.51703" lon="5.31157">
        <ele>208.4</ele>
        <time>2022-05-18T12:33:34Z</time>
      </trkpt>
      <trkpt lat="46.51729" lon="5.31174">
        <ele>207.8</ele>
        <time>2022-05-18T12:33:38Z</time>
      </trkpt>
      <trkpt lat="46.51744" lon="5.31179">
        <ele>207.6</ele>
        <time>2022-05-18T12:33:40Z</time>
      </trkpt>
      <trkpt lat="46.51761" lon="5.3118">
        <ele>207.2</ele>
        <time>2022-05-18T12:33:42Z</time>
      </trkpt>
      <trkpt lat="46.51777" lon="5.3118">
        <ele>207</ele>
        <time>2022-05-18T12:33:44Z</time>
      </trkpt>
      <trkpt lat="46.51811" lon="5.31181">
        <ele>206</ele>
        <time>2022-05-18T12:33:48Z</time>
      </trkpt>
      <trkpt lat="46.5182" lon="5.31183">
        <ele>205.4</ele>
        <time>2022-05-18T12:33:49Z</time>
      </trkpt>
      <trkpt lat="46.51829" lon="5.31185">
        <ele>205</ele>
        <time>2022-05-18T12:33:50Z</time>
      </trkpt>
      <trkpt lat="46.51838" lon="5.31188">
        <ele>204.2</ele>
        <time>2022-05-18T12:33:51Z</time>
      </trkpt>
      <trkpt lat="46.51846" lon="5.31192">
        <ele>203.6</ele>
        <time>2022-05-18T12:33:52Z</time>
      </trkpt>
      <trkpt lat="46.51855" lon="5.31198">
        <ele>203.2</ele>
        <time>2022-05-18T12:33:53Z</time>
      </trkpt>
      <trkpt lat="46.51869" lon="5.31213">
        <ele>202.4</ele>
        <time>2022-05-18T12:33:55Z</time>
      </trkpt>
      <trkpt lat="46.51881" lon="5.31229">
        <ele>202</ele>
        <time>2022-05-18T12:33:57Z</time>
      </trkpt>
      <trkpt lat="46.51892" lon="5.31247">
        <ele>201.2</ele>
        <time>2022-05-18T12:33:59Z</time>
      </trkpt>
      <trkpt lat="46.51919" lon="5.31288">
        <ele>200.6</ele>
        <time>2022-05-18T12:34:04Z</time>
      </trkpt>
      <trkpt lat="46.51959" lon="5.31346">
        <ele>200.6</ele>
        <time>2022-05-18T12:34:12Z</time>
      </trkpt>
      <trkpt lat="46.51997" lon="5.31403">
        <ele>201.2</ele>
        <time>2022-05-18T12:34:20Z</time>
      </trkpt>
      <trkpt lat="46.52033" lon="5.31455">
        <ele>202</ele>
        <time>2022-05-18T12:34:28Z</time>
      </trkpt>
      <trkpt lat="46.52048" lon="5.31479">
        <ele>202.2</ele>
        <time>2022-05-18T12:34:32Z</time>
      </trkpt>
      <trkpt lat="46.5206" lon="5.31497">
        <ele>202.6</ele>
        <time>2022-05-18T12:34:35Z</time>
      </trkpt>
      <trkpt lat="46.52072" lon="5.31515">
        <ele>203.2</ele>
        <time>2022-05-18T12:34:38Z</time>
      </trkpt>
      <trkpt lat="46.52076" lon="5.31521">
        <ele>203.4</ele>
        <time>2022-05-18T12:34:39Z</time>
      </trkpt>
      <trkpt lat="46.52083" lon="5.31533">
        <ele>203.8</ele>
        <time>2022-05-18T12:34:41Z</time>
      </trkpt>
      <trkpt lat="46.52086" lon="5.31539">
        <ele>204</ele>
        <time>2022-05-18T12:34:42Z</time>
      </trkpt>
      <trkpt lat="46.52089" lon="5.31545">
        <ele>204.2</ele>
        <time>2022-05-18T12:34:43Z</time>
      </trkpt>
      <trkpt lat="46.52092" lon="5.3155">
        <ele>204.4</ele>
        <time>2022-05-18T12:34:44Z</time>
      </trkpt>
      <trkpt lat="46.521" lon="5.31562">
        <ele>204.6</ele>
        <time>2022-05-18T12:34:46Z</time>
      </trkpt>
      <trkpt lat="46.52119" lon="5.31589">
        <ele>205.4</ele>
        <time>2022-05-18T12:34:51Z</time>
      </trkpt>
      <trkpt lat="46.52127" lon="5.316">
        <ele>205.8</ele>
        <time>2022-05-18T12:34:53Z</time>
      </trkpt>
      <trkpt lat="46.52131" lon="5.31606">
        <ele>206</ele>
        <time>2022-05-18T12:34:54Z</time>
      </trkpt>
      <trkpt lat="46.52142" lon="5.3162">
        <ele>206.6</ele>
        <time>2022-05-18T12:34:57Z</time>
      </trkpt>
      <trkpt lat="46.52146" lon="5.31625">
        <ele>206.6</ele>
        <time>2022-05-18T12:34:58Z</time>
      </trkpt>
      <trkpt lat="46.52165" lon="5.3165">
        <ele>207.6</ele>
        <time>2022-05-18T12:35:03Z</time>
      </trkpt>
      <trkpt lat="46.52175" lon="5.31664">
        <ele>208</ele>
        <time>2022-05-18T12:35:06Z</time>
      </trkpt>
      <trkpt lat="46.52195" lon="5.31692">
        <ele>208.8</ele>
        <time>2022-05-18T12:35:12Z</time>
      </trkpt>
      <trkpt lat="46.52208" lon="5.31711">
        <ele>209.2</ele>
        <time>2022-05-18T12:35:16Z</time>
      </trkpt>
      <trkpt lat="46.52221" lon="5.31728">
        <ele>209.8</ele>
        <time>2022-05-18T12:35:20Z</time>
      </trkpt>
      <trkpt lat="46.52231" lon="5.31742">
        <ele>210.2</ele>
        <time>2022-05-18T12:35:23Z</time>
      </trkpt>
      <trkpt lat="46.52244" lon="5.3176">
        <ele>210.8</ele>
        <time>2022-05-18T12:35:27Z</time>
      </trkpt>
      <trkpt lat="46.52263" lon="5.31789">
        <ele>211.4</ele>
        <time>2022-05-18T12:35:33Z</time>
      </trkpt>
      <trkpt lat="46.52274" lon="5.31803">
        <ele>211.8</ele>
        <time>2022-05-18T12:35:36Z</time>
      </trkpt>
      <trkpt lat="46.52297" lon="5.31837">
        <ele>213</ele>
        <time>2022-05-18T12:35:43Z</time>
      </trkpt>
      <trkpt lat="46.52306" lon="5.31851">
        <ele>213.2</ele>
        <time>2022-05-18T12:35:46Z</time>
      </trkpt>
      <trkpt lat="46.52313" lon="5.31859">
        <ele>213.8</ele>
        <time>2022-05-18T12:35:48Z</time>
      </trkpt>
      <trkpt lat="46.52317" lon="5.31864">
        <ele>214</ele>
        <time>2022-05-18T12:35:49Z</time>
      </trkpt>
      <trkpt lat="46.52325" lon="5.31874">
        <ele>214.4</ele>
        <time>2022-05-18T12:35:51Z</time>
      </trkpt>
      <trkpt lat="46.52339" lon="5.31897">
        <ele>215</ele>
        <time>2022-05-18T12:35:56Z</time>
      </trkpt>
      <trkpt lat="46.52363" lon="5.31928">
        <ele>215.8</ele>
        <time>2022-05-18T12:36:02Z</time>
      </trkpt>
      <trkpt lat="46.52367" lon="5.31933">
        <ele>215.8</ele>
        <time>2022-05-18T12:36:03Z</time>
      </trkpt>
      <trkpt lat="46.52391" lon="5.31968">
        <ele>215.6</ele>
        <time>2022-05-18T12:36:08Z</time>
      </trkpt>
      <trkpt lat="46.5242" lon="5.32011">
        <ele>214.2</ele>
        <time>2022-05-18T12:36:14Z</time>
      </trkpt>
      <trkpt lat="46.52431" lon="5.32027">
        <ele>213.8</ele>
        <time>2022-05-18T12:36:16Z</time>
      </trkpt>
      <trkpt lat="46.52461" lon="5.32067">
        <ele>212.6</ele>
        <time>2022-05-18T12:36:21Z</time>
      </trkpt>
      <trkpt lat="46.52468" lon="5.32077">
        <ele>212.4</ele>
        <time>2022-05-18T12:36:22Z</time>
      </trkpt>
      <trkpt lat="46.52484" lon="5.321">
        <ele>211.4</ele>
        <time>2022-05-18T12:36:25Z</time>
      </trkpt>
      <trkpt lat="46.52513" lon="5.3214">
        <ele>210.2</ele>
        <time>2022-05-18T12:36:30Z</time>
      </trkpt>
      <trkpt lat="46.52543" lon="5.32176">
        <ele>208.8</ele>
        <time>2022-05-18T12:36:35Z</time>
      </trkpt>
      <trkpt lat="46.52548" lon="5.32181">
        <ele>208.6</ele>
        <time>2022-05-18T12:36:36Z</time>
      </trkpt>
      <trkpt lat="46.52554" lon="5.32186">
        <ele>208.2</ele>
        <time>2022-05-18T12:36:37Z</time>
      </trkpt>
      <trkpt lat="46.52564" lon="5.32191">
        <ele>207.6</ele>
        <time>2022-05-18T12:36:39Z</time>
      </trkpt>
      <trkpt lat="46.5257" lon="5.3219">
        <ele>207.2</ele>
        <time>2022-05-18T12:36:40Z</time>
      </trkpt>
      <trkpt lat="46.52579" lon="5.32178">
        <ele>206.8</ele>
        <time>2022-05-18T12:36:42Z</time>
      </trkpt>
      <trkpt lat="46.52584" lon="5.32165">
        <ele>206.4</ele>
        <time>2022-05-18T12:36:44Z</time>
      </trkpt>
      <trkpt lat="46.52605" lon="5.32118">
        <ele>206</ele>
        <time>2022-05-18T12:36:51Z</time>
      </trkpt>
      <trkpt lat="46.52608" lon="5.32112">
        <ele>206</ele>
        <time>2022-05-18T12:36:52Z</time>
      </trkpt>
      <trkpt lat="46.52624" lon="5.32075">
        <ele>207.2</ele>
        <time>2022-05-18T12:36:58Z</time>
      </trkpt>
      <trkpt lat="46.52626" lon="5.32069">
        <ele>207.4</ele>
        <time>2022-05-18T12:36:59Z</time>
      </trkpt>
      <trkpt lat="46.52627" lon="5.32062">
        <ele>207.8</ele>
        <time>2022-05-18T12:37:00Z</time>
      </trkpt>
      <trkpt lat="46.52636" lon="5.32039">
        <ele>208.4</ele>
        <time>2022-05-18T12:37:04Z</time>
      </trkpt>
      <trkpt lat="46.5264" lon="5.32028">
        <ele>208.8</ele>
        <time>2022-05-18T12:37:06Z</time>
      </trkpt>
      <trkpt lat="46.52649" lon="5.32003">
        <ele>209.6</ele>
        <time>2022-05-18T12:37:11Z</time>
      </trkpt>
      <trkpt lat="46.52653" lon="5.31989">
        <ele>210</ele>
        <time>2022-05-18T12:37:14Z</time>
      </trkpt>
      <trkpt lat="46.52656" lon="5.31973">
        <ele>211.2</ele>
        <time>2022-05-18T12:37:17Z</time>
      </trkpt>
      <trkpt lat="46.52659" lon="5.31957">
        <ele>211.6</ele>
        <time>2022-05-18T12:37:20Z</time>
      </trkpt>
      <trkpt lat="46.52661" lon="5.31947">
        <ele>212.2</ele>
        <time>2022-05-18T12:37:22Z</time>
      </trkpt>
      <trkpt lat="46.52668" lon="5.31918">
        <ele>213.4</ele>
        <time>2022-05-18T12:37:28Z</time>
      </trkpt>
      <trkpt lat="46.52669" lon="5.31913">
        <ele>213.8</ele>
        <time>2022-05-18T12:37:29Z</time>
      </trkpt>
      <trkpt lat="46.52676" lon="5.31895">
        <ele>214.6</ele>
        <time>2022-05-18T12:37:33Z</time>
      </trkpt>
      <trkpt lat="46.5268" lon="5.31881">
        <ele>215.4</ele>
        <time>2022-05-18T12:37:36Z</time>
      </trkpt>
      <trkpt lat="46.52683" lon="5.31871">
        <ele>215.8</ele>
        <time>2022-05-18T12:37:38Z</time>
      </trkpt>
      <trkpt lat="46.52693" lon="5.31837">
        <ele>217</ele>
        <time>2022-05-18T12:37:45Z</time>
      </trkpt>
      <trkpt lat="46.52715" lon="5.31807">
        <ele>218.2</ele>
        <time>2022-05-18T12:37:52Z</time>
      </trkpt>
      <trkpt lat="46.52723" lon="5.31801">
        <ele>218.2</ele>
        <time>2022-05-18T12:37:54Z</time>
      </trkpt>
      <trkpt lat="46.52745" lon="5.3179">
        <ele>218.6</ele>
        <time>2022-05-18T12:37:59Z</time>
      </trkpt>
      <trkpt lat="46.52789" lon="5.31771">
        <ele>219</ele>
        <time>2022-05-18T12:38:08Z</time>
      </trkpt>
      <trkpt lat="46.52808" lon="5.31764">
        <ele>219.2</ele>
        <time>2022-05-18T12:38:12Z</time>
      </trkpt>
      <trkpt lat="46.52824" lon="5.31759">
        <ele>219.2</ele>
        <time>2022-05-18T12:38:15Z</time>
      </trkpt>
      <trkpt lat="46.52835" lon="5.31755">
        <ele>219.2</ele>
        <time>2022-05-18T12:38:17Z</time>
      </trkpt>
      <trkpt lat="46.52856" lon="5.31744">
        <ele>219.2</ele>
        <time>2022-05-18T12:38:21Z</time>
      </trkpt>
      <trkpt lat="46.52895" lon="5.31728">
        <ele>218.8</ele>
        <time>2022-05-18T12:38:27Z</time>
      </trkpt>
      <trkpt lat="46.52902" lon="5.31728">
        <ele>218.8</ele>
        <time>2022-05-18T12:38:28Z</time>
      </trkpt>
      <trkpt lat="46.52921" lon="5.31733">
        <ele>218.4</ele>
        <time>2022-05-18T12:38:31Z</time>
      </trkpt>
      <trkpt lat="46.52927" lon="5.31737">
        <ele>218.4</ele>
        <time>2022-05-18T12:38:32Z</time>
      </trkpt>
      <trkpt lat="46.52943" lon="5.3175">
        <ele>218.2</ele>
        <time>2022-05-18T12:38:35Z</time>
      </trkpt>
      <trkpt lat="46.52948" lon="5.31754">
        <ele>218.2</ele>
        <time>2022-05-18T12:38:36Z</time>
      </trkpt>
      <trkpt lat="46.52967" lon="5.31774">
        <ele>218.4</ele>
        <time>2022-05-18T12:38:40Z</time>
      </trkpt>
      <trkpt lat="46.52972" lon="5.31778">
        <ele>218.4</ele>
        <time>2022-05-18T12:38:41Z</time>
      </trkpt>
      <trkpt lat="46.52984" lon="5.31781">
        <ele>218.2</ele>
        <time>2022-05-18T12:38:43Z</time>
      </trkpt>
      <trkpt lat="46.52998" lon="5.31777">
        <ele>218</ele>
        <time>2022-05-18T12:38:45Z</time>
      </trkpt>
      <trkpt lat="46.53003" lon="5.31773">
        <ele>218.2</ele>
        <time>2022-05-18T12:38:46Z</time>
      </trkpt>
      <trkpt lat="46.53008" lon="5.31767">
        <ele>218.2</ele>
        <time>2022-05-18T12:38:47Z</time>
      </trkpt>
      <trkpt lat="46.53019" lon="5.31752">
        <ele>218</ele>
        <time>2022-05-18T12:38:49Z</time>
      </trkpt>
      <trkpt lat="46.53025" lon="5.31735">
        <ele>218</ele>
        <time>2022-05-18T12:38:51Z</time>
      </trkpt>
      <trkpt lat="46.53034" lon="5.3171">
        <ele>217.4</ele>
        <time>2022-05-18T12:38:54Z</time>
      </trkpt>
      <trkpt lat="46.5305" lon="5.3167">
        <ele>216.8</ele>
        <time>2022-05-18T12:38:58Z</time>
      </trkpt>
      <trkpt lat="46.53055" lon="5.31662">
        <ele>216.8</ele>
        <time>2022-05-18T12:38:59Z</time>
      </trkpt>
      <trkpt lat="46.53069" lon="5.31648">
        <ele>216.6</ele>
        <time>2022-05-18T12:39:01Z</time>
      </trkpt>
      <trkpt lat="46.53075" lon="5.31644">
        <ele>216.2</ele>
        <time>2022-05-18T12:39:02Z</time>
      </trkpt>
      <trkpt lat="46.53085" lon="5.31638">
        <ele>215.8</ele>
        <time>2022-05-18T12:39:03Z</time>
      </trkpt>
      <trkpt lat="46.53112" lon="5.31626">
        <ele>214.6</ele>
        <time>2022-05-18T12:39:06Z</time>
      </trkpt>
      <trkpt lat="46.53121" lon="5.31622">
        <ele>213.8</ele>
        <time>2022-05-18T12:39:07Z</time>
      </trkpt>
      <trkpt lat="46.5313" lon="5.31618">
        <ele>213.4</ele>
        <time>2022-05-18T12:39:08Z</time>
      </trkpt>
      <trkpt lat="46.53165" lon="5.31604">
        <ele>212.2</ele>
        <time>2022-05-18T12:39:12Z</time>
      </trkpt>
      <trkpt lat="46.53175" lon="5.31601">
        <ele>212</ele>
        <time>2022-05-18T12:39:13Z</time>
      </trkpt>
      <trkpt lat="46.53194" lon="5.31593">
        <ele>211</ele>
        <time>2022-05-18T12:39:15Z</time>
      </trkpt>
      <trkpt lat="46.53213" lon="5.31586">
        <ele>210</ele>
        <time>2022-05-18T12:39:17Z</time>
      </trkpt>
      <trkpt lat="46.53232" lon="5.31578">
        <ele>209.2</ele>
        <time>2022-05-18T12:39:19Z</time>
      </trkpt>
      <trkpt lat="46.53243" lon="5.31572">
        <ele>209</ele>
        <time>2022-05-18T12:39:20Z</time>
      </trkpt>
      <trkpt lat="46.53277" lon="5.31546">
        <ele>207.2</ele>
        <time>2022-05-18T12:39:24Z</time>
      </trkpt>
      <trkpt lat="46.53306" lon="5.31521">
        <ele>206.2</ele>
        <time>2022-05-18T12:39:27Z</time>
      </trkpt>
      <trkpt lat="46.53314" lon="5.31513">
        <ele>205.2</ele>
        <time>2022-05-18T12:39:28Z</time>
      </trkpt>
      <trkpt lat="46.53339" lon="5.3149">
        <ele>204</ele>
        <time>2022-05-18T12:39:31Z</time>
      </trkpt>
      <trkpt lat="46.53368" lon="5.31464">
        <ele>202.8</ele>
        <time>2022-05-18T12:39:35Z</time>
      </trkpt>
      <trkpt lat="46.53385" lon="5.31441">
        <ele>202.6</ele>
        <time>2022-05-18T12:39:38Z</time>
      </trkpt>
      <trkpt lat="46.53389" lon="5.31432">
        <ele>202.6</ele>
        <time>2022-05-18T12:39:39Z</time>
      </trkpt>
      <trkpt lat="46.53421" lon="5.31356">
        <ele>202.6</ele>
        <time>2022-05-18T12:39:47Z</time>
      </trkpt>
      <trkpt lat="46.53453" lon="5.31287">
        <ele>202</ele>
        <time>2022-05-18T12:39:54Z</time>
      </trkpt>
      <trkpt lat="46.53457" lon="5.31278">
        <ele>201.8</ele>
        <time>2022-05-18T12:39:55Z</time>
      </trkpt>
      <trkpt lat="46.53461" lon="5.31269">
        <ele>201.8</ele>
        <time>2022-05-18T12:39:56Z</time>
      </trkpt>
      <trkpt lat="46.53484" lon="5.31214">
        <ele>201.2</ele>
        <time>2022-05-18T12:40:02Z</time>
      </trkpt>
      <trkpt lat="46.53491" lon="5.31172">
        <ele>201.4</ele>
        <time>2022-05-18T12:40:07Z</time>
      </trkpt>
      <trkpt lat="46.53496" lon="5.31141">
        <ele>201.8</ele>
        <time>2022-05-18T12:40:11Z</time>
      </trkpt>
      <trkpt lat="46.53501" lon="5.31128">
        <ele>202.4</ele>
        <time>2022-05-18T12:40:13Z</time>
      </trkpt>
      <trkpt lat="46.53504" lon="5.31122">
        <ele>202.6</ele>
        <time>2022-05-18T12:40:14Z</time>
      </trkpt>
      <trkpt lat="46.53507" lon="5.31116">
        <ele>202.8</ele>
        <time>2022-05-18T12:40:15Z</time>
      </trkpt>
      <trkpt lat="46.53511" lon="5.31111">
        <ele>203</ele>
        <time>2022-05-18T12:40:16Z</time>
      </trkpt>
      <trkpt lat="46.53516" lon="5.31107">
        <ele>203.4</ele>
        <time>2022-05-18T12:40:17Z</time>
      </trkpt>
      <trkpt lat="46.53536" lon="5.31092">
        <ele>204</ele>
        <time>2022-05-18T12:40:21Z</time>
      </trkpt>
      <trkpt lat="46.53551" lon="5.31084">
        <ele>205</ele>
        <time>2022-05-18T12:40:24Z</time>
      </trkpt>
      <trkpt lat="46.53561" lon="5.31078">
        <ele>205.2</ele>
        <time>2022-05-18T12:40:26Z</time>
      </trkpt>
      <trkpt lat="46.53592" lon="5.3106">
        <ele>205.6</ele>
        <time>2022-05-18T12:40:32Z</time>
      </trkpt>
      <trkpt lat="46.53644" lon="5.31029">
        <ele>205.6</ele>
        <time>2022-05-18T12:40:41Z</time>
      </trkpt>
      <trkpt lat="46.53656" lon="5.31025">
        <ele>205.4</ele>
        <time>2022-05-18T12:40:43Z</time>
      </trkpt>
      <trkpt lat="46.53669" lon="5.31024">
        <ele>205.2</ele>
        <time>2022-05-18T12:40:45Z</time>
      </trkpt>
      <trkpt lat="46.53711" lon="5.31031">
        <ele>205.2</ele>
        <time>2022-05-18T12:40:52Z</time>
      </trkpt>
      <trkpt lat="46.5373" lon="5.31032">
        <ele>205.4</ele>
        <time>2022-05-18T12:40:55Z</time>
      </trkpt>
      <trkpt lat="46.53748" lon="5.31027">
        <ele>205.4</ele>
        <time>2022-05-18T12:40:58Z</time>
      </trkpt>
      <trkpt lat="46.53791" lon="5.31014">
        <ele>205.2</ele>
        <time>2022-05-18T12:41:04Z</time>
      </trkpt>
      <trkpt lat="46.53804" lon="5.31001">
        <ele>204.6</ele>
        <time>2022-05-18T12:41:06Z</time>
      </trkpt>
      <trkpt lat="46.53809" lon="5.30991">
        <ele>204.4</ele>
        <time>2022-05-18T12:41:07Z</time>
      </trkpt>
      <trkpt lat="46.53825" lon="5.30954">
        <ele>203.2</ele>
        <time>2022-05-18T12:41:11Z</time>
      </trkpt>
      <trkpt lat="46.53829" lon="5.30944">
        <ele>203</ele>
        <time>2022-05-18T12:41:12Z</time>
      </trkpt>
      <trkpt lat="46.53848" lon="5.30897">
        <ele>202.2</ele>
        <time>2022-05-18T12:41:17Z</time>
      </trkpt>
      <trkpt lat="46.53851" lon="5.30888">
        <ele>202</ele>
        <time>2022-05-18T12:41:18Z</time>
      </trkpt>
      <trkpt lat="46.53868" lon="5.30847">
        <ele>201.8</ele>
        <time>2022-05-18T12:41:23Z</time>
      </trkpt>
      <trkpt lat="46.53883" lon="5.30807">
        <ele>203.4</ele>
        <time>2022-05-18T12:41:29Z</time>
      </trkpt>
      <trkpt lat="46.53888" lon="5.3079">
        <ele>204.6</ele>
        <time>2022-05-18T12:41:32Z</time>
      </trkpt>
      <trkpt lat="46.53891" lon="5.30771">
        <ele>205</ele>
        <time>2022-05-18T12:41:35Z</time>
      </trkpt>
      <trkpt lat="46.53893" lon="5.30749">
        <ele>205.6</ele>
        <time>2022-05-18T12:41:39Z</time>
      </trkpt>
      <trkpt lat="46.53894" lon="5.30726">
        <ele>206.2</ele>
        <time>2022-05-18T12:41:43Z</time>
      </trkpt>
      <trkpt lat="46.53894" lon="5.3072">
        <ele>206.6</ele>
        <time>2022-05-18T12:41:44Z</time>
      </trkpt>
      <trkpt lat="46.53897" lon="5.3068">
        <ele>208</ele>
        <time>2022-05-18T12:41:50Z</time>
      </trkpt>
      <trkpt lat="46.539" lon="5.30667">
        <ele>208.2</ele>
        <time>2022-05-18T12:41:52Z</time>
      </trkpt>
      <trkpt lat="46.53906" lon="5.30642">
        <ele>208.6</ele>
        <time>2022-05-18T12:41:56Z</time>
      </trkpt>
      <trkpt lat="46.53913" lon="5.30617">
        <ele>209</ele>
        <time>2022-05-18T12:42:00Z</time>
      </trkpt>
      <trkpt lat="46.53916" lon="5.30612">
        <ele>209.2</ele>
        <time>2022-05-18T12:42:01Z</time>
      </trkpt>
      <trkpt lat="46.53935" lon="5.3057">
        <ele>210</ele>
        <time>2022-05-18T12:42:09Z</time>
      </trkpt>
      <trkpt lat="46.53944" lon="5.30557">
        <ele>210.6</ele>
        <time>2022-05-18T12:42:12Z</time>
      </trkpt>
      <trkpt lat="46.53953" lon="5.30548">
        <ele>210.8</ele>
        <time>2022-05-18T12:42:15Z</time>
      </trkpt>
      <trkpt lat="46.53957" lon="5.30545">
        <ele>211.2</ele>
        <time>2022-05-18T12:42:16Z</time>
      </trkpt>
      <trkpt lat="46.53973" lon="5.30534">
        <ele>212.2</ele>
        <time>2022-05-18T12:42:21Z</time>
      </trkpt>
      <trkpt lat="46.53977" lon="5.30532">
        <ele>212.4</ele>
        <time>2022-05-18T12:42:22Z</time>
      </trkpt>
      <trkpt lat="46.5399" lon="5.30525">
        <ele>213.4</ele>
        <time>2022-05-18T12:42:26Z</time>
      </trkpt>
      <trkpt lat="46.54005" lon="5.30516">
        <ele>214.2</ele>
        <time>2022-05-18T12:42:30Z</time>
      </trkpt>
      <trkpt lat="46.54008" lon="5.30513">
        <ele>214.4</ele>
        <time>2022-05-18T12:42:31Z</time>
      </trkpt>
      <trkpt lat="46.54027" lon="5.30494">
        <ele>215.6</ele>
        <time>2022-05-18T12:42:37Z</time>
      </trkpt>
      <trkpt lat="46.5403" lon="5.30489">
        <ele>215.6</ele>
        <time>2022-05-18T12:42:38Z</time>
      </trkpt>
      <trkpt lat="46.54046" lon="5.30461">
        <ele>215.8</ele>
        <time>2022-05-18T12:42:43Z</time>
      </trkpt>
      <trkpt lat="46.54052" lon="5.30447">
        <ele>216</ele>
        <time>2022-05-18T12:42:45Z</time>
      </trkpt>
      <trkpt lat="46.54058" lon="5.30424">
        <ele>216</ele>
        <time>2022-05-18T12:42:48Z</time>
      </trkpt>
      <trkpt lat="46.54062" lon="5.304">
        <ele>215.8</ele>
        <time>2022-05-18T12:42:51Z</time>
      </trkpt>
      <trkpt lat="46.54081" lon="5.30327">
        <ele>216.4</ele>
        <time>2022-05-18T12:43:01Z</time>
      </trkpt>
      <trkpt lat="46.54085" lon="5.30312">
        <ele>216.6</ele>
        <time>2022-05-18T12:43:03Z</time>
      </trkpt>
      <trkpt lat="46.54094" lon="5.30284">
        <ele>216.8</ele>
        <time>2022-05-18T12:43:07Z</time>
      </trkpt>
      <trkpt lat="46.54118" lon="5.30211">
        <ele>217.4</ele>
        <time>2022-05-18T12:43:17Z</time>
      </trkpt>
      <trkpt lat="46.5412" lon="5.30204">
        <ele>217.4</ele>
        <time>2022-05-18T12:43:18Z</time>
      </trkpt>
      <trkpt lat="46.54143" lon="5.30133">
        <ele>217.2</ele>
        <time>2022-05-18T12:43:27Z</time>
      </trkpt>
      <trkpt lat="46.54147" lon="5.30119">
        <ele>217</ele>
        <time>2022-05-18T12:43:29Z</time>
      </trkpt>
      <trkpt lat="46.54157" lon="5.30107">
        <ele>216.8</ele>
        <time>2022-05-18T12:43:31Z</time>
      </trkpt>
      <trkpt lat="46.54186" lon="5.30095">
        <ele>216.8</ele>
        <time>2022-05-18T12:43:36Z</time>
      </trkpt>
      <trkpt lat="46.54217" lon="5.30093">
        <ele>216.8</ele>
        <time>2022-05-18T12:43:41Z</time>
      </trkpt>
      <trkpt lat="46.54242" lon="5.30097">
        <ele>217</ele>
        <time>2022-05-18T12:43:45Z</time>
      </trkpt>
      <trkpt lat="46.5427" lon="5.30102">
        <ele>217.4</ele>
        <time>2022-05-18T12:43:49Z</time>
      </trkpt>
      <trkpt lat="46.54324" lon="5.30109">
        <ele>216.4</ele>
        <time>2022-05-18T12:43:57Z</time>
      </trkpt>
      <trkpt lat="46.54364" lon="5.30125">
        <ele>215.8</ele>
        <time>2022-05-18T12:44:02Z</time>
      </trkpt>
      <trkpt lat="46.54372" lon="5.30128">
        <ele>215.2</ele>
        <time>2022-05-18T12:44:03Z</time>
      </trkpt>
      <trkpt lat="46.54396" lon="5.30139">
        <ele>214.2</ele>
        <time>2022-05-18T12:44:06Z</time>
      </trkpt>
      <trkpt lat="46.54414" lon="5.30144">
        <ele>213.6</ele>
        <time>2022-05-18T12:44:08Z</time>
      </trkpt>
      <trkpt lat="46.54431" lon="5.30147">
        <ele>213</ele>
        <time>2022-05-18T12:44:10Z</time>
      </trkpt>
      <trkpt lat="46.54458" lon="5.30146">
        <ele>211.8</ele>
        <time>2022-05-18T12:44:13Z</time>
      </trkpt>
      <trkpt lat="46.54475" lon="5.30142">
        <ele>211.4</ele>
        <time>2022-05-18T12:44:15Z</time>
      </trkpt>
      <trkpt lat="46.54492" lon="5.30134">
        <ele>210.8</ele>
        <time>2022-05-18T12:44:17Z</time>
      </trkpt>
      <trkpt lat="46.54501" lon="5.3013">
        <ele>210.4</ele>
        <time>2022-05-18T12:44:18Z</time>
      </trkpt>
      <trkpt lat="46.54519" lon="5.3012">
        <ele>209.6</ele>
        <time>2022-05-18T12:44:20Z</time>
      </trkpt>
      <trkpt lat="46.54546" lon="5.30104">
        <ele>208.6</ele>
        <time>2022-05-18T12:44:23Z</time>
      </trkpt>
      <trkpt lat="46.54564" lon="5.30093">
        <ele>207.4</ele>
        <time>2022-05-18T12:44:25Z</time>
      </trkpt>
      <trkpt lat="46.54574" lon="5.30087">
        <ele>207.2</ele>
        <time>2022-05-18T12:44:26Z</time>
      </trkpt>
      <trkpt lat="46.54602" lon="5.3007">
        <ele>206</ele>
        <time>2022-05-18T12:44:29Z</time>
      </trkpt>
      <trkpt lat="46.54649" lon="5.30042">
        <ele>205</ele>
        <time>2022-05-18T12:44:34Z</time>
      </trkpt>
      <trkpt lat="46.54658" lon="5.30036">
        <ele>204.4</ele>
        <time>2022-05-18T12:44:35Z</time>
      </trkpt>
      <trkpt lat="46.54668" lon="5.3003">
        <ele>203.8</ele>
        <time>2022-05-18T12:44:36Z</time>
      </trkpt>
      <trkpt lat="46.54687" lon="5.30019">
        <ele>202.6</ele>
        <time>2022-05-18T12:44:38Z</time>
      </trkpt>
      <trkpt lat="46.54696" lon="5.30013">
        <ele>201.4</ele>
        <time>2022-05-18T12:44:39Z</time>
      </trkpt>
      <trkpt lat="46.54714" lon="5.30001">
        <ele>200.2</ele>
        <time>2022-05-18T12:44:41Z</time>
      </trkpt>
      <trkpt lat="46.54731" lon="5.29988">
        <ele>199</ele>
        <time>2022-05-18T12:44:43Z</time>
      </trkpt>
      <trkpt lat="46.54754" lon="5.29968">
        <ele>198.4</ele>
        <time>2022-05-18T12:44:46Z</time>
      </trkpt>
      <trkpt lat="46.54775" lon="5.29948">
        <ele>198</ele>
        <time>2022-05-18T12:44:49Z</time>
      </trkpt>
      <trkpt lat="46.54789" lon="5.29934">
        <ele>197.4</ele>
        <time>2022-05-18T12:44:51Z</time>
      </trkpt>
      <trkpt lat="46.54795" lon="5.29927">
        <ele>197.4</ele>
        <time>2022-05-18T12:44:52Z</time>
      </trkpt>
      <trkpt lat="46.54821" lon="5.29895">
        <ele>197</ele>
        <time>2022-05-18T12:44:56Z</time>
      </trkpt>
      <trkpt lat="46.54856" lon="5.2985">
        <ele>195.8</ele>
        <time>2022-05-18T12:45:02Z</time>
      </trkpt>
      <trkpt lat="46.54886" lon="5.2981">
        <ele>195.6</ele>
        <time>2022-05-18T12:45:08Z</time>
      </trkpt>
      <trkpt lat="46.54915" lon="5.29766">
        <ele>196</ele>
        <time>2022-05-18T12:45:14Z</time>
      </trkpt>
      <trkpt lat="46.54941" lon="5.29715">
        <ele>195.8</ele>
        <time>2022-05-18T12:45:20Z</time>
      </trkpt>
      <trkpt lat="46.54948" lon="5.29695">
        <ele>195.4</ele>
        <time>2022-05-18T12:45:22Z</time>
      </trkpt>
      <trkpt lat="46.54954" lon="5.29667">
        <ele>195</ele>
        <time>2022-05-18T12:45:25Z</time>
      </trkpt>
      <trkpt lat="46.54955" lon="5.29659">
        <ele>195</ele>
        <time>2022-05-18T12:45:26Z</time>
      </trkpt>
      <trkpt lat="46.54958" lon="5.29641">
        <ele>195</ele>
        <time>2022-05-18T12:45:28Z</time>
      </trkpt>
      <trkpt lat="46.54963" lon="5.29615">
        <ele>195.2</ele>
        <time>2022-05-18T12:45:31Z</time>
      </trkpt>
      <trkpt lat="46.54967" lon="5.29602">
        <ele>195.4</ele>
        <time>2022-05-18T12:45:33Z</time>
      </trkpt>
      <trkpt lat="46.54977" lon="5.29579">
        <ele>196.2</ele>
        <time>2022-05-18T12:45:37Z</time>
      </trkpt>
      <trkpt lat="46.5498" lon="5.29574">
        <ele>196.2</ele>
        <time>2022-05-18T12:45:38Z</time>
      </trkpt>
      <trkpt lat="46.54983" lon="5.29569">
        <ele>196.4</ele>
        <time>2022-05-18T12:45:39Z</time>
      </trkpt>
      <trkpt lat="46.54994" lon="5.29555">
        <ele>196.8</ele>
        <time>2022-05-18T12:45:42Z</time>
      </trkpt>
      <trkpt lat="46.55002" lon="5.29541">
        <ele>197.2</ele>
        <time>2022-05-18T12:45:45Z</time>
      </trkpt>
      <trkpt lat="46.55009" lon="5.29532">
        <ele>197.6</ele>
        <time>2022-05-18T12:45:47Z</time>
      </trkpt>
      <trkpt lat="46.55016" lon="5.29522">
        <ele>198</ele>
        <time>2022-05-18T12:45:49Z</time>
      </trkpt>
      <trkpt lat="46.55022" lon="5.29514">
        <ele>198.4</ele>
        <time>2022-05-18T12:45:51Z</time>
      </trkpt>
      <trkpt lat="46.55026" lon="5.2951">
        <ele>198.4</ele>
        <time>2022-05-18T12:45:52Z</time>
      </trkpt>
      <trkpt lat="46.55038" lon="5.29502">
        <ele>199</ele>
        <time>2022-05-18T12:45:55Z</time>
      </trkpt>
      <trkpt lat="46.55049" lon="5.29497">
        <ele>199.6</ele>
        <time>2022-05-18T12:45:58Z</time>
      </trkpt>
      <trkpt lat="46.55061" lon="5.29495">
        <ele>200.4</ele>
        <time>2022-05-18T12:46:01Z</time>
      </trkpt>
      <trkpt lat="46.55065" lon="5.29496">
        <ele>200.6</ele>
        <time>2022-05-18T12:46:02Z</time>
      </trkpt>
      <trkpt lat="46.55084" lon="5.29503">
        <ele>202</ele>
        <time>2022-05-18T12:46:07Z</time>
      </trkpt>
      <trkpt lat="46.55091" lon="5.29508">
        <ele>202.6</ele>
        <time>2022-05-18T12:46:09Z</time>
      </trkpt>
      <trkpt lat="46.551" lon="5.29511">
        <ele>203</ele>
        <time>2022-05-18T12:46:11Z</time>
      </trkpt>
      <trkpt lat="46.55118" lon="5.29518">
        <ele>203.8</ele>
        <time>2022-05-18T12:46:15Z</time>
      </trkpt>
      <trkpt lat="46.55131" lon="5.29524">
        <ele>204</ele>
        <time>2022-05-18T12:46:18Z</time>
      </trkpt>
      <trkpt lat="46.55135" lon="5.29525">
        <ele>204.2</ele>
        <time>2022-05-18T12:46:19Z</time>
      </trkpt>
      <trkpt lat="46.55154" lon="5.29533">
        <ele>205</ele>
        <time>2022-05-18T12:46:23Z</time>
      </trkpt>
      <trkpt lat="46.55171" lon="5.2954">
        <ele>205.4</ele>
        <time>2022-05-18T12:46:27Z</time>
      </trkpt>
      <trkpt lat="46.55185" lon="5.29541">
        <ele>205.4</ele>
        <time>2022-05-18T12:46:30Z</time>
      </trkpt>
      <trkpt lat="46.55198" lon="5.2954">
        <ele>205.8</ele>
        <time>2022-05-18T12:46:33Z</time>
      </trkpt>
      <trkpt lat="46.55214" lon="5.29533">
        <ele>205.8</ele>
        <time>2022-05-18T12:46:37Z</time>
      </trkpt>
      <trkpt lat="46.55226" lon="5.29527">
        <ele>206.4</ele>
        <time>2022-05-18T12:46:40Z</time>
      </trkpt>
      <trkpt lat="46.55244" lon="5.29515">
        <ele>207.2</ele>
        <time>2022-05-18T12:46:45Z</time>
      </trkpt>
      <trkpt lat="46.55256" lon="5.29507">
        <ele>207.4</ele>
        <time>2022-05-18T12:46:48Z</time>
      </trkpt>
      <trkpt lat="46.55277" lon="5.29494">
        <ele>208</ele>
        <time>2022-05-18T12:46:53Z</time>
      </trkpt>
      <trkpt lat="46.55281" lon="5.29493">
        <ele>208.2</ele>
        <time>2022-05-18T12:46:54Z</time>
      </trkpt>
      <trkpt lat="46.55286" lon="5.29493">
        <ele>208.2</ele>
        <time>2022-05-18T12:46:55Z</time>
      </trkpt>
      <trkpt lat="46.55296" lon="5.295">
        <ele>208.2</ele>
        <time>2022-05-18T12:46:57Z</time>
      </trkpt>
      <trkpt lat="46.55301" lon="5.29503">
        <ele>208.2</ele>
        <time>2022-05-18T12:46:58Z</time>
      </trkpt>
      <trkpt lat="46.5532" lon="5.2951">
        <ele>208.2</ele>
        <time>2022-05-18T12:47:01Z</time>
      </trkpt>
      <trkpt lat="46.5536" lon="5.29516">
        <ele>207.6</ele>
        <time>2022-05-18T12:47:07Z</time>
      </trkpt>
      <trkpt lat="46.55404" lon="5.29532">
        <ele>207.2</ele>
        <time>2022-05-18T12:47:14Z</time>
      </trkpt>
      <trkpt lat="46.55456" lon="5.29567">
        <ele>207.2</ele>
        <time>2022-05-18T12:47:23Z</time>
      </trkpt>
      <trkpt lat="46.55462" lon="5.29571">
        <ele>207.2</ele>
        <time>2022-05-18T12:47:24Z</time>
      </trkpt>
      <trkpt lat="46.55511" lon="5.29608">
        <ele>207.2</ele>
        <time>2022-05-18T12:47:33Z</time>
      </trkpt>
      <trkpt lat="46.55522" lon="5.29615">
        <ele>207.2</ele>
        <time>2022-05-18T12:47:35Z</time>
      </trkpt>
      <trkpt lat="46.55573" lon="5.29652">
        <ele>207.4</ele>
        <time>2022-05-18T12:47:45Z</time>
      </trkpt>
      <trkpt lat="46.5561" lon="5.29673">
        <ele>208.4</ele>
        <time>2022-05-18T12:47:52Z</time>
      </trkpt>
      <trkpt lat="46.55616" lon="5.29675">
        <ele>208.4</ele>
        <time>2022-05-18T12:47:53Z</time>
      </trkpt>
      <trkpt lat="46.55663" lon="5.29694">
        <ele>208.6</ele>
        <time>2022-05-18T12:48:02Z</time>
      </trkpt>
      <trkpt lat="46.55705" lon="5.29696">
        <ele>209.2</ele>
        <time>2022-05-18T12:48:10Z</time>
      </trkpt>
      <trkpt lat="46.55709" lon="5.29697">
        <ele>209.6</ele>
        <time>2022-05-18T12:48:11Z</time>
      </trkpt>
      <trkpt lat="46.55735" lon="5.29705">
        <ele>210.6</ele>
        <time>2022-05-18T12:48:17Z</time>
      </trkpt>
      <trkpt lat="46.55751" lon="5.29713">
        <ele>211.4</ele>
        <time>2022-05-18T12:48:21Z</time>
      </trkpt>
      <trkpt lat="46.55758" lon="5.29719">
        <ele>212</ele>
        <time>2022-05-18T12:48:23Z</time>
      </trkpt>
      <trkpt lat="46.55761" lon="5.29722">
        <ele>212</ele>
        <time>2022-05-18T12:48:24Z</time>
      </trkpt>
      <trkpt lat="46.55771" lon="5.29733">
        <ele>213</ele>
        <time>2022-05-18T12:48:27Z</time>
      </trkpt>
      <trkpt lat="46.55774" lon="5.29738">
        <ele>213</ele>
        <time>2022-05-18T12:48:28Z</time>
      </trkpt>
      <trkpt lat="46.55784" lon="5.29752">
        <ele>213.4</ele>
        <time>2022-05-18T12:48:31Z</time>
      </trkpt>
      <trkpt lat="46.55801" lon="5.29777">
        <ele>214.2</ele>
        <time>2022-05-18T12:48:36Z</time>
      </trkpt>
      <trkpt lat="46.55815" lon="5.29795">
        <ele>214.4</ele>
        <time>2022-05-18T12:48:40Z</time>
      </trkpt>
      <trkpt lat="46.55852" lon="5.29844">
        <ele>214.8</ele>
        <time>2022-05-18T12:48:50Z</time>
      </trkpt>
      <trkpt lat="46.55874" lon="5.29872">
        <ele>215</ele>
        <time>2022-05-18T12:48:55Z</time>
      </trkpt>
      <trkpt lat="46.55912" lon="5.29923">
        <ele>213.8</ele>
        <time>2022-05-18T12:49:02Z</time>
      </trkpt>
      <trkpt lat="46.55929" lon="5.29946">
        <ele>213</ele>
        <time>2022-05-18T12:49:05Z</time>
      </trkpt>
      <trkpt lat="46.55952" lon="5.29976">
        <ele>212.2</ele>
        <time>2022-05-18T12:49:09Z</time>
      </trkpt>
      <trkpt lat="46.55957" lon="5.29984">
        <ele>212</ele>
        <time>2022-05-18T12:49:10Z</time>
      </trkpt>
      <trkpt lat="46.55983" lon="5.3002">
        <ele>211.2</ele>
        <time>2022-05-18T12:49:15Z</time>
      </trkpt>
      <trkpt lat="46.56008" lon="5.30052">
        <ele>212</ele>
        <time>2022-05-18T12:49:21Z</time>
      </trkpt>
      <trkpt lat="46.56036" lon="5.30088">
        <ele>213</ele>
        <time>2022-05-18T12:49:29Z</time>
      </trkpt>
      <trkpt lat="46.56056" lon="5.30115">
        <ele>214</ele>
        <time>2022-05-18T12:49:35Z</time>
      </trkpt>
      <trkpt lat="46.56062" lon="5.30123">
        <ele>214.6</ele>
        <time>2022-05-18T12:49:37Z</time>
      </trkpt>
      <trkpt lat="46.56076" lon="5.30142">
        <ele>215.2</ele>
        <time>2022-05-18T12:49:41Z</time>
      </trkpt>
      <trkpt lat="46.56092" lon="5.30163">
        <ele>215.8</ele>
        <time>2022-05-18T12:49:45Z</time>
      </trkpt>
      <trkpt lat="46.56115" lon="5.30195">
        <ele>216.2</ele>
        <time>2022-05-18T12:49:51Z</time>
      </trkpt>
      <trkpt lat="46.56123" lon="5.30204">
        <ele>216.2</ele>
        <time>2022-05-18T12:49:53Z</time>
      </trkpt>
      <trkpt lat="46.56138" lon="5.30226">
        <ele>216.6</ele>
        <time>2022-05-18T12:49:57Z</time>
      </trkpt>
      <trkpt lat="46.5615" lon="5.30243">
        <ele>216.6</ele>
        <time>2022-05-18T12:50:00Z</time>
      </trkpt>
      <trkpt lat="46.56191" lon="5.30298">
        <ele>216.6</ele>
        <time>2022-05-18T12:50:10Z</time>
      </trkpt>
      <trkpt lat="46.56196" lon="5.30305">
        <ele>216.6</ele>
        <time>2022-05-18T12:50:11Z</time>
      </trkpt>
      <trkpt lat="46.56225" lon="5.30355">
        <ele>216.4</ele>
        <time>2022-05-18T12:50:19Z</time>
      </trkpt>
      <trkpt lat="46.56256" lon="5.30404">
        <ele>216.6</ele>
        <time>2022-05-18T12:50:27Z</time>
      </trkpt>
      <trkpt lat="46.56288" lon="5.30448">
        <ele>216.8</ele>
        <time>2022-05-18T12:50:35Z</time>
      </trkpt>
      <trkpt lat="46.56316" lon="5.30487">
        <ele>217</ele>
        <time>2022-05-18T12:50:42Z</time>
      </trkpt>
      <trkpt lat="46.56357" lon="5.30543">
        <ele>217</ele>
        <time>2022-05-18T12:50:52Z</time>
      </trkpt>
      <trkpt lat="46.56361" lon="5.30549">
        <ele>216.8</ele>
        <time>2022-05-18T12:50:53Z</time>
      </trkpt>
      <trkpt lat="46.56397" lon="5.30596">
        <ele>216.6</ele>
        <time>2022-05-18T12:51:01Z</time>
      </trkpt>
      <trkpt lat="46.56401" lon="5.30602">
        <ele>216.4</ele>
        <time>2022-05-18T12:51:02Z</time>
      </trkpt>
      <trkpt lat="46.56407" lon="5.30614">
        <ele>216.2</ele>
        <time>2022-05-18T12:51:04Z</time>
      </trkpt>
      <trkpt lat="46.56408" lon="5.30619">
        <ele>216</ele>
        <time>2022-05-18T12:51:05Z</time>
      </trkpt>
      <trkpt lat="46.56409" lon="5.30625">
        <ele>215.8</ele>
        <time>2022-05-18T12:51:08Z</time>
      </trkpt>
      <trkpt lat="46.56409" lon="5.30625">
        <ele>215.6</ele>
        <time>2022-05-18T12:51:09Z</time>
      </trkpt>
      <trkpt lat="46.56412" lon="5.3063">
        <ele>215.6</ele>
        <time>2022-05-18T12:51:13Z</time>
      </trkpt>
      <trkpt lat="46.56419" lon="5.30629">
        <ele>215.6</ele>
        <time>2022-05-18T12:51:15Z</time>
      </trkpt>
      <trkpt lat="46.56444" lon="5.30627">
        <ele>215.4</ele>
        <time>2022-05-18T12:51:20Z</time>
      </trkpt>
      <trkpt lat="46.56483" lon="5.30616">
        <ele>215.6</ele>
        <time>2022-05-18T12:51:25Z</time>
      </trkpt>
      <trkpt lat="46.56529" lon="5.30607">
        <ele>215.2</ele>
        <time>2022-05-18T12:51:33Z</time>
      </trkpt>
      <trkpt lat="46.56579" lon="5.30602">
        <ele>215.2</ele>
        <time>2022-05-18T12:51:40Z</time>
      </trkpt>
      <trkpt lat="46.56632" lon="5.30608">
        <ele>214.8</ele>
        <time>2022-05-18T12:51:48Z</time>
      </trkpt>
      <trkpt lat="46.56673" lon="5.30628">
        <ele>214.8</ele>
        <time>2022-05-18T12:51:55Z</time>
      </trkpt>
      <trkpt lat="46.56685" lon="5.30638">
        <ele>214.8</ele>
        <time>2022-05-18T12:51:57Z</time>
      </trkpt>
      <trkpt lat="46.56714" lon="5.30666">
        <ele>214.8</ele>
        <time>2022-05-18T12:52:02Z</time>
      </trkpt>
      <trkpt lat="46.56729" lon="5.30688">
        <ele>214.6</ele>
        <time>2022-05-18T12:52:05Z</time>
      </trkpt>
      <trkpt lat="46.56743" lon="5.30713">
        <ele>214.4</ele>
        <time>2022-05-18T12:52:08Z</time>
      </trkpt>
      <trkpt lat="46.56775" lon="5.30777">
        <ele>213.6</ele>
        <time>2022-05-18T12:52:15Z</time>
      </trkpt>
      <trkpt lat="46.56779" lon="5.30787">
        <ele>213.4</ele>
        <time>2022-05-18T12:52:16Z</time>
      </trkpt>
      <trkpt lat="46.56783" lon="5.30797">
        <ele>213.2</ele>
        <time>2022-05-18T12:52:17Z</time>
      </trkpt>
      <trkpt lat="46.5679" lon="5.30817">
        <ele>212.6</ele>
        <time>2022-05-18T12:52:19Z</time>
      </trkpt>
      <trkpt lat="46.56795" lon="5.30839">
        <ele>212.2</ele>
        <time>2022-05-18T12:52:21Z</time>
      </trkpt>
      <trkpt lat="46.56799" lon="5.30861">
        <ele>211.8</ele>
        <time>2022-05-18T12:52:23Z</time>
      </trkpt>
      <trkpt lat="46.56804" lon="5.30894">
        <ele>210.8</ele>
        <time>2022-05-18T12:52:26Z</time>
      </trkpt>
      <trkpt lat="46.56809" lon="5.30937">
        <ele>210.4</ele>
        <time>2022-05-18T12:52:30Z</time>
      </trkpt>
      <trkpt lat="46.56807" lon="5.31009">
        <ele>210</ele>
        <time>2022-05-18T12:52:37Z</time>
      </trkpt>
      <trkpt lat="46.56806" lon="5.31047">
        <ele>210.2</ele>
        <time>2022-05-18T12:52:41Z</time>
      </trkpt>
      <trkpt lat="46.56807" lon="5.31056">
        <ele>210</ele>
        <time>2022-05-18T12:52:42Z</time>
      </trkpt>
      <trkpt lat="46.56809" lon="5.31065">
        <ele>210</ele>
        <time>2022-05-18T12:52:43Z</time>
      </trkpt>
      <trkpt lat="46.56819" lon="5.31099">
        <ele>210.4</ele>
        <time>2022-05-18T12:52:47Z</time>
      </trkpt>
      <trkpt lat="46.56838" lon="5.31132">
        <ele>210.6</ele>
        <time>2022-05-18T12:52:52Z</time>
      </trkpt>
      <trkpt lat="46.56848" lon="5.31142">
        <ele>210.8</ele>
        <time>2022-05-18T12:52:54Z</time>
      </trkpt>
      <trkpt lat="46.56865" lon="5.31153">
        <ele>210.8</ele>
        <time>2022-05-18T12:52:57Z</time>
      </trkpt>
      <trkpt lat="46.5687" lon="5.31156">
        <ele>211.2</ele>
        <time>2022-05-18T12:52:58Z</time>
      </trkpt>
      <trkpt lat="46.56893" lon="5.31161">
        <ele>211</ele>
        <time>2022-05-18T12:53:02Z</time>
      </trkpt>
      <trkpt lat="46.56926" lon="5.31166">
        <ele>211.6</ele>
        <time>2022-05-18T12:53:08Z</time>
      </trkpt>
      <trkpt lat="46.56932" lon="5.31168">
        <ele>211.8</ele>
        <time>2022-05-18T12:53:09Z</time>
      </trkpt>
      <trkpt lat="46.56966" lon="5.31194">
        <ele>212</ele>
        <time>2022-05-18T12:53:16Z</time>
      </trkpt>
      <trkpt lat="46.5697" lon="5.31198">
        <ele>212.2</ele>
        <time>2022-05-18T12:53:17Z</time>
      </trkpt>
      <trkpt lat="46.57007" lon="5.31231">
        <ele>212.8</ele>
        <time>2022-05-18T12:53:25Z</time>
      </trkpt>
      <trkpt lat="46.57031" lon="5.31252">
        <ele>213.2</ele>
        <time>2022-05-18T12:53:30Z</time>
      </trkpt>
      <trkpt lat="46.57053" lon="5.31272">
        <ele>213.4</ele>
        <time>2022-05-18T12:53:35Z</time>
      </trkpt>
      <trkpt lat="46.57086" lon="5.31295">
        <ele>213.8</ele>
        <time>2022-05-18T12:53:42Z</time>
      </trkpt>
      <trkpt lat="46.57091" lon="5.31297">
        <ele>213.8</ele>
        <time>2022-05-18T12:53:43Z</time>
      </trkpt>
      <trkpt lat="46.57116" lon="5.31301">
        <ele>214.2</ele>
        <time>2022-05-18T12:53:48Z</time>
      </trkpt>
      <trkpt lat="46.57125" lon="5.31301">
        <ele>214.4</ele>
        <time>2022-05-18T12:53:50Z</time>
      </trkpt>
      <trkpt lat="46.57153" lon="5.31303">
        <ele>215</ele>
        <time>2022-05-18T12:53:56Z</time>
      </trkpt>
      <trkpt lat="46.5717" lon="5.3131">
        <ele>215.4</ele>
        <time>2022-05-18T12:54:00Z</time>
      </trkpt>
      <trkpt lat="46.57178" lon="5.31316">
        <ele>215.6</ele>
        <time>2022-05-18T12:54:02Z</time>
      </trkpt>
      <trkpt lat="46.5719" lon="5.31327">
        <ele>216.2</ele>
        <time>2022-05-18T12:54:05Z</time>
      </trkpt>
      <trkpt lat="46.57193" lon="5.31331">
        <ele>216.4</ele>
        <time>2022-05-18T12:54:06Z</time>
      </trkpt>
      <trkpt lat="46.57203" lon="5.31344">
        <ele>217</ele>
        <time>2022-05-18T12:54:09Z</time>
      </trkpt>
      <trkpt lat="46.57213" lon="5.31359">
        <ele>217.6</ele>
        <time>2022-05-18T12:54:12Z</time>
      </trkpt>
      <trkpt lat="46.5722" lon="5.31371">
        <ele>218</ele>
        <time>2022-05-18T12:54:14Z</time>
      </trkpt>
      <trkpt lat="46.57224" lon="5.31383">
        <ele>218.4</ele>
        <time>2022-05-18T12:54:16Z</time>
      </trkpt>
      <trkpt lat="46.57231" lon="5.31409">
        <ele>218.6</ele>
        <time>2022-05-18T12:54:20Z</time>
      </trkpt>
      <trkpt lat="46.57239" lon="5.31442">
        <ele>218.8</ele>
        <time>2022-05-18T12:54:25Z</time>
      </trkpt>
      <trkpt lat="46.57251" lon="5.31473">
        <ele>219.2</ele>
        <time>2022-05-18T12:54:30Z</time>
      </trkpt>
      <trkpt lat="46.57258" lon="5.31484">
        <ele>219.2</ele>
        <time>2022-05-18T12:54:32Z</time>
      </trkpt>
      <trkpt lat="46.57287" lon="5.31529">
        <ele>219.8</ele>
        <time>2022-05-18T12:54:40Z</time>
      </trkpt>
      <trkpt lat="46.57323" lon="5.31582">
        <ele>220.4</ele>
        <time>2022-05-18T12:54:49Z</time>
      </trkpt>
      <trkpt lat="46.57336" lon="5.31599">
        <ele>220.6</ele>
        <time>2022-05-18T12:54:52Z</time>
      </trkpt>
      <trkpt lat="46.57347" lon="5.31608">
        <ele>220.6</ele>
        <time>2022-05-18T12:54:54Z</time>
      </trkpt>
      <trkpt lat="46.57352" lon="5.31611">
        <ele>220.6</ele>
        <time>2022-05-18T12:54:55Z</time>
      </trkpt>
      <trkpt lat="46.57364" lon="5.31617">
        <ele>220.6</ele>
        <time>2022-05-18T12:54:57Z</time>
      </trkpt>
      <trkpt lat="46.57383" lon="5.3162">
        <ele>220.4</ele>
        <time>2022-05-18T12:55:00Z</time>
      </trkpt>
      <trkpt lat="46.57429" lon="5.31618">
        <ele>220</ele>
        <time>2022-05-18T12:55:08Z</time>
      </trkpt>
      <trkpt lat="46.57489" lon="5.31615">
        <ele>219.8</ele>
        <time>2022-05-18T12:55:18Z</time>
      </trkpt>
      <trkpt lat="46.57546" lon="5.31607">
        <ele>219.6</ele>
        <time>2022-05-18T12:55:28Z</time>
      </trkpt>
      <trkpt lat="46.57558" lon="5.31605">
        <ele>219.6</ele>
        <time>2022-05-18T12:55:30Z</time>
      </trkpt>
      <trkpt lat="46.57603" lon="5.316">
        <ele>219.8</ele>
        <time>2022-05-18T12:55:38Z</time>
      </trkpt>
      <trkpt lat="46.57662" lon="5.3159">
        <ele>219.4</ele>
        <time>2022-05-18T12:55:48Z</time>
      </trkpt>
      <trkpt lat="46.57668" lon="5.31589">
        <ele>219.4</ele>
        <time>2022-05-18T12:55:49Z</time>
      </trkpt>
      <trkpt lat="46.57681" lon="5.31586">
        <ele>219.4</ele>
        <time>2022-05-18T12:55:51Z</time>
      </trkpt>
      <trkpt lat="46.57712" lon="5.31575">
        <ele>219.4</ele>
        <time>2022-05-18T12:55:56Z</time>
      </trkpt>
      <trkpt lat="46.57754" lon="5.31547">
        <ele>218.8</ele>
        <time>2022-05-18T12:56:03Z</time>
      </trkpt>
      <trkpt lat="46.5776" lon="5.31542">
        <ele>218.8</ele>
        <time>2022-05-18T12:56:04Z</time>
      </trkpt>
      <trkpt lat="46.57811" lon="5.31504">
        <ele>218</ele>
        <time>2022-05-18T12:56:12Z</time>
      </trkpt>
      <trkpt lat="46.57825" lon="5.31496">
        <ele>217.8</ele>
        <time>2022-05-18T12:56:14Z</time>
      </trkpt>
      <trkpt lat="46.57853" lon="5.31485">
        <ele>217.6</ele>
        <time>2022-05-18T12:56:18Z</time>
      </trkpt>
      <trkpt lat="46.57912" lon="5.31467">
        <ele>216.8</ele>
        <time>2022-05-18T12:56:26Z</time>
      </trkpt>
      <trkpt lat="46.57927" lon="5.31462">
        <ele>216.6</ele>
        <time>2022-05-18T12:56:28Z</time>
      </trkpt>
      <trkpt lat="46.57984" lon="5.31444">
        <ele>216.2</ele>
        <time>2022-05-18T12:56:36Z</time>
      </trkpt>
      <trkpt lat="46.57992" lon="5.31442">
        <ele>216.2</ele>
        <time>2022-05-18T12:56:37Z</time>
      </trkpt>
      <trkpt lat="46.58048" lon="5.3143">
        <ele>215.8</ele>
        <time>2022-05-18T12:56:45Z</time>
      </trkpt>
      <trkpt lat="46.58055" lon="5.3143">
        <ele>215.6</ele>
        <time>2022-05-18T12:56:46Z</time>
      </trkpt>
      <trkpt lat="46.58062" lon="5.3143">
        <ele>215.4</ele>
        <time>2022-05-18T12:56:47Z</time>
      </trkpt>
      <trkpt lat="46.58115" lon="5.31435">
        <ele>215.4</ele>
        <time>2022-05-18T12:56:55Z</time>
      </trkpt>
      <trkpt lat="46.5814" lon="5.31429">
        <ele>215.4</ele>
        <time>2022-05-18T12:56:59Z</time>
      </trkpt>
      <trkpt lat="46.58146" lon="5.31425">
        <ele>215.4</ele>
        <time>2022-05-18T12:57:00Z</time>
      </trkpt>
      <trkpt lat="46.58158" lon="5.31417">
        <ele>215.4</ele>
        <time>2022-05-18T12:57:02Z</time>
      </trkpt>
      <trkpt lat="46.58193" lon="5.31388">
        <ele>215.4</ele>
        <time>2022-05-18T12:57:08Z</time>
      </trkpt>
      <trkpt lat="46.58226" lon="5.31363">
        <ele>215</ele>
        <time>2022-05-18T12:57:13Z</time>
      </trkpt>
      <trkpt lat="46.58238" lon="5.31352">
        <ele>214.6</ele>
        <time>2022-05-18T12:57:15Z</time>
      </trkpt>
      <trkpt lat="46.58292" lon="5.31309">
        <ele>213.8</ele>
        <time>2022-05-18T12:57:23Z</time>
      </trkpt>
      <trkpt lat="46.58306" lon="5.31298">
        <ele>213.6</ele>
        <time>2022-05-18T12:57:25Z</time>
      </trkpt>
      <trkpt lat="46.58319" lon="5.31288">
        <ele>213.4</ele>
        <time>2022-05-18T12:57:27Z</time>
      </trkpt>
      <trkpt lat="46.58368" lon="5.31261">
        <ele>212.6</ele>
        <time>2022-05-18T12:57:34Z</time>
      </trkpt>
      <trkpt lat="46.58422" lon="5.31237">
        <ele>212.2</ele>
        <time>2022-05-18T12:57:42Z</time>
      </trkpt>
      <trkpt lat="46.58474" lon="5.31214">
        <ele>212.2</ele>
        <time>2022-05-18T12:57:50Z</time>
      </trkpt>
      <trkpt lat="46.58481" lon="5.31212">
        <ele>212.2</ele>
        <time>2022-05-18T12:57:51Z</time>
      </trkpt>
      <trkpt lat="46.58526" lon="5.31191">
        <ele>212.4</ele>
        <time>2022-05-18T12:57:58Z</time>
      </trkpt>
      <trkpt lat="46.58569" lon="5.31159">
        <ele>212.2</ele>
        <time>2022-05-18T12:58:05Z</time>
      </trkpt>
      <trkpt lat="46.58617" lon="5.31111">
        <ele>211.6</ele>
        <time>2022-05-18T12:58:13Z</time>
      </trkpt>
      <trkpt lat="46.5863" lon="5.31097">
        <ele>211.6</ele>
        <time>2022-05-18T12:58:15Z</time>
      </trkpt>
      <trkpt lat="46.58664" lon="5.31062">
        <ele>210.8</ele>
        <time>2022-05-18T12:58:21Z</time>
      </trkpt>
      <trkpt lat="46.5867" lon="5.31056">
        <ele>210.8</ele>
        <time>2022-05-18T12:58:22Z</time>
      </trkpt>
      <trkpt lat="46.58718" lon="5.31007">
        <ele>211</ele>
        <time>2022-05-18T12:58:31Z</time>
      </trkpt>
      <trkpt lat="46.5875" lon="5.30973">
        <ele>211.2</ele>
        <time>2022-05-18T12:58:38Z</time>
      </trkpt>
      <trkpt lat="46.58775" lon="5.30947">
        <ele>211.6</ele>
        <time>2022-05-18T12:58:44Z</time>
      </trkpt>
      <trkpt lat="46.58809" lon="5.30917">
        <ele>212.6</ele>
        <time>2022-05-18T12:58:52Z</time>
      </trkpt>
      <trkpt lat="46.58824" lon="5.30911">
        <ele>213</ele>
        <time>2022-05-18T12:58:55Z</time>
      </trkpt>
      <trkpt lat="46.58845" lon="5.30905">
        <ele>213.6</ele>
        <time>2022-05-18T12:58:59Z</time>
      </trkpt>
      <trkpt lat="46.58871" lon="5.309">
        <ele>214.2</ele>
        <time>2022-05-18T12:59:04Z</time>
      </trkpt>
      <trkpt lat="46.58899" lon="5.30896">
        <ele>214.6</ele>
        <time>2022-05-18T12:59:09Z</time>
      </trkpt>
      <trkpt lat="46.5894" lon="5.30891">
        <ele>214.4</ele>
        <time>2022-05-18T12:59:16Z</time>
      </trkpt>
      <trkpt lat="46.59001" lon="5.30883">
        <ele>213.6</ele>
        <time>2022-05-18T12:59:25Z</time>
      </trkpt>
      <trkpt lat="46.59024" lon="5.3088">
        <ele>212.8</ele>
        <time>2022-05-18T12:59:28Z</time>
      </trkpt>
      <trkpt lat="46.5904" lon="5.30877">
        <ele>212</ele>
        <time>2022-05-18T12:59:30Z</time>
      </trkpt>
      <trkpt lat="46.59048" lon="5.30876">
        <ele>211.8</ele>
        <time>2022-05-18T12:59:31Z</time>
      </trkpt>
      <trkpt lat="46.59057" lon="5.30875">
        <ele>211.6</ele>
        <time>2022-05-18T12:59:32Z</time>
      </trkpt>
      <trkpt lat="46.59083" lon="5.30871">
        <ele>210.4</ele>
        <time>2022-05-18T12:59:35Z</time>
      </trkpt>
      <trkpt lat="46.59092" lon="5.3087">
        <ele>210.2</ele>
        <time>2022-05-18T12:59:36Z</time>
      </trkpt>
      <trkpt lat="46.59111" lon="5.30869">
        <ele>209.4</ele>
        <time>2022-05-18T12:59:38Z</time>
      </trkpt>
      <trkpt lat="46.59138" lon="5.30865">
        <ele>208.2</ele>
        <time>2022-05-18T12:59:41Z</time>
      </trkpt>
      <trkpt lat="46.59156" lon="5.30862">
        <ele>207.6</ele>
        <time>2022-05-18T12:59:43Z</time>
      </trkpt>
      <trkpt lat="46.59165" lon="5.30861">
        <ele>207</ele>
        <time>2022-05-18T12:59:44Z</time>
      </trkpt>
      <trkpt lat="46.59201" lon="5.30857">
        <ele>205.8</ele>
        <time>2022-05-18T12:59:48Z</time>
      </trkpt>
      <trkpt lat="46.59237" lon="5.30852">
        <ele>204.8</ele>
        <time>2022-05-18T12:59:52Z</time>
      </trkpt>
      <trkpt lat="46.59246" lon="5.30851">
        <ele>204.6</ele>
        <time>2022-05-18T12:59:53Z</time>
      </trkpt>
      <trkpt lat="46.59274" lon="5.30847">
        <ele>203</ele>
        <time>2022-05-18T12:59:56Z</time>
      </trkpt>
      <trkpt lat="46.5931" lon="5.30843">
        <ele>201.8</ele>
        <time>2022-05-18T13:00:00Z</time>
      </trkpt>
      <trkpt lat="46.59347" lon="5.30838">
        <ele>200.8</ele>
        <time>2022-05-18T13:00:04Z</time>
      </trkpt>
      <trkpt lat="46.59374" lon="5.30834">
        <ele>199.6</ele>
        <time>2022-05-18T13:00:07Z</time>
      </trkpt>
      <trkpt lat="46.59419" lon="5.30828">
        <ele>198.2</ele>
        <time>2022-05-18T13:00:12Z</time>
      </trkpt>
      <trkpt lat="46.59462" lon="5.30822">
        <ele>197</ele>
        <time>2022-05-18T13:00:17Z</time>
      </trkpt>
      <trkpt lat="46.59487" lon="5.30819">
        <ele>196.6</ele>
        <time>2022-05-18T13:00:20Z</time>
      </trkpt>
      <trkpt lat="46.59518" lon="5.30815">
        <ele>196</ele>
        <time>2022-05-18T13:00:24Z</time>
      </trkpt>
      <trkpt lat="46.59548" lon="5.30811">
        <ele>195.8</ele>
        <time>2022-05-18T13:00:28Z</time>
      </trkpt>
      <trkpt lat="46.59597" lon="5.30804">
        <ele>195.6</ele>
        <time>2022-05-18T13:00:35Z</time>
      </trkpt>
      <trkpt lat="46.59652" lon="5.30796">
        <ele>195.6</ele>
        <time>2022-05-18T13:00:43Z</time>
      </trkpt>
      <trkpt lat="46.59658" lon="5.30796">
        <ele>195.6</ele>
        <time>2022-05-18T13:00:44Z</time>
      </trkpt>
      <trkpt lat="46.59686" lon="5.30793">
        <ele>196</ele>
        <time>2022-05-18T13:00:49Z</time>
      </trkpt>
      <trkpt lat="46.59721" lon="5.3079">
        <ele>197</ele>
        <time>2022-05-18T13:00:56Z</time>
      </trkpt>
      <trkpt lat="46.59725" lon="5.3079">
        <ele>197.2</ele>
        <time>2022-05-18T13:00:57Z</time>
      </trkpt>
      <trkpt lat="46.59744" lon="5.30789">
        <ele>198.4</ele>
        <time>2022-05-18T13:01:01Z</time>
      </trkpt>
      <trkpt lat="46.59767" lon="5.30788">
        <ele>199.6</ele>
        <time>2022-05-18T13:01:06Z</time>
      </trkpt>
      <trkpt lat="46.59772" lon="5.30789">
        <ele>199.8</ele>
        <time>2022-05-18T13:01:07Z</time>
      </trkpt>
      <trkpt lat="46.59785" lon="5.30791">
        <ele>200.6</ele>
        <time>2022-05-18T13:01:10Z</time>
      </trkpt>
      <trkpt lat="46.59798" lon="5.30797">
        <ele>201.4</ele>
        <time>2022-05-18T13:01:13Z</time>
      </trkpt>
      <trkpt lat="46.59806" lon="5.308">
        <ele>201.8</ele>
        <time>2022-05-18T13:01:15Z</time>
      </trkpt>
      <trkpt lat="46.59823" lon="5.30808">
        <ele>202.8</ele>
        <time>2022-05-18T13:01:19Z</time>
      </trkpt>
      <trkpt lat="46.59827" lon="5.30809">
        <ele>202.8</ele>
        <time>2022-05-18T13:01:20Z</time>
      </trkpt>
      <trkpt lat="46.59857" lon="5.30819">
        <ele>203.4</ele>
        <time>2022-05-18T13:01:27Z</time>
      </trkpt>
      <trkpt lat="46.59888" lon="5.30826">
        <ele>204</ele>
        <time>2022-05-18T13:01:34Z</time>
      </trkpt>
      <trkpt lat="46.59893" lon="5.30827">
        <ele>204</ele>
        <time>2022-05-18T13:01:35Z</time>
      </trkpt>
      <trkpt lat="46.59939" lon="5.30835">
        <ele>205</ele>
        <time>2022-05-18T13:01:45Z</time>
      </trkpt>
      <trkpt lat="46.59953" lon="5.30838">
        <ele>205.4</ele>
        <time>2022-05-18T13:01:48Z</time>
      </trkpt>
      <trkpt lat="46.5997" lon="5.30848">
        <ele>205.6</ele>
        <time>2022-05-18T13:01:52Z</time>
      </trkpt>
      <trkpt lat="46.59977" lon="5.30856">
        <ele>206</ele>
        <time>2022-05-18T13:01:54Z</time>
      </trkpt>
      <trkpt lat="46.59998" lon="5.30879">
        <ele>206.8</ele>
        <time>2022-05-18T13:02:00Z</time>
      </trkpt>
      <trkpt lat="46.60005" lon="5.30887">
        <ele>207</ele>
        <time>2022-05-18T13:02:02Z</time>
      </trkpt>
      <trkpt lat="46.60033" lon="5.30918">
        <ele>208</ele>
        <time>2022-05-18T13:02:10Z</time>
      </trkpt>
      <trkpt lat="46.60062" lon="5.30952">
        <ele>209.4</ele>
        <time>2022-05-18T13:02:18Z</time>
      </trkpt>
      <trkpt lat="46.60094" lon="5.30989">
        <ele>210.4</ele>
        <time>2022-05-18T13:02:27Z</time>
      </trkpt>
      <trkpt lat="46.601" lon="5.30996">
        <ele>210.4</ele>
        <time>2022-05-18T13:02:29Z</time>
      </trkpt>
      <trkpt lat="46.60106" lon="5.31007">
        <ele>210.8</ele>
        <time>2022-05-18T13:02:32Z</time>
      </trkpt>
      <trkpt lat="46.60107" lon="5.3101">
        <ele>210.8</ele>
        <time>2022-05-18T13:02:33Z</time>
      </trkpt>
      <trkpt lat="46.60114" lon="5.31013">
        <ele>210.8</ele>
        <time>2022-05-18T13:02:35Z</time>
      </trkpt>
      <trkpt lat="46.6014" lon="5.31016">
        <ele>211</ele>
        <time>2022-05-18T13:02:40Z</time>
      </trkpt>
      <trkpt lat="46.60185" lon="5.31029">
        <ele>210</ele>
        <time>2022-05-18T13:02:47Z</time>
      </trkpt>
      <trkpt lat="46.60238" lon="5.31048">
        <ele>209.6</ele>
        <time>2022-05-18T13:02:55Z</time>
      </trkpt>
      <trkpt lat="46.60278" lon="5.31069">
        <ele>209.4</ele>
        <time>2022-05-18T13:03:01Z</time>
      </trkpt>
      <trkpt lat="46.60285" lon="5.31073">
        <ele>209.4</ele>
        <time>2022-05-18T13:03:02Z</time>
      </trkpt>
      <trkpt lat="46.60333" lon="5.31103">
        <ele>208.2</ele>
        <time>2022-05-18T13:03:09Z</time>
      </trkpt>
      <trkpt lat="46.60338" lon="5.3111">
        <ele>208.2</ele>
        <time>2022-05-18T13:03:10Z</time>
      </trkpt>
      <trkpt lat="46.60344" lon="5.31116">
        <ele>208</ele>
        <time>2022-05-18T13:03:11Z</time>
      </trkpt>
      <trkpt lat="46.60358" lon="5.31141">
        <ele>207.4</ele>
        <time>2022-05-18T13:03:14Z</time>
      </trkpt>
      <trkpt lat="46.60366" lon="5.31159">
        <ele>207.2</ele>
        <time>2022-05-18T13:03:16Z</time>
      </trkpt>
      <trkpt lat="46.60369" lon="5.31169">
        <ele>207.2</ele>
        <time>2022-05-18T13:03:17Z</time>
      </trkpt>
      <trkpt lat="46.60373" lon="5.31189">
        <ele>206.8</ele>
        <time>2022-05-18T13:03:19Z</time>
      </trkpt>
      <trkpt lat="46.60375" lon="5.3121">
        <ele>206.8</ele>
        <time>2022-05-18T13:03:21Z</time>
      </trkpt>
      <trkpt lat="46.60374" lon="5.3123">
        <ele>207</ele>
        <time>2022-05-18T13:03:23Z</time>
      </trkpt>
      <trkpt lat="46.60372" lon="5.31251">
        <ele>207</ele>
        <time>2022-05-18T13:03:25Z</time>
      </trkpt>
      <trkpt lat="46.60366" lon="5.31305">
        <ele>207.4</ele>
        <time>2022-05-18T13:03:31Z</time>
      </trkpt>
      <trkpt lat="46.60363" lon="5.31356">
        <ele>208</ele>
        <time>2022-05-18T13:03:38Z</time>
      </trkpt>
      <trkpt lat="46.60364" lon="5.3137">
        <ele>208.2</ele>
        <time>2022-05-18T13:03:40Z</time>
      </trkpt>
      <trkpt lat="46.60369" lon="5.31392">
        <ele>208.4</ele>
        <time>2022-05-18T13:03:43Z</time>
      </trkpt>
      <trkpt lat="46.60371" lon="5.314">
        <ele>208.4</ele>
        <time>2022-05-18T13:03:44Z</time>
      </trkpt>
      <trkpt lat="46.60375" lon="5.31407">
        <ele>208.2</ele>
        <time>2022-05-18T13:03:45Z</time>
      </trkpt>
      <trkpt lat="46.6039" lon="5.31425">
        <ele>208.2</ele>
        <time>2022-05-18T13:03:48Z</time>
      </trkpt>
      <trkpt lat="46.60435" lon="5.31476">
        <ele>207.6</ele>
        <time>2022-05-18T13:03:56Z</time>
      </trkpt>
      <trkpt lat="46.60444" lon="5.3149">
        <ele>207.2</ele>
        <time>2022-05-18T13:03:58Z</time>
      </trkpt>
      <trkpt lat="46.60471" lon="5.31531">
        <ele>207.2</ele>
        <time>2022-05-18T13:04:04Z</time>
      </trkpt>
      <trkpt lat="46.60505" lon="5.31568">
        <ele>207.4</ele>
        <time>2022-05-18T13:04:11Z</time>
      </trkpt>
      <trkpt lat="46.60535" lon="5.31594">
        <ele>208.4</ele>
        <time>2022-05-18T13:04:17Z</time>
      </trkpt>
      <trkpt lat="46.60548" lon="5.31606">
        <ele>208.6</ele>
        <time>2022-05-18T13:04:20Z</time>
      </trkpt>
      <trkpt lat="46.60574" lon="5.3163">
        <ele>209.6</ele>
        <time>2022-05-18T13:04:26Z</time>
      </trkpt>
      <trkpt lat="46.60582" lon="5.31637">
        <ele>209.8</ele>
        <time>2022-05-18T13:04:28Z</time>
      </trkpt>
      <trkpt lat="46.60605" lon="5.31654">
        <ele>210.6</ele>
        <time>2022-05-18T13:04:33Z</time>
      </trkpt>
      <trkpt lat="46.60625" lon="5.31665">
        <ele>211</ele>
        <time>2022-05-18T13:04:37Z</time>
      </trkpt>
      <trkpt lat="46.60631" lon="5.31668">
        <ele>211.2</ele>
        <time>2022-05-18T13:04:38Z</time>
      </trkpt>
      <trkpt lat="46.60648" lon="5.31676">
        <ele>211.4</ele>
        <time>2022-05-18T13:04:41Z</time>
      </trkpt>
      <trkpt lat="46.60694" lon="5.31694">
        <ele>211</ele>
        <time>2022-05-18T13:04:49Z</time>
      </trkpt>
      <trkpt lat="46.60732" lon="5.31712">
        <ele>210.4</ele>
        <time>2022-05-18T13:04:56Z</time>
      </trkpt>
      <trkpt lat="46.60755" lon="5.31733">
        <ele>210</ele>
        <time>2022-05-18T13:05:01Z</time>
      </trkpt>
      <trkpt lat="46.6076" lon="5.31739">
        <ele>210</ele>
        <time>2022-05-18T13:05:02Z</time>
      </trkpt>
      <trkpt lat="46.60768" lon="5.31751">
        <ele>210</ele>
        <time>2022-05-18T13:05:04Z</time>
      </trkpt>
      <trkpt lat="46.60772" lon="5.31757">
        <ele>210</ele>
        <time>2022-05-18T13:05:06Z</time>
      </trkpt>
      <trkpt lat="46.60773" lon="5.31752">
        <ele>210</ele>
        <time>2022-05-18T13:05:09Z</time>
      </trkpt>
      <trkpt lat="46.60769" lon="5.31744">
        <ele>209.8</ele>
        <time>2022-05-18T13:05:12Z</time>
      </trkpt>
      <trkpt lat="46.60769" lon="5.31742">
        <ele>209.6</ele>
        <time>2022-05-18T13:05:14Z</time>
      </trkpt>
      <trkpt lat="46.60769" lon="5.3174">
        <ele>209.6</ele>
        <time>2022-05-18T13:05:20Z</time>
      </trkpt>
      <trkpt lat="46.60769" lon="5.31747">
        <ele>209.6</ele>
        <time>2022-05-18T13:06:13Z</time>
      </trkpt>
      <trkpt lat="46.60774" lon="5.31759">
        <ele>209.6</ele>
        <time>2022-05-18T13:06:15Z</time>
      </trkpt>
      <trkpt lat="46.60777" lon="5.31765">
        <ele>209.4</ele>
        <time>2022-05-18T13:06:16Z</time>
      </trkpt>
      <trkpt lat="46.60794" lon="5.31808">
        <ele>209</ele>
        <time>2022-05-18T13:06:21Z</time>
      </trkpt>
      <trkpt lat="46.60808" lon="5.31854">
        <ele>208.2</ele>
        <time>2022-05-18T13:06:26Z</time>
      </trkpt>
      <trkpt lat="46.6081" lon="5.31862">
        <ele>208.2</ele>
        <time>2022-05-18T13:06:27Z</time>
      </trkpt>
      <trkpt lat="46.60816" lon="5.31887">
        <ele>207.6</ele>
        <time>2022-05-18T13:06:30Z</time>
      </trkpt>
      <trkpt lat="46.6082" lon="5.31903">
        <ele>207.8</ele>
        <time>2022-05-18T13:06:32Z</time>
      </trkpt>
      <trkpt lat="46.60828" lon="5.31949">
        <ele>208.4</ele>
        <time>2022-05-18T13:06:38Z</time>
      </trkpt>
      <trkpt lat="46.60832" lon="5.32009">
        <ele>209.4</ele>
        <time>2022-05-18T13:06:45Z</time>
      </trkpt>
      <trkpt lat="46.60832" lon="5.32019">
        <ele>209.6</ele>
        <time>2022-05-18T13:06:46Z</time>
      </trkpt>
      <trkpt lat="46.60836" lon="5.32062">
        <ele>209.4</ele>
        <time>2022-05-18T13:06:50Z</time>
      </trkpt>
      <trkpt lat="46.60838" lon="5.32073">
        <ele>209.4</ele>
        <time>2022-05-18T13:06:51Z</time>
      </trkpt>
      <trkpt lat="46.60844" lon="5.32093">
        <ele>209</ele>
        <time>2022-05-18T13:06:53Z</time>
      </trkpt>
      <trkpt lat="46.60853" lon="5.3211">
        <ele>208.4</ele>
        <time>2022-05-18T13:06:55Z</time>
      </trkpt>
      <trkpt lat="46.60858" lon="5.32117">
        <ele>208.2</ele>
        <time>2022-05-18T13:06:56Z</time>
      </trkpt>
      <trkpt lat="46.60884" lon="5.32149">
        <ele>208.4</ele>
        <time>2022-05-18T13:07:01Z</time>
      </trkpt>
      <trkpt lat="46.60907" lon="5.32178">
        <ele>208.6</ele>
        <time>2022-05-18T13:07:06Z</time>
      </trkpt>
      <trkpt lat="46.60939" lon="5.32209">
        <ele>209.2</ele>
        <time>2022-05-18T13:07:13Z</time>
      </trkpt>
      <trkpt lat="46.60949" lon="5.32215">
        <ele>209.6</ele>
        <time>2022-05-18T13:07:15Z</time>
      </trkpt>
      <trkpt lat="46.60955" lon="5.32217">
        <ele>209.6</ele>
        <time>2022-05-18T13:07:16Z</time>
      </trkpt>
      <trkpt lat="46.60967" lon="5.32219">
        <ele>210</ele>
        <time>2022-05-18T13:07:18Z</time>
      </trkpt>
      <trkpt lat="46.61005" lon="5.32221">
        <ele>210.2</ele>
        <time>2022-05-18T13:07:24Z</time>
      </trkpt>
      <trkpt lat="46.61041" lon="5.32221">
        <ele>210.6</ele>
        <time>2022-05-18T13:07:29Z</time>
      </trkpt>
      <trkpt lat="46.61102" lon="5.32223">
        <ele>208.8</ele>
        <time>2022-05-18T13:07:37Z</time>
      </trkpt>
      <trkpt lat="46.61126" lon="5.32224">
        <ele>208.4</ele>
        <time>2022-05-18T13:07:40Z</time>
      </trkpt>
      <trkpt lat="46.61156" lon="5.32222">
        <ele>207.8</ele>
        <time>2022-05-18T13:07:44Z</time>
      </trkpt>
      <trkpt lat="46.61178" lon="5.32218">
        <ele>207.4</ele>
        <time>2022-05-18T13:07:47Z</time>
      </trkpt>
      <trkpt lat="46.6119" lon="5.3221">
        <ele>207.2</ele>
        <time>2022-05-18T13:07:49Z</time>
      </trkpt>
      <trkpt lat="46.61224" lon="5.32183">
        <ele>207.4</ele>
        <time>2022-05-18T13:07:55Z</time>
      </trkpt>
      <trkpt lat="46.61259" lon="5.32173">
        <ele>207.4</ele>
        <time>2022-05-18T13:08:01Z</time>
      </trkpt>
      <trkpt lat="46.61292" lon="5.3218">
        <ele>207.2</ele>
        <time>2022-05-18T13:08:06Z</time>
      </trkpt>
      <trkpt lat="46.61335" lon="5.32199">
        <ele>206.4</ele>
        <time>2022-05-18T13:08:12Z</time>
      </trkpt>
      <trkpt lat="46.61343" lon="5.32202">
        <ele>206.2</ele>
        <time>2022-05-18T13:08:13Z</time>
      </trkpt>
      <trkpt lat="46.61366" lon="5.32206">
        <ele>205.8</ele>
        <time>2022-05-18T13:08:16Z</time>
      </trkpt>
      <trkpt lat="46.61374" lon="5.32205">
        <ele>205.6</ele>
        <time>2022-05-18T13:08:17Z</time>
      </trkpt>
      <trkpt lat="46.61389" lon="5.32203">
        <ele>205.2</ele>
        <time>2022-05-18T13:08:19Z</time>
      </trkpt>
      <trkpt lat="46.61411" lon="5.32194">
        <ele>204.6</ele>
        <time>2022-05-18T13:08:22Z</time>
      </trkpt>
      <trkpt lat="46.61432" lon="5.32181">
        <ele>204.2</ele>
        <time>2022-05-18T13:08:25Z</time>
      </trkpt>
      <trkpt lat="46.61452" lon="5.32165">
        <ele>203.8</ele>
        <time>2022-05-18T13:08:28Z</time>
      </trkpt>
      <trkpt lat="46.61482" lon="5.32152">
        <ele>203.4</ele>
        <time>2022-05-18T13:08:32Z</time>
      </trkpt>
      <trkpt lat="46.6149" lon="5.32151">
        <ele>203.4</ele>
        <time>2022-05-18T13:08:33Z</time>
      </trkpt>
      <trkpt lat="46.61498" lon="5.32151">
        <ele>203</ele>
        <time>2022-05-18T13:08:34Z</time>
      </trkpt>
      <trkpt lat="46.61513" lon="5.32155">
        <ele>202.4</ele>
        <time>2022-05-18T13:08:36Z</time>
      </trkpt>
      <trkpt lat="46.6152" lon="5.32159">
        <ele>202.4</ele>
        <time>2022-05-18T13:08:37Z</time>
      </trkpt>
      <trkpt lat="46.61527" lon="5.32165">
        <ele>202.2</ele>
        <time>2022-05-18T13:08:38Z</time>
      </trkpt>
      <trkpt lat="46.61533" lon="5.32171">
        <ele>202</ele>
        <time>2022-05-18T13:08:39Z</time>
      </trkpt>
      <trkpt lat="46.61538" lon="5.32178">
        <ele>201.8</ele>
        <time>2022-05-18T13:08:40Z</time>
      </trkpt>
      <trkpt lat="46.61543" lon="5.32186">
        <ele>201.8</ele>
        <time>2022-05-18T13:08:41Z</time>
      </trkpt>
      <trkpt lat="46.61575" lon="5.32239">
        <ele>201.6</ele>
        <time>2022-05-18T13:08:48Z</time>
      </trkpt>
      <trkpt lat="46.61597" lon="5.32285">
        <ele>201.8</ele>
        <time>2022-05-18T13:08:54Z</time>
      </trkpt>
      <trkpt lat="46.61605" lon="5.32327">
        <ele>201.8</ele>
        <time>2022-05-18T13:08:59Z</time>
      </trkpt>
      <trkpt lat="46.61616" lon="5.32375">
        <ele>202.2</ele>
        <time>2022-05-18T13:09:05Z</time>
      </trkpt>
      <trkpt lat="46.61619" lon="5.32382">
        <ele>202.2</ele>
        <time>2022-05-18T13:09:06Z</time>
      </trkpt>
      <trkpt lat="46.61634" lon="5.32406">
        <ele>202.8</ele>
        <time>2022-05-18T13:09:10Z</time>
      </trkpt>
      <trkpt lat="46.61661" lon="5.32429">
        <ele>203.2</ele>
        <time>2022-05-18T13:09:16Z</time>
      </trkpt>
      <trkpt lat="46.61666" lon="5.32432">
        <ele>203.2</ele>
        <time>2022-05-18T13:09:17Z</time>
      </trkpt>
      <trkpt lat="46.61671" lon="5.32435">
        <ele>203.4</ele>
        <time>2022-05-18T13:09:18Z</time>
      </trkpt>
      <trkpt lat="46.617" lon="5.32451">
        <ele>204.2</ele>
        <time>2022-05-18T13:09:24Z</time>
      </trkpt>
      <trkpt lat="46.61704" lon="5.32454">
        <ele>204.4</ele>
        <time>2022-05-18T13:09:25Z</time>
      </trkpt>
      <trkpt lat="46.61744" lon="5.32475">
        <ele>205.2</ele>
        <time>2022-05-18T13:09:34Z</time>
      </trkpt>
      <trkpt lat="46.61749" lon="5.32478">
        <ele>205.6</ele>
        <time>2022-05-18T13:09:35Z</time>
      </trkpt>
      <trkpt lat="46.61782" lon="5.32503">
        <ele>206.6</ele>
        <time>2022-05-18T13:09:43Z</time>
      </trkpt>
      <trkpt lat="46.61789" lon="5.32509">
        <ele>207.2</ele>
        <time>2022-05-18T13:09:45Z</time>
      </trkpt>
      <trkpt lat="46.61805" lon="5.32523">
        <ele>207.8</ele>
        <time>2022-05-18T13:09:49Z</time>
      </trkpt>
      <trkpt lat="46.61832" lon="5.32547">
        <ele>208.8</ele>
        <time>2022-05-18T13:09:56Z</time>
      </trkpt>
      <trkpt lat="46.6184" lon="5.32554">
        <ele>209</ele>
        <time>2022-05-18T13:09:58Z</time>
      </trkpt>
      <trkpt lat="46.61869" lon="5.3258">
        <ele>210</ele>
        <time>2022-05-18T13:10:05Z</time>
      </trkpt>
      <trkpt lat="46.61886" lon="5.32598">
        <ele>210.2</ele>
        <time>2022-05-18T13:10:09Z</time>
      </trkpt>
      <trkpt lat="46.61927" lon="5.32652">
        <ele>210.6</ele>
        <time>2022-05-18T13:10:19Z</time>
      </trkpt>
      <trkpt lat="46.61966" lon="5.32707">
        <ele>210.6</ele>
        <time>2022-05-18T13:10:28Z</time>
      </trkpt>
      <trkpt lat="46.61995" lon="5.32753">
        <ele>210.6</ele>
        <time>2022-05-18T13:10:35Z</time>
      </trkpt>
      <trkpt lat="46.62022" lon="5.32795">
        <ele>211</ele>
        <time>2022-05-18T13:10:42Z</time>
      </trkpt>
      <trkpt lat="46.62029" lon="5.32806">
        <ele>211</ele>
        <time>2022-05-18T13:10:44Z</time>
      </trkpt>
      <trkpt lat="46.62047" lon="5.32834">
        <ele>212</ele>
        <time>2022-05-18T13:10:49Z</time>
      </trkpt>
      <trkpt lat="46.62058" lon="5.32851">
        <ele>212.2</ele>
        <time>2022-05-18T13:10:52Z</time>
      </trkpt>
      <trkpt lat="46.62083" lon="5.32885">
        <ele>212.8</ele>
        <time>2022-05-18T13:10:58Z</time>
      </trkpt>
      <trkpt lat="46.62114" lon="5.3291">
        <ele>212.8</ele>
        <time>2022-05-18T13:11:04Z</time>
      </trkpt>
      <trkpt lat="46.62158" lon="5.32937">
        <ele>212.2</ele>
        <time>2022-05-18T13:11:12Z</time>
      </trkpt>
      <trkpt lat="46.62164" lon="5.32939">
        <ele>212.2</ele>
        <time>2022-05-18T13:11:13Z</time>
      </trkpt>
      <trkpt lat="46.6217" lon="5.32939">
        <ele>212</ele>
        <time>2022-05-18T13:11:14Z</time>
      </trkpt>
      <trkpt lat="46.62183" lon="5.32936">
        <ele>211.8</ele>
        <time>2022-05-18T13:11:16Z</time>
      </trkpt>
      <trkpt lat="46.62189" lon="5.32933">
        <ele>211.8</ele>
        <time>2022-05-18T13:11:17Z</time>
      </trkpt>
      <trkpt lat="46.62202" lon="5.32925">
        <ele>211.6</ele>
        <time>2022-05-18T13:11:19Z</time>
      </trkpt>
      <trkpt lat="46.62224" lon="5.32919">
        <ele>211.2</ele>
        <time>2022-05-18T13:11:22Z</time>
      </trkpt>
      <trkpt lat="46.62232" lon="5.32918">
        <ele>211.2</ele>
        <time>2022-05-18T13:11:23Z</time>
      </trkpt>
      <trkpt lat="46.62267" lon="5.32917">
        <ele>210</ele>
        <time>2022-05-18T13:11:27Z</time>
      </trkpt>
      <trkpt lat="46.62304" lon="5.32916">
        <ele>208.6</ele>
        <time>2022-05-18T13:11:31Z</time>
      </trkpt>
      <trkpt lat="46.62332" lon="5.32914">
        <ele>207.8</ele>
        <time>2022-05-18T13:11:34Z</time>
      </trkpt>
      <trkpt lat="46.62342" lon="5.32913">
        <ele>207.4</ele>
        <time>2022-05-18T13:11:35Z</time>
      </trkpt>
      <trkpt lat="46.62371" lon="5.3291">
        <ele>205.8</ele>
        <time>2022-05-18T13:11:38Z</time>
      </trkpt>
      <trkpt lat="46.624" lon="5.32906">
        <ele>204.8</ele>
        <time>2022-05-18T13:11:41Z</time>
      </trkpt>
      <trkpt lat="46.62419" lon="5.32904">
        <ele>203.6</ele>
        <time>2022-05-18T13:11:43Z</time>
      </trkpt>
      <trkpt lat="46.62429" lon="5.32902">
        <ele>203.2</ele>
        <time>2022-05-18T13:11:44Z</time>
      </trkpt>
      <trkpt lat="46.62439" lon="5.32901">
        <ele>202.6</ele>
        <time>2022-05-18T13:11:45Z</time>
      </trkpt>
      <trkpt lat="46.62477" lon="5.32895">
        <ele>201.4</ele>
        <time>2022-05-18T13:11:49Z</time>
      </trkpt>
      <trkpt lat="46.62504" lon="5.3289">
        <ele>200.2</ele>
        <time>2022-05-18T13:11:52Z</time>
      </trkpt>
      <trkpt lat="46.62513" lon="5.32889">
        <ele>200</ele>
        <time>2022-05-18T13:11:53Z</time>
      </trkpt>
      <trkpt lat="46.62554" lon="5.3288">
        <ele>199</ele>
        <time>2022-05-18T13:11:58Z</time>
      </trkpt>
      <trkpt lat="46.62598" lon="5.32877">
        <ele>198.6</ele>
        <time>2022-05-18T13:12:04Z</time>
      </trkpt>
      <trkpt lat="46.62611" lon="5.32885">
        <ele>198.6</ele>
        <time>2022-05-18T13:12:06Z</time>
      </trkpt>
      <trkpt lat="46.62616" lon="5.32893">
        <ele>198.6</ele>
        <time>2022-05-18T13:12:07Z</time>
      </trkpt>
      <trkpt lat="46.62633" lon="5.32936">
        <ele>198.6</ele>
        <time>2022-05-18T13:12:12Z</time>
      </trkpt>
      <trkpt lat="46.62652" lon="5.32976">
        <ele>199.4</ele>
        <time>2022-05-18T13:12:18Z</time>
      </trkpt>
      <trkpt lat="46.62659" lon="5.32986">
        <ele>199.6</ele>
        <time>2022-05-18T13:12:20Z</time>
      </trkpt>
      <trkpt lat="46.62667" lon="5.32993">
        <ele>200.4</ele>
        <time>2022-05-18T13:12:22Z</time>
      </trkpt>
      <trkpt lat="46.62672" lon="5.32996">
        <ele>200.6</ele>
        <time>2022-05-18T13:12:23Z</time>
      </trkpt>
      <trkpt lat="46.62681" lon="5.33">
        <ele>201.4</ele>
        <time>2022-05-18T13:12:25Z</time>
      </trkpt>
      <trkpt lat="46.62685" lon="5.33">
        <ele>201.6</ele>
        <time>2022-05-18T13:12:26Z</time>
      </trkpt>
      <trkpt lat="46.6269" lon="5.33">
        <ele>201.8</ele>
        <time>2022-05-18T13:12:27Z</time>
      </trkpt>
      <trkpt lat="46.62703" lon="5.32998">
        <ele>202.4</ele>
        <time>2022-05-18T13:12:30Z</time>
      </trkpt>
      <trkpt lat="46.62708" lon="5.32998">
        <ele>202.8</ele>
        <time>2022-05-18T13:12:31Z</time>
      </trkpt>
      <trkpt lat="46.62713" lon="5.32997">
        <ele>203.2</ele>
        <time>2022-05-18T13:12:32Z</time>
      </trkpt>
      <trkpt lat="46.62717" lon="5.32997">
        <ele>203.4</ele>
        <time>2022-05-18T13:12:33Z</time>
      </trkpt>
      <trkpt lat="46.62721" lon="5.32998">
        <ele>203.6</ele>
        <time>2022-05-18T13:12:34Z</time>
      </trkpt>
      <trkpt lat="46.6274" lon="5.33">
        <ele>204.4</ele>
        <time>2022-05-18T13:12:38Z</time>
      </trkpt>
      <trkpt lat="46.62745" lon="5.33002">
        <ele>204.6</ele>
        <time>2022-05-18T13:12:39Z</time>
      </trkpt>
      <trkpt lat="46.62779" lon="5.33014">
        <ele>205.6</ele>
        <time>2022-05-18T13:12:46Z</time>
      </trkpt>
      <trkpt lat="46.62814" lon="5.33025">
        <ele>206.8</ele>
        <time>2022-05-18T13:12:53Z</time>
      </trkpt>
      <trkpt lat="46.62819" lon="5.33027">
        <ele>206.8</ele>
        <time>2022-05-18T13:12:54Z</time>
      </trkpt>
      <trkpt lat="46.62866" lon="5.33042">
        <ele>207.4</ele>
        <time>2022-05-18T13:13:03Z</time>
      </trkpt>
      <trkpt lat="46.62882" lon="5.33049">
        <ele>207.8</ele>
        <time>2022-05-18T13:13:06Z</time>
      </trkpt>
      <trkpt lat="46.62888" lon="5.33052">
        <ele>207.8</ele>
        <time>2022-05-18T13:13:07Z</time>
      </trkpt>
      <trkpt lat="46.62897" lon="5.33061">
        <ele>208</ele>
        <time>2022-05-18T13:13:09Z</time>
      </trkpt>
      <trkpt lat="46.62925" lon="5.33094">
        <ele>208.6</ele>
        <time>2022-05-18T13:13:15Z</time>
      </trkpt>
      <trkpt lat="46.6294" lon="5.33106">
        <ele>208.8</ele>
        <time>2022-05-18T13:13:18Z</time>
      </trkpt>
      <trkpt lat="46.62951" lon="5.3311">
        <ele>209</ele>
        <time>2022-05-18T13:13:20Z</time>
      </trkpt>
      <trkpt lat="46.62999" lon="5.33123">
        <ele>209.8</ele>
        <time>2022-05-18T13:13:29Z</time>
      </trkpt>
      <trkpt lat="46.63004" lon="5.33124">
        <ele>210.6</ele>
        <time>2022-05-18T13:13:30Z</time>
      </trkpt>
      <trkpt lat="46.63024" lon="5.33132">
        <ele>211.8</ele>
        <time>2022-05-18T13:13:34Z</time>
      </trkpt>
      <trkpt lat="46.63035" lon="5.33139">
        <ele>212.4</ele>
        <time>2022-05-18T13:13:36Z</time>
      </trkpt>
      <trkpt lat="46.63044" lon="5.33145">
        <ele>212.8</ele>
        <time>2022-05-18T13:13:38Z</time>
      </trkpt>
      <trkpt lat="46.63074" lon="5.33173">
        <ele>214</ele>
        <time>2022-05-18T13:13:44Z</time>
      </trkpt>
      <trkpt lat="46.63111" lon="5.33208">
        <ele>215</ele>
        <time>2022-05-18T13:13:51Z</time>
      </trkpt>
      <trkpt lat="46.63116" lon="5.33213">
        <ele>215</ele>
        <time>2022-05-18T13:13:52Z</time>
      </trkpt>
      <trkpt lat="46.63162" lon="5.33255">
        <ele>215.4</ele>
        <time>2022-05-18T13:14:00Z</time>
      </trkpt>
      <trkpt lat="46.63208" lon="5.33295">
        <ele>215.6</ele>
        <time>2022-05-18T13:14:08Z</time>
      </trkpt>
      <trkpt lat="46.63214" lon="5.333">
        <ele>215.6</ele>
        <time>2022-05-18T13:14:09Z</time>
      </trkpt>
      <trkpt lat="46.63258" lon="5.33329">
        <ele>215.6</ele>
        <time>2022-05-18T13:14:16Z</time>
      </trkpt>
      <trkpt lat="46.63305" lon="5.33345">
        <ele>215.8</ele>
        <time>2022-05-18T13:14:23Z</time>
      </trkpt>
      <trkpt lat="46.63361" lon="5.33364">
        <ele>215.8</ele>
        <time>2022-05-18T13:14:31Z</time>
      </trkpt>
      <trkpt lat="46.63401" lon="5.33394">
        <ele>215.6</ele>
        <time>2022-05-18T13:14:37Z</time>
      </trkpt>
      <trkpt lat="46.63448" lon="5.33432">
        <ele>215.6</ele>
        <time>2022-05-18T13:14:44Z</time>
      </trkpt>
      <trkpt lat="46.63461" lon="5.33444">
        <ele>215.6</ele>
        <time>2022-05-18T13:14:46Z</time>
      </trkpt>
      <trkpt lat="46.63514" lon="5.33488">
        <ele>214.8</ele>
        <time>2022-05-18T13:14:54Z</time>
      </trkpt>
      <trkpt lat="46.63521" lon="5.33494">
        <ele>214.8</ele>
        <time>2022-05-18T13:14:55Z</time>
      </trkpt>
      <trkpt lat="46.63556" lon="5.3351">
        <ele>214.8</ele>
        <time>2022-05-18T13:15:00Z</time>
      </trkpt>
      <trkpt lat="46.63609" lon="5.33517">
        <ele>215</ele>
        <time>2022-05-18T13:15:07Z</time>
      </trkpt>
      <trkpt lat="46.63655" lon="5.33525">
        <ele>215</ele>
        <time>2022-05-18T13:15:13Z</time>
      </trkpt>
      <trkpt lat="46.6367" lon="5.33532">
        <ele>215</ele>
        <time>2022-05-18T13:15:15Z</time>
      </trkpt>
      <trkpt lat="46.63722" lon="5.33556">
        <ele>214.6</ele>
        <time>2022-05-18T13:15:22Z</time>
      </trkpt>
      <trkpt lat="46.63772" lon="5.33583">
        <ele>214.6</ele>
        <time>2022-05-18T13:15:29Z</time>
      </trkpt>
      <trkpt lat="46.63815" lon="5.33605">
        <ele>214.4</ele>
        <time>2022-05-18T13:15:35Z</time>
      </trkpt>
      <trkpt lat="46.63854" lon="5.33622">
        <ele>214</ele>
        <time>2022-05-18T13:15:40Z</time>
      </trkpt>
      <trkpt lat="46.63883" lon="5.33635">
        <ele>213.6</ele>
        <time>2022-05-18T13:15:44Z</time>
      </trkpt>
      <trkpt lat="46.63932" lon="5.33659">
        <ele>212.6</ele>
        <time>2022-05-18T13:15:50Z</time>
      </trkpt>
      <trkpt lat="46.63963" lon="5.33674">
        <ele>211.8</ele>
        <time>2022-05-18T13:15:54Z</time>
      </trkpt>
      <trkpt lat="46.63972" lon="5.33677">
        <ele>211.6</ele>
        <time>2022-05-18T13:15:55Z</time>
      </trkpt>
      <trkpt lat="46.64024" lon="5.33702">
        <ele>210.6</ele>
        <time>2022-05-18T13:16:01Z</time>
      </trkpt>
      <trkpt lat="46.64034" lon="5.33706">
        <ele>210.2</ele>
        <time>2022-05-18T13:16:02Z</time>
      </trkpt>
      <trkpt lat="46.64043" lon="5.3371">
        <ele>210</ele>
        <time>2022-05-18T13:16:03Z</time>
      </trkpt>
      <trkpt lat="46.64061" lon="5.33719">
        <ele>209.2</ele>
        <time>2022-05-18T13:16:05Z</time>
      </trkpt>
      <trkpt lat="46.6408" lon="5.33729">
        <ele>208.2</ele>
        <time>2022-05-18T13:16:07Z</time>
      </trkpt>
      <trkpt lat="46.64109" lon="5.33742">
        <ele>207.2</ele>
        <time>2022-05-18T13:16:10Z</time>
      </trkpt>
      <trkpt lat="46.64119" lon="5.33747">
        <ele>207</ele>
        <time>2022-05-18T13:16:11Z</time>
      </trkpt>
      <trkpt lat="46.64138" lon="5.33756">
        <ele>205.8</ele>
        <time>2022-05-18T13:16:13Z</time>
      </trkpt>
      <trkpt lat="46.64166" lon="5.33768">
        <ele>204.4</ele>
        <time>2022-05-18T13:16:16Z</time>
      </trkpt>
      <trkpt lat="46.64203" lon="5.33786">
        <ele>203.4</ele>
        <time>2022-05-18T13:16:20Z</time>
      </trkpt>
      <trkpt lat="46.6423" lon="5.33798">
        <ele>202.2</ele>
        <time>2022-05-18T13:16:23Z</time>
      </trkpt>
      <trkpt lat="46.64263" lon="5.33813">
        <ele>201.2</ele>
        <time>2022-05-18T13:16:27Z</time>
      </trkpt>
      <trkpt lat="46.64271" lon="5.33817">
        <ele>201</ele>
        <time>2022-05-18T13:16:28Z</time>
      </trkpt>
      <trkpt lat="46.64317" lon="5.33839">
        <ele>200.4</ele>
        <time>2022-05-18T13:16:34Z</time>
      </trkpt>
      <trkpt lat="46.64363" lon="5.33862">
        <ele>201</ele>
        <time>2022-05-18T13:16:41Z</time>
      </trkpt>
      <trkpt lat="46.64408" lon="5.33882">
        <ele>201.8</ele>
        <time>2022-05-18T13:16:48Z</time>
      </trkpt>
      <trkpt lat="46.64414" lon="5.33885">
        <ele>202</ele>
        <time>2022-05-18T13:16:49Z</time>
      </trkpt>
      <trkpt lat="46.64451" lon="5.33903">
        <ele>203</ele>
        <time>2022-05-18T13:16:55Z</time>
      </trkpt>
      <trkpt lat="46.64464" lon="5.33909">
        <ele>203.2</ele>
        <time>2022-05-18T13:16:57Z</time>
      </trkpt>
      <trkpt lat="46.64521" lon="5.33937">
        <ele>203.8</ele>
        <time>2022-05-18T13:17:06Z</time>
      </trkpt>
      <trkpt lat="46.64562" lon="5.33963">
        <ele>203.4</ele>
        <time>2022-05-18T13:17:12Z</time>
      </trkpt>
      <trkpt lat="46.64609" lon="5.33993">
        <ele>202.6</ele>
        <time>2022-05-18T13:17:18Z</time>
      </trkpt>
      <trkpt lat="46.64617" lon="5.33996">
        <ele>201.8</ele>
        <time>2022-05-18T13:17:19Z</time>
      </trkpt>
      <trkpt lat="46.64626" lon="5.33996">
        <ele>201.6</ele>
        <time>2022-05-18T13:17:20Z</time>
      </trkpt>
      <trkpt lat="46.64634" lon="5.33995">
        <ele>201</ele>
        <time>2022-05-18T13:17:21Z</time>
      </trkpt>
      <trkpt lat="46.6465" lon="5.33991">
        <ele>200.8</ele>
        <time>2022-05-18T13:17:23Z</time>
      </trkpt>
      <trkpt lat="46.64658" lon="5.33991">
        <ele>200.4</ele>
        <time>2022-05-18T13:17:24Z</time>
      </trkpt>
      <trkpt lat="46.64674" lon="5.33995">
        <ele>200.2</ele>
        <time>2022-05-18T13:17:26Z</time>
      </trkpt>
      <trkpt lat="46.6471" lon="5.3402">
        <ele>200</ele>
        <time>2022-05-18T13:17:31Z</time>
      </trkpt>
      <trkpt lat="46.64743" lon="5.34042">
        <ele>199.8</ele>
        <time>2022-05-18T13:17:36Z</time>
      </trkpt>
      <trkpt lat="46.64774" lon="5.34048">
        <ele>200.2</ele>
        <time>2022-05-18T13:17:41Z</time>
      </trkpt>
      <trkpt lat="46.64814" lon="5.34052">
        <ele>201.8</ele>
        <time>2022-05-18T13:17:49Z</time>
      </trkpt>
      <trkpt lat="46.64839" lon="5.34054">
        <ele>203</ele>
        <time>2022-05-18T13:17:54Z</time>
      </trkpt>
      <trkpt lat="46.64864" lon="5.34056">
        <ele>204</ele>
        <time>2022-05-18T13:17:59Z</time>
      </trkpt>
      <trkpt lat="46.64868" lon="5.34056">
        <ele>204</ele>
        <time>2022-05-18T13:18:00Z</time>
      </trkpt>
      <trkpt lat="46.64893" lon="5.34059">
        <ele>205</ele>
        <time>2022-05-18T13:18:05Z</time>
      </trkpt>
      <trkpt lat="46.649" lon="5.3406">
        <ele>206</ele>
        <time>2022-05-18T13:18:07Z</time>
      </trkpt>
      <trkpt lat="46.64905" lon="5.3406">
        <ele>206.4</ele>
        <time>2022-05-18T13:18:08Z</time>
      </trkpt>
      <trkpt lat="46.64926" lon="5.34061">
        <ele>207.4</ele>
        <time>2022-05-18T13:18:13Z</time>
      </trkpt>
      <trkpt lat="46.64933" lon="5.34061">
        <ele>208.2</ele>
        <time>2022-05-18T13:18:15Z</time>
      </trkpt>
      <trkpt lat="46.64942" lon="5.34062">
        <ele>208.6</ele>
        <time>2022-05-18T13:18:17Z</time>
      </trkpt>
      <trkpt lat="46.6496" lon="5.34062">
        <ele>209.6</ele>
        <time>2022-05-18T13:18:21Z</time>
      </trkpt>
      <trkpt lat="46.64964" lon="5.34062">
        <ele>209.8</ele>
        <time>2022-05-18T13:18:22Z</time>
      </trkpt>
      <trkpt lat="46.64973" lon="5.34062">
        <ele>210.2</ele>
        <time>2022-05-18T13:18:24Z</time>
      </trkpt>
      <trkpt lat="46.64985" lon="5.34062">
        <ele>210.8</ele>
        <time>2022-05-18T13:18:27Z</time>
      </trkpt>
      <trkpt lat="46.6501" lon="5.34062">
        <ele>211.4</ele>
        <time>2022-05-18T13:18:33Z</time>
      </trkpt>
      <trkpt lat="46.65033" lon="5.3406">
        <ele>211.8</ele>
        <time>2022-05-18T13:18:38Z</time>
      </trkpt>
      <trkpt lat="46.65046" lon="5.3406">
        <ele>212.2</ele>
        <time>2022-05-18T13:18:41Z</time>
      </trkpt>
      <trkpt lat="46.65089" lon="5.34061">
        <ele>212.6</ele>
        <time>2022-05-18T13:18:50Z</time>
      </trkpt>
      <trkpt lat="46.65099" lon="5.34062">
        <ele>212.8</ele>
        <time>2022-05-18T13:18:52Z</time>
      </trkpt>
      <trkpt lat="46.65133" lon="5.34068">
        <ele>214</ele>
        <time>2022-05-18T13:18:59Z</time>
      </trkpt>
      <trkpt lat="46.65152" lon="5.34073">
        <ele>214</ele>
        <time>2022-05-18T13:19:03Z</time>
      </trkpt>
      <trkpt lat="46.65169" lon="5.34078">
        <ele>214.2</ele>
        <time>2022-05-18T13:19:06Z</time>
      </trkpt>
      <trkpt lat="46.65208" lon="5.34088">
        <ele>214.2</ele>
        <time>2022-05-18T13:19:14Z</time>
      </trkpt>
      <trkpt lat="46.65217" lon="5.34089">
        <ele>214.2</ele>
        <time>2022-05-18T13:19:16Z</time>
      </trkpt>
      <trkpt lat="46.65225" lon="5.34093">
        <ele>214.4</ele>
        <time>2022-05-18T13:19:18Z</time>
      </trkpt>
      <trkpt lat="46.65228" lon="5.34096">
        <ele>214.4</ele>
        <time>2022-05-18T13:19:19Z</time>
      </trkpt>
      <trkpt lat="46.65233" lon="5.34106">
        <ele>214.8</ele>
        <time>2022-05-18T13:19:21Z</time>
      </trkpt>
      <trkpt lat="46.6524" lon="5.34135">
        <ele>215.2</ele>
        <time>2022-05-18T13:19:25Z</time>
      </trkpt>
      <trkpt lat="46.65242" lon="5.34143">
        <ele>215.4</ele>
        <time>2022-05-18T13:19:26Z</time>
      </trkpt>
      <trkpt lat="46.65249" lon="5.34165">
        <ele>215.8</ele>
        <time>2022-05-18T13:19:29Z</time>
      </trkpt>
      <trkpt lat="46.65258" lon="5.34188">
        <ele>216</ele>
        <time>2022-05-18T13:19:32Z</time>
      </trkpt>
      <trkpt lat="46.65268" lon="5.34209">
        <ele>216.2</ele>
        <time>2022-05-18T13:19:35Z</time>
      </trkpt>
      <trkpt lat="46.65291" lon="5.34252">
        <ele>216.6</ele>
        <time>2022-05-18T13:19:41Z</time>
      </trkpt>
      <trkpt lat="46.65325" lon="5.34316">
        <ele>217.2</ele>
        <time>2022-05-18T13:19:50Z</time>
      </trkpt>
      <trkpt lat="46.65328" lon="5.34321">
        <ele>217.2</ele>
        <time>2022-05-18T13:19:51Z</time>
      </trkpt>
      <trkpt lat="46.6536" lon="5.3438">
        <ele>217.2</ele>
        <time>2022-05-18T13:19:59Z</time>
      </trkpt>
      <trkpt lat="46.65396" lon="5.34445">
        <ele>216.8</ele>
        <time>2022-05-18T13:20:07Z</time>
      </trkpt>
      <trkpt lat="46.654" lon="5.34452">
        <ele>216.8</ele>
        <time>2022-05-18T13:20:08Z</time>
      </trkpt>
      <trkpt lat="46.65434" lon="5.34515">
        <ele>216.2</ele>
        <time>2022-05-18T13:20:15Z</time>
      </trkpt>
      <trkpt lat="46.65443" lon="5.34532">
        <ele>216.2</ele>
        <time>2022-05-18T13:20:17Z</time>
      </trkpt>
      <trkpt lat="46.65482" lon="5.34601">
        <ele>215.8</ele>
        <time>2022-05-18T13:20:25Z</time>
      </trkpt>
      <trkpt lat="46.65485" lon="5.34608">
        <ele>215.8</ele>
        <time>2022-05-18T13:20:26Z</time>
      </trkpt>
      <trkpt lat="46.65518" lon="5.34668">
        <ele>215.8</ele>
        <time>2022-05-18T13:20:33Z</time>
      </trkpt>
      <trkpt lat="46.6555" lon="5.34725">
        <ele>216</ele>
        <time>2022-05-18T13:20:40Z</time>
      </trkpt>
      <trkpt lat="46.6556" lon="5.3474">
        <ele>216</ele>
        <time>2022-05-18T13:20:42Z</time>
      </trkpt>
      <trkpt lat="46.65566" lon="5.34742">
        <ele>216</ele>
        <time>2022-05-18T13:20:43Z</time>
      </trkpt>
      <trkpt lat="46.65571" lon="5.3474">
        <ele>216</ele>
        <time>2022-05-18T13:20:44Z</time>
      </trkpt>
      <trkpt lat="46.65581" lon="5.34728">
        <ele>216</ele>
        <time>2022-05-18T13:20:46Z</time>
      </trkpt>
      <trkpt lat="46.65601" lon="5.3469">
        <ele>216.2</ele>
        <time>2022-05-18T13:20:51Z</time>
      </trkpt>
      <trkpt lat="46.65606" lon="5.34683">
        <ele>216.2</ele>
        <time>2022-05-18T13:20:52Z</time>
      </trkpt>
      <trkpt lat="46.65618" lon="5.34653">
        <ele>216.4</ele>
        <time>2022-05-18T13:20:56Z</time>
      </trkpt>
      <trkpt lat="46.6562" lon="5.34644">
        <ele>216.6</ele>
        <time>2022-05-18T13:20:57Z</time>
      </trkpt>
      <trkpt lat="46.65622" lon="5.34636">
        <ele>216.8</ele>
        <time>2022-05-18T13:20:58Z</time>
      </trkpt>
      <trkpt lat="46.65627" lon="5.34592">
        <ele>216.8</ele>
        <time>2022-05-18T13:21:03Z</time>
      </trkpt>
      <trkpt lat="46.65642" lon="5.3453">
        <ele>216.6</ele>
        <time>2022-05-18T13:21:10Z</time>
      </trkpt>
      <trkpt lat="46.65656" lon="5.34461">
        <ele>216</ele>
        <time>2022-05-18T13:21:17Z</time>
      </trkpt>
      <trkpt lat="46.6566" lon="5.3444">
        <ele>215.8</ele>
        <time>2022-05-18T13:21:19Z</time>
      </trkpt>
      <trkpt lat="46.6567" lon="5.34422">
        <ele>215.6</ele>
        <time>2022-05-18T13:21:21Z</time>
      </trkpt>
      <trkpt lat="46.65676" lon="5.34417">
        <ele>215.2</ele>
        <time>2022-05-18T13:21:22Z</time>
      </trkpt>
      <trkpt lat="46.65683" lon="5.34416">
        <ele>215</ele>
        <time>2022-05-18T13:21:23Z</time>
      </trkpt>
      <trkpt lat="46.6569" lon="5.34417">
        <ele>214.8</ele>
        <time>2022-05-18T13:21:24Z</time>
      </trkpt>
      <trkpt lat="46.65696" lon="5.34421">
        <ele>214.8</ele>
        <time>2022-05-18T13:21:25Z</time>
      </trkpt>
      <trkpt lat="46.65708" lon="5.34434">
        <ele>214.8</ele>
        <time>2022-05-18T13:21:27Z</time>
      </trkpt>
      <trkpt lat="46.65746" lon="5.34478">
        <ele>214.8</ele>
        <time>2022-05-18T13:21:34Z</time>
      </trkpt>
      <trkpt lat="46.65757" lon="5.34487">
        <ele>215.2</ele>
        <time>2022-05-18T13:21:36Z</time>
      </trkpt>
      <trkpt lat="46.65769" lon="5.34489">
        <ele>215.2</ele>
        <time>2022-05-18T13:21:38Z</time>
      </trkpt>
      <trkpt lat="46.6578" lon="5.34481">
        <ele>215.6</ele>
        <time>2022-05-18T13:21:40Z</time>
      </trkpt>
      <trkpt lat="46.65785" lon="5.34473">
        <ele>215.6</ele>
        <time>2022-05-18T13:21:41Z</time>
      </trkpt>
      <trkpt lat="46.65809" lon="5.34433">
        <ele>215.4</ele>
        <time>2022-05-18T13:21:46Z</time>
      </trkpt>
      <trkpt lat="46.65829" lon="5.34397">
        <ele>214.4</ele>
        <time>2022-05-18T13:21:50Z</time>
      </trkpt>
      <trkpt lat="46.65835" lon="5.34388">
        <ele>214</ele>
        <time>2022-05-18T13:21:51Z</time>
      </trkpt>
      <trkpt lat="46.65846" lon="5.34368">
        <ele>213.2</ele>
        <time>2022-05-18T13:21:53Z</time>
      </trkpt>
      <trkpt lat="46.65864" lon="5.34337">
        <ele>212.2</ele>
        <time>2022-05-18T13:21:56Z</time>
      </trkpt>
      <trkpt lat="46.65876" lon="5.34315">
        <ele>211</ele>
        <time>2022-05-18T13:21:58Z</time>
      </trkpt>
      <trkpt lat="46.65897" lon="5.34285">
        <ele>209.6</ele>
        <time>2022-05-18T13:22:01Z</time>
      </trkpt>
      <trkpt lat="46.65905" lon="5.34277">
        <ele>209.2</ele>
        <time>2022-05-18T13:22:02Z</time>
      </trkpt>
      <trkpt lat="46.65914" lon="5.34271">
        <ele>208.6</ele>
        <time>2022-05-18T13:22:03Z</time>
      </trkpt>
      <trkpt lat="46.65931" lon="5.34257">
        <ele>208</ele>
        <time>2022-05-18T13:22:05Z</time>
      </trkpt>
      <trkpt lat="46.65945" lon="5.3424">
        <ele>207.6</ele>
        <time>2022-05-18T13:22:07Z</time>
      </trkpt>
      <trkpt lat="46.65965" lon="5.34212">
        <ele>206.2</ele>
        <time>2022-05-18T13:22:10Z</time>
      </trkpt>
      <trkpt lat="46.65978" lon="5.34195">
        <ele>206</ele>
        <time>2022-05-18T13:22:12Z</time>
      </trkpt>
      <trkpt lat="46.66008" lon="5.34161">
        <ele>206</ele>
        <time>2022-05-18T13:22:17Z</time>
      </trkpt>
      <trkpt lat="46.66024" lon="5.3414">
        <ele>206.4</ele>
        <time>2022-05-18T13:22:20Z</time>
      </trkpt>
      <trkpt lat="46.66027" lon="5.34133">
        <ele>206.4</ele>
        <time>2022-05-18T13:22:21Z</time>
      </trkpt>
      <trkpt lat="46.66037" lon="5.34112">
        <ele>207.4</ele>
        <time>2022-05-18T13:22:24Z</time>
      </trkpt>
      <trkpt lat="46.66041" lon="5.34098">
        <ele>207.8</ele>
        <time>2022-05-18T13:22:26Z</time>
      </trkpt>
      <trkpt lat="46.66048" lon="5.3408">
        <ele>208.6</ele>
        <time>2022-05-18T13:22:29Z</time>
      </trkpt>
      <trkpt lat="46.66058" lon="5.34059">
        <ele>209.2</ele>
        <time>2022-05-18T13:22:33Z</time>
      </trkpt>
      <trkpt lat="46.66063" lon="5.34049">
        <ele>209.8</ele>
        <time>2022-05-18T13:22:35Z</time>
      </trkpt>
      <trkpt lat="46.66077" lon="5.34019">
        <ele>210.8</ele>
        <time>2022-05-18T13:22:41Z</time>
      </trkpt>
      <trkpt lat="46.66079" lon="5.34014">
        <ele>210.8</ele>
        <time>2022-05-18T13:22:42Z</time>
      </trkpt>
      <trkpt lat="46.6609" lon="5.3399">
        <ele>211.8</ele>
        <time>2022-05-18T13:22:47Z</time>
      </trkpt>
      <trkpt lat="46.66103" lon="5.3396">
        <ele>213</ele>
        <time>2022-05-18T13:22:53Z</time>
      </trkpt>
      <trkpt lat="46.66114" lon="5.33941">
        <ele>214.2</ele>
        <time>2022-05-18T13:22:57Z</time>
      </trkpt>
      <trkpt lat="46.66128" lon="5.33914">
        <ele>215.2</ele>
        <time>2022-05-18T13:23:02Z</time>
      </trkpt>
      <trkpt lat="46.66131" lon="5.33909">
        <ele>215.4</ele>
        <time>2022-05-18T13:23:03Z</time>
      </trkpt>
      <trkpt lat="46.66157" lon="5.33862">
        <ele>216</ele>
        <time>2022-05-18T13:23:11Z</time>
      </trkpt>
      <trkpt lat="46.66164" lon="5.33849">
        <ele>216</ele>
        <time>2022-05-18T13:23:13Z</time>
      </trkpt>
      <trkpt lat="46.66175" lon="5.33819">
        <ele>216.2</ele>
        <time>2022-05-18T13:23:17Z</time>
      </trkpt>
      <trkpt lat="46.66193" lon="5.33745">
        <ele>216.8</ele>
        <time>2022-05-18T13:23:26Z</time>
      </trkpt>
      <trkpt lat="46.66197" lon="5.33728">
        <ele>216.8</ele>
        <time>2022-05-18T13:23:28Z</time>
      </trkpt>
      <trkpt lat="46.6621" lon="5.33675">
        <ele>216.8</ele>
        <time>2022-05-18T13:23:34Z</time>
      </trkpt>
      <trkpt lat="46.66227" lon="5.33606">
        <ele>216.4</ele>
        <time>2022-05-18T13:23:41Z</time>
      </trkpt>
      <trkpt lat="46.66238" lon="5.33541">
        <ele>215</ele>
        <time>2022-05-18T13:23:46Z</time>
      </trkpt>
      <trkpt lat="46.66245" lon="5.33481">
        <ele>213.6</ele>
        <time>2022-05-18T13:23:50Z</time>
      </trkpt>
      <trkpt lat="46.66247" lon="5.33466">
        <ele>212.2</ele>
        <time>2022-05-18T13:23:51Z</time>
      </trkpt>
      <trkpt lat="46.66247" lon="5.33451">
        <ele>211.8</ele>
        <time>2022-05-18T13:23:52Z</time>
      </trkpt>
      <trkpt lat="46.66248" lon="5.33436">
        <ele>211.2</ele>
        <time>2022-05-18T13:23:53Z</time>
      </trkpt>
      <trkpt lat="46.66245" lon="5.33393">
        <ele>209.8</ele>
        <time>2022-05-18T13:23:56Z</time>
      </trkpt>
      <trkpt lat="46.66237" lon="5.3334">
        <ele>208.4</ele>
        <time>2022-05-18T13:24:00Z</time>
      </trkpt>
      <trkpt lat="46.6622" lon="5.33271">
        <ele>207.2</ele>
        <time>2022-05-18T13:24:06Z</time>
      </trkpt>
      <trkpt lat="46.66214" lon="5.33224">
        <ele>208</ele>
        <time>2022-05-18T13:24:11Z</time>
      </trkpt>
      <trkpt lat="46.66211" lon="5.33199">
        <ele>208.6</ele>
        <time>2022-05-18T13:24:14Z</time>
      </trkpt>
      <trkpt lat="46.66209" lon="5.33184">
        <ele>209.6</ele>
        <time>2022-05-18T13:24:16Z</time>
      </trkpt>
      <trkpt lat="46.66208" lon="5.33177">
        <ele>210</ele>
        <time>2022-05-18T13:24:17Z</time>
      </trkpt>
      <trkpt lat="46.66201" lon="5.3315">
        <ele>211</ele>
        <time>2022-05-18T13:24:21Z</time>
      </trkpt>
      <trkpt lat="46.66201" lon="5.33143">
        <ele>211.4</ele>
        <time>2022-05-18T13:24:22Z</time>
      </trkpt>
      <trkpt lat="46.66203" lon="5.33136">
        <ele>211.4</ele>
        <time>2022-05-18T13:24:23Z</time>
      </trkpt>
      <trkpt lat="46.66213" lon="5.3313">
        <ele>211.6</ele>
        <time>2022-05-18T13:24:25Z</time>
      </trkpt>
      <trkpt lat="46.66245" lon="5.33129">
        <ele>211.6</ele>
        <time>2022-05-18T13:24:30Z</time>
      </trkpt>
      <trkpt lat="46.663" lon="5.33132">
        <ele>211</ele>
        <time>2022-05-18T13:24:37Z</time>
      </trkpt>
      <trkpt lat="46.66325" lon="5.33138">
        <ele>209.8</ele>
        <time>2022-05-18T13:24:40Z</time>
      </trkpt>
      <trkpt lat="46.66351" lon="5.33145">
        <ele>209</ele>
        <time>2022-05-18T13:24:43Z</time>
      </trkpt>
      <trkpt lat="46.6636" lon="5.33149">
        <ele>208.8</ele>
        <time>2022-05-18T13:24:44Z</time>
      </trkpt>
      <trkpt lat="46.66388" lon="5.33158">
        <ele>207.8</ele>
        <time>2022-05-18T13:24:47Z</time>
      </trkpt>
      <trkpt lat="46.66407" lon="5.33162">
        <ele>207</ele>
        <time>2022-05-18T13:24:49Z</time>
      </trkpt>
      <trkpt lat="46.66417" lon="5.33163">
        <ele>206.6</ele>
        <time>2022-05-18T13:24:50Z</time>
      </trkpt>
      <trkpt lat="46.66453" lon="5.33171">
        <ele>205.6</ele>
        <time>2022-05-18T13:24:54Z</time>
      </trkpt>
      <trkpt lat="46.66462" lon="5.33174">
        <ele>205.4</ele>
        <time>2022-05-18T13:24:55Z</time>
      </trkpt>
      <trkpt lat="46.66502" lon="5.33196">
        <ele>205</ele>
        <time>2022-05-18T13:25:00Z</time>
      </trkpt>
      <trkpt lat="46.66539" lon="5.33218">
        <ele>205</ele>
        <time>2022-05-18T13:25:05Z</time>
      </trkpt>
      <trkpt lat="46.66546" lon="5.33221">
        <ele>205</ele>
        <time>2022-05-18T13:25:06Z</time>
      </trkpt>
      <trkpt lat="46.6656" lon="5.33225">
        <ele>205</ele>
        <time>2022-05-18T13:25:08Z</time>
      </trkpt>
      <trkpt lat="46.66573" lon="5.33225">
        <ele>205.2</ele>
        <time>2022-05-18T13:25:10Z</time>
      </trkpt>
      <trkpt lat="46.66608" lon="5.33223">
        <ele>206</ele>
        <time>2022-05-18T13:25:16Z</time>
      </trkpt>
      <trkpt lat="46.66618" lon="5.33224">
        <ele>206.6</ele>
        <time>2022-05-18T13:25:18Z</time>
      </trkpt>
      <trkpt lat="46.66637" lon="5.33224">
        <ele>208</ele>
        <time>2022-05-18T13:25:22Z</time>
      </trkpt>
      <trkpt lat="46.66652" lon="5.33224">
        <ele>209</ele>
        <time>2022-05-18T13:25:25Z</time>
      </trkpt>
      <trkpt lat="46.66656" lon="5.33223">
        <ele>209.2</ele>
        <time>2022-05-18T13:25:26Z</time>
      </trkpt>
      <trkpt lat="46.66669" lon="5.33216">
        <ele>210</ele>
        <time>2022-05-18T13:25:29Z</time>
      </trkpt>
      <trkpt lat="46.66672" lon="5.33212">
        <ele>210.2</ele>
        <time>2022-05-18T13:25:30Z</time>
      </trkpt>
      <trkpt lat="46.66678" lon="5.33203">
        <ele>211</ele>
        <time>2022-05-18T13:25:32Z</time>
      </trkpt>
      <trkpt lat="46.6668" lon="5.33197">
        <ele>211.2</ele>
        <time>2022-05-18T13:25:33Z</time>
      </trkpt>
      <trkpt lat="46.66682" lon="5.33191">
        <ele>211.4</ele>
        <time>2022-05-18T13:25:34Z</time>
      </trkpt>
      <trkpt lat="46.66686" lon="5.33155">
        <ele>212.2</ele>
        <time>2022-05-18T13:25:39Z</time>
      </trkpt>
      <trkpt lat="46.66691" lon="5.33091">
        <ele>212.4</ele>
        <time>2022-05-18T13:25:47Z</time>
      </trkpt>
      <trkpt lat="46.66693" lon="5.33083">
        <ele>212.2</ele>
        <time>2022-05-18T13:25:48Z</time>
      </trkpt>
      <trkpt lat="46.66703" lon="5.33062">
        <ele>212.2</ele>
        <time>2022-05-18T13:25:51Z</time>
      </trkpt>
      <trkpt lat="46.66722" lon="5.3304">
        <ele>212</ele>
        <time>2022-05-18T13:25:55Z</time>
      </trkpt>
      <trkpt lat="46.66727" lon="5.33037">
        <ele>212</ele>
        <time>2022-05-18T13:25:56Z</time>
      </trkpt>
      <trkpt lat="46.66732" lon="5.33036">
        <ele>211.8</ele>
        <time>2022-05-18T13:25:57Z</time>
      </trkpt>
      <trkpt lat="46.6674" lon="5.33042">
        <ele>211.6</ele>
        <time>2022-05-18T13:25:59Z</time>
      </trkpt>
      <trkpt lat="46.66749" lon="5.33073">
        <ele>211.4</ele>
        <time>2022-05-18T13:26:03Z</time>
      </trkpt>
      <trkpt lat="46.66757" lon="5.33098">
        <ele>211.2</ele>
        <time>2022-05-18T13:26:06Z</time>
      </trkpt>
      <trkpt lat="46.66761" lon="5.33107">
        <ele>211.2</ele>
        <time>2022-05-18T13:26:07Z</time>
      </trkpt>
      <trkpt lat="46.66789" lon="5.3316">
        <ele>211.4</ele>
        <time>2022-05-18T13:26:14Z</time>
      </trkpt>
      <trkpt lat="46.66825" lon="5.33228">
        <ele>212</ele>
        <time>2022-05-18T13:26:23Z</time>
      </trkpt>
      <trkpt lat="46.6684" lon="5.33255">
        <ele>212.6</ele>
        <time>2022-05-18T13:26:27Z</time>
      </trkpt>
      <trkpt lat="46.66853" lon="5.33282">
        <ele>213</ele>
        <time>2022-05-18T13:26:31Z</time>
      </trkpt>
      <trkpt lat="46.66867" lon="5.33307">
        <ele>213.6</ele>
        <time>2022-05-18T13:26:35Z</time>
      </trkpt>
      <trkpt lat="46.66887" lon="5.33345">
        <ele>214.4</ele>
        <time>2022-05-18T13:26:41Z</time>
      </trkpt>
      <trkpt lat="46.66893" lon="5.33356">
        <ele>214.6</ele>
        <time>2022-05-18T13:26:43Z</time>
      </trkpt>
      <trkpt lat="46.6692" lon="5.33406">
        <ele>215.8</ele>
        <time>2022-05-18T13:26:51Z</time>
      </trkpt>
      <trkpt lat="46.66924" lon="5.33413">
        <ele>215.8</ele>
        <time>2022-05-18T13:26:52Z</time>
      </trkpt>
      <trkpt lat="46.66931" lon="5.33426">
        <ele>216</ele>
        <time>2022-05-18T13:26:54Z</time>
      </trkpt>
      <trkpt lat="46.66944" lon="5.33454">
        <ele>216.2</ele>
        <time>2022-05-18T13:26:58Z</time>
      </trkpt>
      <trkpt lat="46.66977" lon="5.33517">
        <ele>216.8</ele>
        <time>2022-05-18T13:27:07Z</time>
      </trkpt>
      <trkpt lat="46.66985" lon="5.33531">
        <ele>217</ele>
        <time>2022-05-18T13:27:09Z</time>
      </trkpt>
      <trkpt lat="46.67017" lon="5.33594">
        <ele>217.4</ele>
        <time>2022-05-18T13:27:18Z</time>
      </trkpt>
      <trkpt lat="46.67024" lon="5.33609">
        <ele>217.4</ele>
        <time>2022-05-18T13:27:20Z</time>
      </trkpt>
      <trkpt lat="46.67042" lon="5.33656">
        <ele>217.8</ele>
        <time>2022-05-18T13:27:26Z</time>
      </trkpt>
      <trkpt lat="46.67045" lon="5.33664">
        <ele>217.8</ele>
        <time>2022-05-18T13:27:27Z</time>
      </trkpt>
      <trkpt lat="46.67061" lon="5.33706">
        <ele>217.8</ele>
        <time>2022-05-18T13:27:32Z</time>
      </trkpt>
      <trkpt lat="46.67081" lon="5.33763">
        <ele>217.8</ele>
        <time>2022-05-18T13:27:39Z</time>
      </trkpt>
      <trkpt lat="46.67095" lon="5.33802">
        <ele>217.8</ele>
        <time>2022-05-18T13:27:45Z</time>
      </trkpt>
      <trkpt lat="46.67103" lon="5.33824">
        <ele>217.8</ele>
        <time>2022-05-18T13:27:50Z</time>
      </trkpt>
      <trkpt lat="46.67106" lon="5.33832">
        <ele>217.8</ele>
        <time>2022-05-18T13:27:54Z</time>
      </trkpt>
      <trkpt lat="46.67106" lon="5.33832">
        <ele>217.8</ele>
        <time>2022-05-18T13:27:55Z</time>
      </trkpt>
      <trkpt lat="46.67106" lon="5.33832">
        <ele>218</ele>
        <time>2022-05-18T13:27:57Z</time>
      </trkpt>
      <trkpt lat="46.67107" lon="5.33835">
        <ele>217.2</ele>
        <time>2022-05-18T13:28:18Z</time>
      </trkpt>
      <trkpt lat="46.67108" lon="5.33838">
        <ele>217.2</ele>
        <time>2022-05-18T13:28:19Z</time>
      </trkpt>
      <trkpt lat="46.67116" lon="5.33862">
        <ele>217.2</ele>
        <time>2022-05-18T13:28:24Z</time>
      </trkpt>
      <trkpt lat="46.67119" lon="5.33869">
        <ele>217.2</ele>
        <time>2022-05-18T13:28:25Z</time>
      </trkpt>
      <trkpt lat="46.67131" lon="5.33902">
        <ele>217.2</ele>
        <time>2022-05-18T13:28:29Z</time>
      </trkpt>
      <trkpt lat="46.6715" lon="5.33957">
        <ele>217.4</ele>
        <time>2022-05-18T13:28:35Z</time>
      </trkpt>
      <trkpt lat="46.67177" lon="5.34031">
        <ele>218.2</ele>
        <time>2022-05-18T13:28:43Z</time>
      </trkpt>
      <trkpt lat="46.67184" lon="5.34049">
        <ele>218</ele>
        <time>2022-05-18T13:28:45Z</time>
      </trkpt>
      <trkpt lat="46.67211" lon="5.34123">
        <ele>217.2</ele>
        <time>2022-05-18T13:28:53Z</time>
      </trkpt>
      <trkpt lat="46.67221" lon="5.3415">
        <ele>217.2</ele>
        <time>2022-05-18T13:28:56Z</time>
      </trkpt>
      <trkpt lat="46.67249" lon="5.34225">
        <ele>217.4</ele>
        <time>2022-05-18T13:29:05Z</time>
      </trkpt>
      <trkpt lat="46.67275" lon="5.34299">
        <ele>218.2</ele>
        <time>2022-05-18T13:29:14Z</time>
      </trkpt>
      <trkpt lat="46.67278" lon="5.34307">
        <ele>218.2</ele>
        <time>2022-05-18T13:29:15Z</time>
      </trkpt>
      <trkpt lat="46.67304" lon="5.34377">
        <ele>218.4</ele>
        <time>2022-05-18T13:29:23Z</time>
      </trkpt>
      <trkpt lat="46.67308" lon="5.34386">
        <ele>218.4</ele>
        <time>2022-05-18T13:29:24Z</time>
      </trkpt>
      <trkpt lat="46.67336" lon="5.34464">
        <ele>218.6</ele>
        <time>2022-05-18T13:29:32Z</time>
      </trkpt>
      <trkpt lat="46.6734" lon="5.34474">
        <ele>218.6</ele>
        <time>2022-05-18T13:29:33Z</time>
      </trkpt>
      <trkpt lat="46.67362" lon="5.34535">
        <ele>218.6</ele>
        <time>2022-05-18T13:29:39Z</time>
      </trkpt>
      <trkpt lat="46.67373" lon="5.34565">
        <ele>218.4</ele>
        <time>2022-05-18T13:29:42Z</time>
      </trkpt>
      <trkpt lat="46.67401" lon="5.34642">
        <ele>218.6</ele>
        <time>2022-05-18T13:29:50Z</time>
      </trkpt>
      <trkpt lat="46.67405" lon="5.3465">
        <ele>218.6</ele>
        <time>2022-05-18T13:29:51Z</time>
      </trkpt>
      <trkpt lat="46.67413" lon="5.34667">
        <ele>218.8</ele>
        <time>2022-05-18T13:29:53Z</time>
      </trkpt>
      <trkpt lat="46.67427" lon="5.34688">
        <ele>219</ele>
        <time>2022-05-18T13:29:56Z</time>
      </trkpt>
      <trkpt lat="46.67437" lon="5.34701">
        <ele>219.4</ele>
        <time>2022-05-18T13:29:58Z</time>
      </trkpt>
      <trkpt lat="46.67458" lon="5.34726">
        <ele>219.6</ele>
        <time>2022-05-18T13:30:02Z</time>
      </trkpt>
      <trkpt lat="46.67505" lon="5.3478">
        <ele>219.8</ele>
        <time>2022-05-18T13:30:11Z</time>
      </trkpt>
      <trkpt lat="46.6751" lon="5.34786">
        <ele>219.6</ele>
        <time>2022-05-18T13:30:12Z</time>
      </trkpt>
      <trkpt lat="46.67554" lon="5.34836">
        <ele>219.8</ele>
        <time>2022-05-18T13:30:20Z</time>
      </trkpt>
      <trkpt lat="46.6756" lon="5.34842">
        <ele>219.8</ele>
        <time>2022-05-18T13:30:21Z</time>
      </trkpt>
      <trkpt lat="46.67602" lon="5.34893">
        <ele>219</ele>
        <time>2022-05-18T13:30:29Z</time>
      </trkpt>
      <trkpt lat="46.67638" lon="5.34937">
        <ele>219</ele>
        <time>2022-05-18T13:30:36Z</time>
      </trkpt>
      <trkpt lat="46.67665" lon="5.34991">
        <ele>219.4</ele>
        <time>2022-05-18T13:30:43Z</time>
      </trkpt>
      <trkpt lat="46.6769" lon="5.35068">
        <ele>220.2</ele>
        <time>2022-05-18T13:30:52Z</time>
      </trkpt>
      <trkpt lat="46.67692" lon="5.35076">
        <ele>220.2</ele>
        <time>2022-05-18T13:30:53Z</time>
      </trkpt>
      <trkpt lat="46.67709" lon="5.35127">
        <ele>220.4</ele>
        <time>2022-05-18T13:30:59Z</time>
      </trkpt>
      <trkpt lat="46.67724" lon="5.35175">
        <ele>221.2</ele>
        <time>2022-05-18T13:31:05Z</time>
      </trkpt>
      <trkpt lat="46.67736" lon="5.35214">
        <ele>220.4</ele>
        <time>2022-05-18T13:31:10Z</time>
      </trkpt>
      <trkpt lat="46.67754" lon="5.35271">
        <ele>220.2</ele>
        <time>2022-05-18T13:31:17Z</time>
      </trkpt>
      <trkpt lat="46.67779" lon="5.35347">
        <ele>220.4</ele>
        <time>2022-05-18T13:31:26Z</time>
      </trkpt>
      <trkpt lat="46.67784" lon="5.35363">
        <ele>220.4</ele>
        <time>2022-05-18T13:31:28Z</time>
      </trkpt>
      <trkpt lat="46.67806" lon="5.3543">
        <ele>220.4</ele>
        <time>2022-05-18T13:31:36Z</time>
      </trkpt>
      <trkpt lat="46.6783" lon="5.35506">
        <ele>220.6</ele>
        <time>2022-05-18T13:31:45Z</time>
      </trkpt>
      <trkpt lat="46.67855" lon="5.35582">
        <ele>221</ele>
        <time>2022-05-18T13:31:54Z</time>
      </trkpt>
      <trkpt lat="46.67878" lon="5.35649">
        <ele>221</ele>
        <time>2022-05-18T13:32:02Z</time>
      </trkpt>
      <trkpt lat="46.67906" lon="5.35711">
        <ele>221.2</ele>
        <time>2022-05-18T13:32:10Z</time>
      </trkpt>
      <trkpt lat="46.67945" lon="5.35776">
        <ele>221.4</ele>
        <time>2022-05-18T13:32:19Z</time>
      </trkpt>
      <trkpt lat="46.6795" lon="5.35784">
        <ele>221.4</ele>
        <time>2022-05-18T13:32:20Z</time>
      </trkpt>
      <trkpt lat="46.67969" lon="5.35815">
        <ele>221.6</ele>
        <time>2022-05-18T13:32:24Z</time>
      </trkpt>
      <trkpt lat="46.67993" lon="5.35854">
        <ele>221.4</ele>
        <time>2022-05-18T13:32:29Z</time>
      </trkpt>
      <trkpt lat="46.68017" lon="5.35894">
        <ele>220.6</ele>
        <time>2022-05-18T13:32:34Z</time>
      </trkpt>
      <trkpt lat="46.68034" lon="5.35923">
        <ele>220.4</ele>
        <time>2022-05-18T13:32:38Z</time>
      </trkpt>
      <trkpt lat="46.68061" lon="5.35961">
        <ele>220.4</ele>
        <time>2022-05-18T13:32:44Z</time>
      </trkpt>
      <trkpt lat="46.68066" lon="5.35967">
        <ele>220.4</ele>
        <time>2022-05-18T13:32:45Z</time>
      </trkpt>
      <trkpt lat="46.68087" lon="5.35985">
        <ele>220.6</ele>
        <time>2022-05-18T13:32:49Z</time>
      </trkpt>
      <trkpt lat="46.68141" lon="5.36014">
        <ele>220.8</ele>
        <time>2022-05-18T13:32:58Z</time>
      </trkpt>
      <trkpt lat="46.68147" lon="5.36017">
        <ele>220.8</ele>
        <time>2022-05-18T13:32:59Z</time>
      </trkpt>
      <trkpt lat="46.68203" lon="5.36043">
        <ele>220.8</ele>
        <time>2022-05-18T13:33:08Z</time>
      </trkpt>
      <trkpt lat="46.68234" lon="5.36059">
        <ele>220.8</ele>
        <time>2022-05-18T13:33:13Z</time>
      </trkpt>
      <trkpt lat="46.68272" lon="5.36077">
        <ele>220.8</ele>
        <time>2022-05-18T13:33:19Z</time>
      </trkpt>
      <trkpt lat="46.68328" lon="5.36106">
        <ele>220.8</ele>
        <time>2022-05-18T13:33:28Z</time>
      </trkpt>
      <trkpt lat="46.68371" lon="5.36131">
        <ele>220.6</ele>
        <time>2022-05-18T13:33:35Z</time>
      </trkpt>
      <trkpt lat="46.68377" lon="5.36135">
        <ele>220.6</ele>
        <time>2022-05-18T13:33:36Z</time>
      </trkpt>
      <trkpt lat="46.68417" lon="5.3617">
        <ele>220.6</ele>
        <time>2022-05-18T13:33:43Z</time>
      </trkpt>
      <trkpt lat="46.68463" lon="5.36212">
        <ele>220.8</ele>
        <time>2022-05-18T13:33:51Z</time>
      </trkpt>
      <trkpt lat="46.68469" lon="5.36217">
        <ele>220.8</ele>
        <time>2022-05-18T13:33:52Z</time>
      </trkpt>
      <trkpt lat="46.68515" lon="5.36258">
        <ele>220.6</ele>
        <time>2022-05-18T13:34:00Z</time>
      </trkpt>
      <trkpt lat="46.68562" lon="5.363">
        <ele>220.4</ele>
        <time>2022-05-18T13:34:08Z</time>
      </trkpt>
      <trkpt lat="46.68587" lon="5.36323">
        <ele>220.4</ele>
        <time>2022-05-18T13:34:12Z</time>
      </trkpt>
      <trkpt lat="46.68638" lon="5.36365">
        <ele>220.2</ele>
        <time>2022-05-18T13:34:20Z</time>
      </trkpt>
      <trkpt lat="46.68645" lon="5.3637">
        <ele>220.2</ele>
        <time>2022-05-18T13:34:21Z</time>
      </trkpt>
      <trkpt lat="46.68692" lon="5.3641">
        <ele>219.8</ele>
        <time>2022-05-18T13:34:28Z</time>
      </trkpt>
      <trkpt lat="46.68699" lon="5.36417">
        <ele>219.8</ele>
        <time>2022-05-18T13:34:29Z</time>
      </trkpt>
      <trkpt lat="46.68712" lon="5.3643">
        <ele>219.6</ele>
        <time>2022-05-18T13:34:31Z</time>
      </trkpt>
      <trkpt lat="46.68753" lon="5.3647">
        <ele>219</ele>
        <time>2022-05-18T13:34:37Z</time>
      </trkpt>
      <trkpt lat="46.68788" lon="5.365">
        <ele>218.6</ele>
        <time>2022-05-18T13:34:42Z</time>
      </trkpt>
      <trkpt lat="46.68809" lon="5.36517">
        <ele>218.2</ele>
        <time>2022-05-18T13:34:45Z</time>
      </trkpt>
      <trkpt lat="46.68849" lon="5.36554">
        <ele>217.4</ele>
        <time>2022-05-18T13:34:51Z</time>
      </trkpt>
      <trkpt lat="46.68855" lon="5.3656">
        <ele>217.4</ele>
        <time>2022-05-18T13:34:52Z</time>
      </trkpt>
      <trkpt lat="46.68876" lon="5.36579">
        <ele>217</ele>
        <time>2022-05-18T13:34:55Z</time>
      </trkpt>
      <trkpt lat="46.68912" lon="5.3661">
        <ele>216.2</ele>
        <time>2022-05-18T13:35:00Z</time>
      </trkpt>
      <trkpt lat="46.68947" lon="5.36647">
        <ele>215</ele>
        <time>2022-05-18T13:35:05Z</time>
      </trkpt>
      <trkpt lat="46.68961" lon="5.36663">
        <ele>214.6</ele>
        <time>2022-05-18T13:35:07Z</time>
      </trkpt>
      <trkpt lat="46.68975" lon="5.3668">
        <ele>213.6</ele>
        <time>2022-05-18T13:35:09Z</time>
      </trkpt>
      <trkpt lat="46.68996" lon="5.36705">
        <ele>212.6</ele>
        <time>2022-05-18T13:35:12Z</time>
      </trkpt>
      <trkpt lat="46.69011" lon="5.3672">
        <ele>212.2</ele>
        <time>2022-05-18T13:35:14Z</time>
      </trkpt>
      <trkpt lat="46.69018" lon="5.36729">
        <ele>211.4</ele>
        <time>2022-05-18T13:35:15Z</time>
      </trkpt>
      <trkpt lat="46.69039" lon="5.36754">
        <ele>210.8</ele>
        <time>2022-05-18T13:35:18Z</time>
      </trkpt>
      <trkpt lat="46.69044" lon="5.36764">
        <ele>210.2</ele>
        <time>2022-05-18T13:35:19Z</time>
      </trkpt>
      <trkpt lat="46.69047" lon="5.36775">
        <ele>210</ele>
        <time>2022-05-18T13:35:20Z</time>
      </trkpt>
      <trkpt lat="46.69049" lon="5.36824">
        <ele>209</ele>
        <time>2022-05-18T13:35:24Z</time>
      </trkpt>
      <trkpt lat="46.69053" lon="5.36906">
        <ele>208.6</ele>
        <time>2022-05-18T13:35:31Z</time>
      </trkpt>
      <trkpt lat="46.69053" lon="5.36917">
        <ele>208.6</ele>
        <time>2022-05-18T13:35:32Z</time>
      </trkpt>
      <trkpt lat="46.6906" lon="5.36971">
        <ele>209</ele>
        <time>2022-05-18T13:35:37Z</time>
      </trkpt>
      <trkpt lat="46.69063" lon="5.37023">
        <ele>209.6</ele>
        <time>2022-05-18T13:35:42Z</time>
      </trkpt>
      <trkpt lat="46.69063" lon="5.37033">
        <ele>210</ele>
        <time>2022-05-18T13:35:43Z</time>
      </trkpt>
      <trkpt lat="46.69059" lon="5.3711">
        <ele>211</ele>
        <time>2022-05-18T13:35:51Z</time>
      </trkpt>
      <trkpt lat="46.69059" lon="5.37119">
        <ele>211.2</ele>
        <time>2022-05-18T13:35:52Z</time>
      </trkpt>
      <trkpt lat="46.69058" lon="5.37137">
        <ele>211.4</ele>
        <time>2022-05-18T13:35:54Z</time>
      </trkpt>
      <trkpt lat="46.69057" lon="5.37145">
        <ele>211.4</ele>
        <time>2022-05-18T13:35:55Z</time>
      </trkpt>
      <trkpt lat="46.69054" lon="5.37197">
        <ele>212.2</ele>
        <time>2022-05-18T13:36:01Z</time>
      </trkpt>
      <trkpt lat="46.69053" lon="5.37206">
        <ele>212.2</ele>
        <time>2022-05-18T13:36:02Z</time>
      </trkpt>
      <trkpt lat="46.69045" lon="5.37257">
        <ele>213</ele>
        <time>2022-05-18T13:36:08Z</time>
      </trkpt>
      <trkpt lat="46.69029" lon="5.37297">
        <ele>213.4</ele>
        <time>2022-05-18T13:36:13Z</time>
      </trkpt>
      <trkpt lat="46.69025" lon="5.37304">
        <ele>213.4</ele>
        <time>2022-05-18T13:36:14Z</time>
      </trkpt>
      <trkpt lat="46.68988" lon="5.37353">
        <ele>214.2</ele>
        <time>2022-05-18T13:36:22Z</time>
      </trkpt>
      <trkpt lat="46.68975" lon="5.37368">
        <ele>214.6</ele>
        <time>2022-05-18T13:36:25Z</time>
      </trkpt>
      <trkpt lat="46.68953" lon="5.37391">
        <ele>215.8</ele>
        <time>2022-05-18T13:36:30Z</time>
      </trkpt>
      <trkpt lat="46.68923" lon="5.37423">
        <ele>216.8</ele>
        <time>2022-05-18T13:36:37Z</time>
      </trkpt>
      <trkpt lat="46.6892" lon="5.37427">
        <ele>217</ele>
        <time>2022-05-18T13:36:38Z</time>
      </trkpt>
      <trkpt lat="46.68906" lon="5.37443">
        <ele>217.4</ele>
        <time>2022-05-18T13:36:42Z</time>
      </trkpt>
      <trkpt lat="46.68902" lon="5.37447">
        <ele>218</ele>
        <time>2022-05-18T13:36:43Z</time>
      </trkpt>
      <trkpt lat="46.68884" lon="5.37462">
        <ele>219.2</ele>
        <time>2022-05-18T13:36:47Z</time>
      </trkpt>
      <trkpt lat="46.68876" lon="5.3747">
        <ele>219.4</ele>
        <time>2022-05-18T13:36:49Z</time>
      </trkpt>
      <trkpt lat="46.68858" lon="5.37485">
        <ele>220</ele>
        <time>2022-05-18T13:36:53Z</time>
      </trkpt>
      <trkpt lat="46.68853" lon="5.37489">
        <ele>220.2</ele>
        <time>2022-05-18T13:36:54Z</time>
      </trkpt>
      <trkpt lat="46.68849" lon="5.37494">
        <ele>220.4</ele>
        <time>2022-05-18T13:36:55Z</time>
      </trkpt>
      <trkpt lat="46.68826" lon="5.37517">
        <ele>221.2</ele>
        <time>2022-05-18T13:37:00Z</time>
      </trkpt>
      <trkpt lat="46.68817" lon="5.37527">
        <ele>221.4</ele>
        <time>2022-05-18T13:37:02Z</time>
      </trkpt>
      <trkpt lat="46.68782" lon="5.37563">
        <ele>222</ele>
        <time>2022-05-18T13:37:09Z</time>
      </trkpt>
      <trkpt lat="46.68737" lon="5.37611">
        <ele>222.2</ele>
        <time>2022-05-18T13:37:17Z</time>
      </trkpt>
      <trkpt lat="46.68693" lon="5.37657">
        <ele>222.2</ele>
        <time>2022-05-18T13:37:24Z</time>
      </trkpt>
      <trkpt lat="46.68652" lon="5.377">
        <ele>222</ele>
        <time>2022-05-18T13:37:31Z</time>
      </trkpt>
      <trkpt lat="46.68621" lon="5.37732">
        <ele>222.4</ele>
        <time>2022-05-18T13:37:37Z</time>
      </trkpt>
      <trkpt lat="46.68616" lon="5.37737">
        <ele>222.6</ele>
        <time>2022-05-18T13:37:38Z</time>
      </trkpt>
      <trkpt lat="46.68586" lon="5.37769">
        <ele>223.4</ele>
        <time>2022-05-18T13:37:44Z</time>
      </trkpt>
      <trkpt lat="46.6857" lon="5.37785">
        <ele>223.6</ele>
        <time>2022-05-18T13:37:47Z</time>
      </trkpt>
      <trkpt lat="46.68526" lon="5.37832">
        <ele>224.2</ele>
        <time>2022-05-18T13:37:55Z</time>
      </trkpt>
      <trkpt lat="46.6852" lon="5.37838">
        <ele>224.2</ele>
        <time>2022-05-18T13:37:56Z</time>
      </trkpt>
      <trkpt lat="46.68474" lon="5.37885">
        <ele>224</ele>
        <time>2022-05-18T13:38:04Z</time>
      </trkpt>
      <trkpt lat="46.68437" lon="5.37923">
        <ele>223.8</ele>
        <time>2022-05-18T13:38:10Z</time>
      </trkpt>
      <trkpt lat="46.68431" lon="5.3793">
        <ele>223.8</ele>
        <time>2022-05-18T13:38:11Z</time>
      </trkpt>
      <trkpt lat="46.68386" lon="5.37978">
        <ele>223</ele>
        <time>2022-05-18T13:38:18Z</time>
      </trkpt>
      <trkpt lat="46.68348" lon="5.38018">
        <ele>222.4</ele>
        <time>2022-05-18T13:38:24Z</time>
      </trkpt>
      <trkpt lat="46.68328" lon="5.38038">
        <ele>222</ele>
        <time>2022-05-18T13:38:27Z</time>
      </trkpt>
      <trkpt lat="46.68306" lon="5.38061">
        <ele>221.4</ele>
        <time>2022-05-18T13:38:30Z</time>
      </trkpt>
      <trkpt lat="46.68276" lon="5.38092">
        <ele>220.2</ele>
        <time>2022-05-18T13:38:34Z</time>
      </trkpt>
      <trkpt lat="46.68247" lon="5.38122">
        <ele>219</ele>
        <time>2022-05-18T13:38:38Z</time>
      </trkpt>
      <trkpt lat="46.68219" lon="5.38151">
        <ele>218.8</ele>
        <time>2022-05-18T13:38:42Z</time>
      </trkpt>
      <trkpt lat="46.68206" lon="5.38165">
        <ele>218.8</ele>
        <time>2022-05-18T13:38:44Z</time>
      </trkpt>
      <trkpt lat="46.68181" lon="5.38188">
        <ele>218.6</ele>
        <time>2022-05-18T13:38:48Z</time>
      </trkpt>
      <trkpt lat="46.68147" lon="5.38223">
        <ele>219</ele>
        <time>2022-05-18T13:38:54Z</time>
      </trkpt>
      <trkpt lat="46.68115" lon="5.38257">
        <ele>220.2</ele>
        <time>2022-05-18T13:39:00Z</time>
      </trkpt>
      <trkpt lat="46.68105" lon="5.38269">
        <ele>220.6</ele>
        <time>2022-05-18T13:39:02Z</time>
      </trkpt>
      <trkpt lat="46.68094" lon="5.3828">
        <ele>221.2</ele>
        <time>2022-05-18T13:39:04Z</time>
      </trkpt>
      <trkpt lat="46.68062" lon="5.38312">
        <ele>222.2</ele>
        <time>2022-05-18T13:39:10Z</time>
      </trkpt>
      <trkpt lat="46.68056" lon="5.38318">
        <ele>222.2</ele>
        <time>2022-05-18T13:39:11Z</time>
      </trkpt>
      <trkpt lat="46.6803" lon="5.38344">
        <ele>223.4</ele>
        <time>2022-05-18T13:39:16Z</time>
      </trkpt>
      <trkpt lat="46.68013" lon="5.38361">
        <ele>223.8</ele>
        <time>2022-05-18T13:39:19Z</time>
      </trkpt>
      <trkpt lat="46.68002" lon="5.38372">
        <ele>224.4</ele>
        <time>2022-05-18T13:39:21Z</time>
      </trkpt>
      <trkpt lat="46.67962" lon="5.38413">
        <ele>225.4</ele>
        <time>2022-05-18T13:39:28Z</time>
      </trkpt>
      <trkpt lat="46.67956" lon="5.38419">
        <ele>225.4</ele>
        <time>2022-05-18T13:39:29Z</time>
      </trkpt>
      <trkpt lat="46.67916" lon="5.38463">
        <ele>224.8</ele>
        <time>2022-05-18T13:39:36Z</time>
      </trkpt>
      <trkpt lat="46.6787" lon="5.3851">
        <ele>224.4</ele>
        <time>2022-05-18T13:39:44Z</time>
      </trkpt>
      <trkpt lat="46.67823" lon="5.38559">
        <ele>224.4</ele>
        <time>2022-05-18T13:39:52Z</time>
      </trkpt>
      <trkpt lat="46.67812" lon="5.38572">
        <ele>224.4</ele>
        <time>2022-05-18T13:39:54Z</time>
      </trkpt>
      <trkpt lat="46.67795" lon="5.3859">
        <ele>224.2</ele>
        <time>2022-05-18T13:39:57Z</time>
      </trkpt>
      <trkpt lat="46.67782" lon="5.38601">
        <ele>224.2</ele>
        <time>2022-05-18T13:39:59Z</time>
      </trkpt>
      <trkpt lat="46.67739" lon="5.38646">
        <ele>224.4</ele>
        <time>2022-05-18T13:40:06Z</time>
      </trkpt>
      <trkpt lat="46.67695" lon="5.38692">
        <ele>224.2</ele>
        <time>2022-05-18T13:40:13Z</time>
      </trkpt>
      <trkpt lat="46.6766" lon="5.3873">
        <ele>223.2</ele>
        <time>2022-05-18T13:40:18Z</time>
      </trkpt>
      <trkpt lat="46.67653" lon="5.38737">
        <ele>223.2</ele>
        <time>2022-05-18T13:40:19Z</time>
      </trkpt>
      <trkpt lat="46.67616" lon="5.38775">
        <ele>222.2</ele>
        <time>2022-05-18T13:40:24Z</time>
      </trkpt>
      <trkpt lat="46.67609" lon="5.38782">
        <ele>222</ele>
        <time>2022-05-18T13:40:25Z</time>
      </trkpt>
      <trkpt lat="46.67578" lon="5.38813">
        <ele>220.8</ele>
        <time>2022-05-18T13:40:29Z</time>
      </trkpt>
      <trkpt lat="46.67556" lon="5.38837">
        <ele>219.6</ele>
        <time>2022-05-18T13:40:32Z</time>
      </trkpt>
      <trkpt lat="46.67548" lon="5.38844">
        <ele>219.4</ele>
        <time>2022-05-18T13:40:33Z</time>
      </trkpt>
      <trkpt lat="46.67508" lon="5.38885">
        <ele>218.8</ele>
        <time>2022-05-18T13:40:39Z</time>
      </trkpt>
      <trkpt lat="46.67496" lon="5.38897">
        <ele>218.8</ele>
        <time>2022-05-18T13:40:41Z</time>
      </trkpt>
      <trkpt lat="46.67474" lon="5.38921">
        <ele>219.2</ele>
        <time>2022-05-18T13:40:45Z</time>
      </trkpt>
      <trkpt lat="46.67441" lon="5.38955">
        <ele>219.8</ele>
        <time>2022-05-18T13:40:51Z</time>
      </trkpt>
      <trkpt lat="46.67395" lon="5.39003">
        <ele>220</ele>
        <time>2022-05-18T13:40:59Z</time>
      </trkpt>
      <trkpt lat="46.67383" lon="5.39015">
        <ele>220</ele>
        <time>2022-05-18T13:41:01Z</time>
      </trkpt>
      <trkpt lat="46.67339" lon="5.3906">
        <ele>219.2</ele>
        <time>2022-05-18T13:41:09Z</time>
      </trkpt>
      <trkpt lat="46.67302" lon="5.391">
        <ele>219.6</ele>
        <time>2022-05-18T13:41:17Z</time>
      </trkpt>
      <trkpt lat="46.67288" lon="5.39114">
        <ele>220.6</ele>
        <time>2022-05-18T13:41:20Z</time>
      </trkpt>
      <trkpt lat="46.6727" lon="5.39133">
        <ele>221</ele>
        <time>2022-05-18T13:41:24Z</time>
      </trkpt>
      <trkpt lat="46.67253" lon="5.39151">
        <ele>222</ele>
        <time>2022-05-18T13:41:28Z</time>
      </trkpt>
      <trkpt lat="46.67227" lon="5.39178">
        <ele>223</ele>
        <time>2022-05-18T13:41:34Z</time>
      </trkpt>
      <trkpt lat="46.67189" lon="5.39216">
        <ele>223.6</ele>
        <time>2022-05-18T13:41:42Z</time>
      </trkpt>
      <trkpt lat="46.67184" lon="5.39219">
        <ele>223.6</ele>
        <time>2022-05-18T13:41:43Z</time>
      </trkpt>
      <trkpt lat="46.67173" lon="5.39221">
        <ele>223.6</ele>
        <time>2022-05-18T13:41:45Z</time>
      </trkpt>
      <trkpt lat="46.67163" lon="5.3922">
        <ele>223.4</ele>
        <time>2022-05-18T13:41:47Z</time>
      </trkpt>
      <trkpt lat="46.67155" lon="5.39227">
        <ele>223</ele>
        <time>2022-05-18T13:41:49Z</time>
      </trkpt>
      <trkpt lat="46.6715" lon="5.39244">
        <ele>222.8</ele>
        <time>2022-05-18T13:41:51Z</time>
      </trkpt>
      <trkpt lat="46.67149" lon="5.39254">
        <ele>222.6</ele>
        <time>2022-05-18T13:41:52Z</time>
      </trkpt>
      <trkpt lat="46.67144" lon="5.39308">
        <ele>221.8</ele>
        <time>2022-05-18T13:41:57Z</time>
      </trkpt>
      <trkpt lat="46.67138" lon="5.39367">
        <ele>220.8</ele>
        <time>2022-05-18T13:42:02Z</time>
      </trkpt>
      <trkpt lat="46.67136" lon="5.3938">
        <ele>220.6</ele>
        <time>2022-05-18T13:42:03Z</time>
      </trkpt>
      <trkpt lat="46.67132" lon="5.39419">
        <ele>219.8</ele>
        <time>2022-05-18T13:42:06Z</time>
      </trkpt>
      <trkpt lat="46.67128" lon="5.39457">
        <ele>218.8</ele>
        <time>2022-05-18T13:42:09Z</time>
      </trkpt>
      <trkpt lat="46.67127" lon="5.39469">
        <ele>218.4</ele>
        <time>2022-05-18T13:42:10Z</time>
      </trkpt>
      <trkpt lat="46.67119" lon="5.39551">
        <ele>217.8</ele>
        <time>2022-05-18T13:42:17Z</time>
      </trkpt>
      <trkpt lat="46.67117" lon="5.39573">
        <ele>217.6</ele>
        <time>2022-05-18T13:42:19Z</time>
      </trkpt>
      <trkpt lat="46.6711" lon="5.39647">
        <ele>218</ele>
        <time>2022-05-18T13:42:26Z</time>
      </trkpt>
      <trkpt lat="46.67105" lon="5.39702">
        <ele>219</ele>
        <time>2022-05-18T13:42:32Z</time>
      </trkpt>
      <trkpt lat="46.67099" lon="5.39754">
        <ele>220.2</ele>
        <time>2022-05-18T13:42:38Z</time>
      </trkpt>
      <trkpt lat="46.67096" lon="5.39784">
        <ele>221.2</ele>
        <time>2022-05-18T13:42:42Z</time>
      </trkpt>
      <trkpt lat="46.67094" lon="5.39806">
        <ele>222.6</ele>
        <time>2022-05-18T13:42:45Z</time>
      </trkpt>
      <trkpt lat="46.67089" lon="5.39842">
        <ele>223.8</ele>
        <time>2022-05-18T13:42:50Z</time>
      </trkpt>
      <trkpt lat="46.67088" lon="5.39857">
        <ele>224.6</ele>
        <time>2022-05-18T13:42:52Z</time>
      </trkpt>
      <trkpt lat="46.67087" lon="5.39872">
        <ele>225</ele>
        <time>2022-05-18T13:42:54Z</time>
      </trkpt>
      <trkpt lat="46.67081" lon="5.39925">
        <ele>226</ele>
        <time>2022-05-18T13:43:01Z</time>
      </trkpt>
      <trkpt lat="46.67081" lon="5.39932">
        <ele>226</ele>
        <time>2022-05-18T13:43:02Z</time>
      </trkpt>
      <trkpt lat="46.67074" lon="5.4001">
        <ele>226</ele>
        <time>2022-05-18T13:43:11Z</time>
      </trkpt>
      <trkpt lat="46.67069" lon="5.40086">
        <ele>225.4</ele>
        <time>2022-05-18T13:43:19Z</time>
      </trkpt>
      <trkpt lat="46.67066" lon="5.40105">
        <ele>225.2</ele>
        <time>2022-05-18T13:43:21Z</time>
      </trkpt>
      <trkpt lat="46.67062" lon="5.40112">
        <ele>225.2</ele>
        <time>2022-05-18T13:43:22Z</time>
      </trkpt>
      <trkpt lat="46.67057" lon="5.40118">
        <ele>225</ele>
        <time>2022-05-18T13:43:23Z</time>
      </trkpt>
      <trkpt lat="46.67052" lon="5.40122">
        <ele>225</ele>
        <time>2022-05-18T13:43:24Z</time>
      </trkpt>
      <trkpt lat="46.67046" lon="5.40125">
        <ele>224.8</ele>
        <time>2022-05-18T13:43:25Z</time>
      </trkpt>
      <trkpt lat="46.67023" lon="5.40126">
        <ele>224.4</ele>
        <time>2022-05-18T13:43:28Z</time>
      </trkpt>
      <trkpt lat="46.66968" lon="5.4012">
        <ele>224.2</ele>
        <time>2022-05-18T13:43:35Z</time>
      </trkpt>
      <trkpt lat="46.66914" lon="5.40108">
        <ele>224.4</ele>
        <time>2022-05-18T13:43:42Z</time>
      </trkpt>
      <trkpt lat="46.66875" lon="5.40108">
        <ele>224</ele>
        <time>2022-05-18T13:43:47Z</time>
      </trkpt>
      <trkpt lat="46.66852" lon="5.40113">
        <ele>224</ele>
        <time>2022-05-18T13:43:50Z</time>
      </trkpt>
      <trkpt lat="46.66837" lon="5.40111">
        <ele>223.8</ele>
        <time>2022-05-18T13:43:52Z</time>
      </trkpt>
      <trkpt lat="46.66829" lon="5.40108">
        <ele>223.6</ele>
        <time>2022-05-18T13:43:53Z</time>
      </trkpt>
      <trkpt lat="46.66809" lon="5.40096">
        <ele>223.4</ele>
        <time>2022-05-18T13:43:56Z</time>
      </trkpt>
      <trkpt lat="46.66757" lon="5.4006">
        <ele>223.6</ele>
        <time>2022-05-18T13:44:04Z</time>
      </trkpt>
      <trkpt lat="46.66708" lon="5.40029">
        <ele>224.2</ele>
        <time>2022-05-18T13:44:12Z</time>
      </trkpt>
      <trkpt lat="46.66672" lon="5.40011">
        <ele>224.6</ele>
        <time>2022-05-18T13:44:18Z</time>
      </trkpt>
      <trkpt lat="46.66658" lon="5.40008">
        <ele>224.8</ele>
        <time>2022-05-18T13:44:20Z</time>
      </trkpt>
      <trkpt lat="46.66629" lon="5.39999">
        <ele>225</ele>
        <time>2022-05-18T13:44:24Z</time>
      </trkpt>
      <trkpt lat="46.66606" lon="5.39989">
        <ele>224.4</ele>
        <time>2022-05-18T13:44:27Z</time>
      </trkpt>
      <trkpt lat="46.66592" lon="5.39978">
        <ele>224.2</ele>
        <time>2022-05-18T13:44:29Z</time>
      </trkpt>
      <trkpt lat="46.66558" lon="5.39941">
        <ele>223.8</ele>
        <time>2022-05-18T13:44:34Z</time>
      </trkpt>
      <trkpt lat="46.66551" lon="5.39933">
        <ele>223.8</ele>
        <time>2022-05-18T13:44:35Z</time>
      </trkpt>
      <trkpt lat="46.6651" lon="5.39899">
        <ele>223.2</ele>
        <time>2022-05-18T13:44:40Z</time>
      </trkpt>
      <trkpt lat="46.66494" lon="5.39887">
        <ele>222.6</ele>
        <time>2022-05-18T13:44:42Z</time>
      </trkpt>
      <trkpt lat="46.66463" lon="5.39866">
        <ele>221.8</ele>
        <time>2022-05-18T13:44:46Z</time>
      </trkpt>
      <trkpt lat="46.66456" lon="5.39862">
        <ele>221.8</ele>
        <time>2022-05-18T13:44:47Z</time>
      </trkpt>
      <trkpt lat="46.66442" lon="5.39856">
        <ele>221.6</ele>
        <time>2022-05-18T13:44:49Z</time>
      </trkpt>
      <trkpt lat="46.66429" lon="5.39849">
        <ele>221.6</ele>
        <time>2022-05-18T13:44:51Z</time>
      </trkpt>
      <trkpt lat="46.66412" lon="5.39837">
        <ele>221.8</ele>
        <time>2022-05-18T13:44:54Z</time>
      </trkpt>
      <trkpt lat="46.66403" lon="5.39827">
        <ele>222.4</ele>
        <time>2022-05-18T13:44:56Z</time>
      </trkpt>
      <trkpt lat="46.66394" lon="5.39818">
        <ele>222.6</ele>
        <time>2022-05-18T13:44:58Z</time>
      </trkpt>
      <trkpt lat="46.6639" lon="5.39812">
        <ele>222.6</ele>
        <time>2022-05-18T13:44:59Z</time>
      </trkpt>
      <trkpt lat="46.66381" lon="5.39797">
        <ele>223</ele>
        <time>2022-05-18T13:45:01Z</time>
      </trkpt>
      <trkpt lat="46.66367" lon="5.39764">
        <ele>223.6</ele>
        <time>2022-05-18T13:45:04Z</time>
      </trkpt>
      <trkpt lat="46.66363" lon="5.39753">
        <ele>223.6</ele>
        <time>2022-05-18T13:45:05Z</time>
      </trkpt>
      <trkpt lat="46.66358" lon="5.39743">
        <ele>223.6</ele>
        <time>2022-05-18T13:45:06Z</time>
      </trkpt>
      <trkpt lat="46.66341" lon="5.39715">
        <ele>223.4</ele>
        <time>2022-05-18T13:45:09Z</time>
      </trkpt>
      <trkpt lat="46.66329" lon="5.39698">
        <ele>223.4</ele>
        <time>2022-05-18T13:45:11Z</time>
      </trkpt>
      <trkpt lat="46.66314" lon="5.39684">
        <ele>223</ele>
        <time>2022-05-18T13:45:13Z</time>
      </trkpt>
      <trkpt lat="46.66298" lon="5.39674">
        <ele>222.6</ele>
        <time>2022-05-18T13:45:15Z</time>
      </trkpt>
      <trkpt lat="46.66281" lon="5.39668">
        <ele>222.4</ele>
        <time>2022-05-18T13:45:17Z</time>
      </trkpt>
      <trkpt lat="46.66243" lon="5.39667">
        <ele>221.4</ele>
        <time>2022-05-18T13:45:21Z</time>
      </trkpt>
      <trkpt lat="46.66234" lon="5.39668">
        <ele>221.2</ele>
        <time>2022-05-18T13:45:22Z</time>
      </trkpt>
      <trkpt lat="46.66217" lon="5.3967">
        <ele>220.4</ele>
        <time>2022-05-18T13:45:24Z</time>
      </trkpt>
      <trkpt lat="46.66188" lon="5.39675">
        <ele>220</ele>
        <time>2022-05-18T13:45:27Z</time>
      </trkpt>
      <trkpt lat="46.66172" lon="5.39683">
        <ele>219.6</ele>
        <time>2022-05-18T13:45:29Z</time>
      </trkpt>
      <trkpt lat="46.66162" lon="5.39688">
        <ele>219.2</ele>
        <time>2022-05-18T13:45:30Z</time>
      </trkpt>
      <trkpt lat="46.66118" lon="5.39711">
        <ele>218.2</ele>
        <time>2022-05-18T13:45:35Z</time>
      </trkpt>
      <trkpt lat="46.66107" lon="5.39717">
        <ele>218</ele>
        <time>2022-05-18T13:45:36Z</time>
      </trkpt>
      <trkpt lat="46.66078" lon="5.39733">
        <ele>217</ele>
        <time>2022-05-18T13:45:39Z</time>
      </trkpt>
      <trkpt lat="46.66059" lon="5.39744">
        <ele>215.8</ele>
        <time>2022-05-18T13:45:41Z</time>
      </trkpt>
      <trkpt lat="46.66028" lon="5.39759">
        <ele>214.8</ele>
        <time>2022-05-18T13:45:44Z</time>
      </trkpt>
      <trkpt lat="46.6602" lon="5.39762">
        <ele>214</ele>
        <time>2022-05-18T13:45:45Z</time>
      </trkpt>
      <trkpt lat="46.66009" lon="5.39763">
        <ele>213.6</ele>
        <time>2022-05-18T13:45:46Z</time>
      </trkpt>
      <trkpt lat="46.65998" lon="5.39763">
        <ele>213</ele>
        <time>2022-05-18T13:45:47Z</time>
      </trkpt>
      <trkpt lat="46.65988" lon="5.39762">
        <ele>212.6</ele>
        <time>2022-05-18T13:45:48Z</time>
      </trkpt>
      <trkpt lat="46.65975" lon="5.39763">
        <ele>212</ele>
        <time>2022-05-18T13:45:49Z</time>
      </trkpt>
      <trkpt lat="46.65959" lon="5.39769">
        <ele>211.6</ele>
        <time>2022-05-18T13:45:51Z</time>
      </trkpt>
      <trkpt lat="46.65916" lon="5.39799">
        <ele>211.4</ele>
        <time>2022-05-18T13:45:56Z</time>
      </trkpt>
      <trkpt lat="46.65878" lon="5.39811">
        <ele>211.6</ele>
        <time>2022-05-18T13:46:01Z</time>
      </trkpt>
      <trkpt lat="46.65845" lon="5.39812">
        <ele>212.8</ele>
        <time>2022-05-18T13:46:06Z</time>
      </trkpt>
      <trkpt lat="46.65826" lon="5.39811">
        <ele>214</ele>
        <time>2022-05-18T13:46:09Z</time>
      </trkpt>
      <trkpt lat="46.65807" lon="5.39807">
        <ele>214.8</ele>
        <time>2022-05-18T13:46:12Z</time>
      </trkpt>
      <trkpt lat="46.65801" lon="5.39806">
        <ele>215</ele>
        <time>2022-05-18T13:46:13Z</time>
      </trkpt>
      <trkpt lat="46.65768" lon="5.39794">
        <ele>216.2</ele>
        <time>2022-05-18T13:46:19Z</time>
      </trkpt>
      <trkpt lat="46.65733" lon="5.39776">
        <ele>217.2</ele>
        <time>2022-05-18T13:46:26Z</time>
      </trkpt>
      <trkpt lat="46.65707" lon="5.39764">
        <ele>218.4</ele>
        <time>2022-05-18T13:46:31Z</time>
      </trkpt>
      <trkpt lat="46.65702" lon="5.39763">
        <ele>218.6</ele>
        <time>2022-05-18T13:46:32Z</time>
      </trkpt>
      <trkpt lat="46.65695" lon="5.39763">
        <ele>219</ele>
        <time>2022-05-18T13:46:33Z</time>
      </trkpt>
      <trkpt lat="46.6569" lon="5.39764">
        <ele>219.4</ele>
        <time>2022-05-18T13:46:34Z</time>
      </trkpt>
      <trkpt lat="46.65686" lon="5.39766">
        <ele>219.6</ele>
        <time>2022-05-18T13:46:35Z</time>
      </trkpt>
      <trkpt lat="46.6568" lon="5.39769">
        <ele>219.8</ele>
        <time>2022-05-18T13:46:36Z</time>
      </trkpt>
      <trkpt lat="46.65676" lon="5.39773">
        <ele>219.8</ele>
        <time>2022-05-18T13:46:37Z</time>
      </trkpt>
      <trkpt lat="46.65672" lon="5.39777">
        <ele>220</ele>
        <time>2022-05-18T13:46:38Z</time>
      </trkpt>
      <trkpt lat="46.65665" lon="5.3979">
        <ele>220.2</ele>
        <time>2022-05-18T13:46:40Z</time>
      </trkpt>
      <trkpt lat="46.65662" lon="5.39796">
        <ele>220.2</ele>
        <time>2022-05-18T13:46:41Z</time>
      </trkpt>
      <trkpt lat="46.6565" lon="5.39835">
        <ele>220.6</ele>
        <time>2022-05-18T13:46:46Z</time>
      </trkpt>
      <trkpt lat="46.65646" lon="5.39849">
        <ele>220.8</ele>
        <time>2022-05-18T13:46:48Z</time>
      </trkpt>
      <trkpt lat="46.6563" lon="5.39901">
        <ele>221.4</ele>
        <time>2022-05-18T13:46:55Z</time>
      </trkpt>
      <trkpt lat="46.65626" lon="5.39915">
        <ele>221.6</ele>
        <time>2022-05-18T13:46:57Z</time>
      </trkpt>
      <trkpt lat="46.65613" lon="5.39957">
        <ele>222</ele>
        <time>2022-05-18T13:47:03Z</time>
      </trkpt>
      <trkpt lat="46.65602" lon="5.39985">
        <ele>222.6</ele>
        <time>2022-05-18T13:47:07Z</time>
      </trkpt>
      <trkpt lat="46.65594" lon="5.40008">
        <ele>223.2</ele>
        <time>2022-05-18T13:47:10Z</time>
      </trkpt>
      <trkpt lat="46.65574" lon="5.40057">
        <ele>223.2</ele>
        <time>2022-05-18T13:47:16Z</time>
      </trkpt>
      <trkpt lat="46.65559" lon="5.40106">
        <ele>223.2</ele>
        <time>2022-05-18T13:47:21Z</time>
      </trkpt>
      <trkpt lat="46.65544" lon="5.40179">
        <ele>223.2</ele>
        <time>2022-05-18T13:47:28Z</time>
      </trkpt>
      <trkpt lat="46.65528" lon="5.40235">
        <ele>223</ele>
        <time>2022-05-18T13:47:33Z</time>
      </trkpt>
      <trkpt lat="46.65515" lon="5.40256">
        <ele>222.6</ele>
        <time>2022-05-18T13:47:35Z</time>
      </trkpt>
      <trkpt lat="46.65501" lon="5.40274">
        <ele>222.2</ele>
        <time>2022-05-18T13:47:37Z</time>
      </trkpt>
      <trkpt lat="46.65486" lon="5.40293">
        <ele>221.6</ele>
        <time>2022-05-18T13:47:39Z</time>
      </trkpt>
      <trkpt lat="46.65462" lon="5.40323">
        <ele>220.2</ele>
        <time>2022-05-18T13:47:42Z</time>
      </trkpt>
      <trkpt lat="46.65454" lon="5.40334">
        <ele>219.4</ele>
        <time>2022-05-18T13:47:43Z</time>
      </trkpt>
      <trkpt lat="46.65446" lon="5.40345">
        <ele>218.4</ele>
        <time>2022-05-18T13:47:44Z</time>
      </trkpt>
      <trkpt lat="46.6543" lon="5.40366">
        <ele>217</ele>
        <time>2022-05-18T13:47:46Z</time>
      </trkpt>
      <trkpt lat="46.65414" lon="5.40388">
        <ele>215.8</ele>
        <time>2022-05-18T13:47:48Z</time>
      </trkpt>
      <trkpt lat="46.65391" lon="5.40421">
        <ele>214.4</ele>
        <time>2022-05-18T13:47:51Z</time>
      </trkpt>
      <trkpt lat="46.65369" lon="5.40454">
        <ele>213.2</ele>
        <time>2022-05-18T13:47:54Z</time>
      </trkpt>
      <trkpt lat="46.65349" lon="5.40484">
        <ele>212.8</ele>
        <time>2022-05-18T13:47:57Z</time>
      </trkpt>
      <trkpt lat="46.65314" lon="5.40539">
        <ele>212.4</ele>
        <time>2022-05-18T13:48:03Z</time>
      </trkpt>
      <trkpt lat="46.65308" lon="5.4055">
        <ele>212.4</ele>
        <time>2022-05-18T13:48:04Z</time>
      </trkpt>
      <trkpt lat="46.65296" lon="5.40583">
        <ele>212.2</ele>
        <time>2022-05-18T13:48:07Z</time>
      </trkpt>
      <trkpt lat="46.65277" lon="5.40649">
        <ele>211.6</ele>
        <time>2022-05-18T13:48:13Z</time>
      </trkpt>
      <trkpt lat="46.65256" lon="5.40708">
        <ele>211.2</ele>
        <time>2022-05-18T13:48:19Z</time>
      </trkpt>
      <trkpt lat="46.65233" lon="5.40752">
        <ele>212.4</ele>
        <time>2022-05-18T13:48:25Z</time>
      </trkpt>
      <trkpt lat="46.65205" lon="5.40795">
        <ele>213.4</ele>
        <time>2022-05-18T13:48:32Z</time>
      </trkpt>
      <trkpt lat="46.65189" lon="5.40819">
        <ele>214.6</ele>
        <time>2022-05-18T13:48:36Z</time>
      </trkpt>
      <trkpt lat="46.6517" lon="5.40847">
        <ele>215.6</ele>
        <time>2022-05-18T13:48:41Z</time>
      </trkpt>
      <trkpt lat="46.65159" lon="5.40863">
        <ele>216.2</ele>
        <time>2022-05-18T13:48:44Z</time>
      </trkpt>
      <trkpt lat="46.65148" lon="5.40879">
        <ele>216.8</ele>
        <time>2022-05-18T13:48:47Z</time>
      </trkpt>
      <trkpt lat="46.6513" lon="5.40907">
        <ele>217.8</ele>
        <time>2022-05-18T13:48:52Z</time>
      </trkpt>
      <trkpt lat="46.65116" lon="5.40928">
        <ele>219</ele>
        <time>2022-05-18T13:48:56Z</time>
      </trkpt>
      <trkpt lat="46.65098" lon="5.40954">
        <ele>220</ele>
        <time>2022-05-18T13:49:01Z</time>
      </trkpt>
      <trkpt lat="46.65087" lon="5.40971">
        <ele>220.6</ele>
        <time>2022-05-18T13:49:04Z</time>
      </trkpt>
      <trkpt lat="46.65075" lon="5.40987">
        <ele>221.2</ele>
        <time>2022-05-18T13:49:07Z</time>
      </trkpt>
      <trkpt lat="46.65044" lon="5.41023">
        <ele>221.8</ele>
        <time>2022-05-18T13:49:14Z</time>
      </trkpt>
      <trkpt lat="46.65006" lon="5.41054">
        <ele>222</ele>
        <time>2022-05-18T13:49:21Z</time>
      </trkpt>
      <trkpt lat="46.6497" lon="5.41079">
        <ele>222.2</ele>
        <time>2022-05-18T13:49:27Z</time>
      </trkpt>
      <trkpt lat="46.64953" lon="5.4109">
        <ele>222.4</ele>
        <time>2022-05-18T13:49:30Z</time>
      </trkpt>
      <trkpt lat="46.64913" lon="5.41117">
        <ele>223.2</ele>
        <time>2022-05-18T13:49:37Z</time>
      </trkpt>
      <trkpt lat="46.64907" lon="5.41121">
        <ele>223.4</ele>
        <time>2022-05-18T13:49:38Z</time>
      </trkpt>
      <trkpt lat="46.64879" lon="5.4114">
        <ele>224.4</ele>
        <time>2022-05-18T13:49:43Z</time>
      </trkpt>
      <trkpt lat="46.64868" lon="5.41147">
        <ele>224.6</ele>
        <time>2022-05-18T13:49:45Z</time>
      </trkpt>
      <trkpt lat="46.64838" lon="5.41166">
        <ele>225.4</ele>
        <time>2022-05-18T13:49:50Z</time>
      </trkpt>
      <trkpt lat="46.64791" lon="5.41199">
        <ele>225.6</ele>
        <time>2022-05-18T13:49:58Z</time>
      </trkpt>
      <trkpt lat="46.64779" lon="5.41208">
        <ele>225.8</ele>
        <time>2022-05-18T13:50:00Z</time>
      </trkpt>
      <trkpt lat="46.64738" lon="5.41232">
        <ele>226</ele>
        <time>2022-05-18T13:50:06Z</time>
      </trkpt>
      <trkpt lat="46.64693" lon="5.41264">
        <ele>226</ele>
        <time>2022-05-18T13:50:12Z</time>
      </trkpt>
      <trkpt lat="46.64644" lon="5.41297">
        <ele>225.4</ele>
        <time>2022-05-18T13:50:19Z</time>
      </trkpt>
      <trkpt lat="46.64594" lon="5.41329">
        <ele>226.4</ele>
        <time>2022-05-18T13:50:27Z</time>
      </trkpt>
      <trkpt lat="46.64568" lon="5.41348">
        <ele>226.8</ele>
        <time>2022-05-18T13:50:31Z</time>
      </trkpt>
      <trkpt lat="46.64547" lon="5.4136">
        <ele>226.8</ele>
        <time>2022-05-18T13:50:34Z</time>
      </trkpt>
      <trkpt lat="46.64499" lon="5.41394">
        <ele>226.8</ele>
        <time>2022-05-18T13:50:41Z</time>
      </trkpt>
      <trkpt lat="46.64443" lon="5.4143">
        <ele>226</ele>
        <time>2022-05-18T13:50:49Z</time>
      </trkpt>
      <trkpt lat="46.64423" lon="5.41443">
        <ele>225.6</ele>
        <time>2022-05-18T13:50:52Z</time>
      </trkpt>
      <trkpt lat="46.64416" lon="5.41448">
        <ele>225.6</ele>
        <time>2022-05-18T13:50:53Z</time>
      </trkpt>
      <trkpt lat="46.64363" lon="5.41483">
        <ele>225.2</ele>
        <time>2022-05-18T13:51:01Z</time>
      </trkpt>
      <trkpt lat="46.64349" lon="5.41492">
        <ele>225.2</ele>
        <time>2022-05-18T13:51:03Z</time>
      </trkpt>
      <trkpt lat="46.64294" lon="5.41527">
        <ele>225.2</ele>
        <time>2022-05-18T13:51:11Z</time>
      </trkpt>
      <trkpt lat="46.64242" lon="5.41561">
        <ele>225.6</ele>
        <time>2022-05-18T13:51:19Z</time>
      </trkpt>
      <trkpt lat="46.64224" lon="5.41573">
        <ele>225.8</ele>
        <time>2022-05-18T13:51:22Z</time>
      </trkpt>
      <trkpt lat="46.64173" lon="5.41606">
        <ele>226.6</ele>
        <time>2022-05-18T13:51:31Z</time>
      </trkpt>
      <trkpt lat="46.64167" lon="5.4161">
        <ele>226.8</ele>
        <time>2022-05-18T13:51:32Z</time>
      </trkpt>
      <trkpt lat="46.6412" lon="5.41641">
        <ele>227.4</ele>
        <time>2022-05-18T13:51:40Z</time>
      </trkpt>
      <trkpt lat="46.64069" lon="5.41671">
        <ele>227.2</ele>
        <time>2022-05-18T13:51:47Z</time>
      </trkpt>
      <trkpt lat="46.6402" lon="5.41701">
        <ele>225.8</ele>
        <time>2022-05-18T13:51:53Z</time>
      </trkpt>
      <trkpt lat="46.64004" lon="5.4171">
        <ele>225.6</ele>
        <time>2022-05-18T13:51:55Z</time>
      </trkpt>
      <trkpt lat="46.63979" lon="5.41725">
        <ele>224.6</ele>
        <time>2022-05-18T13:51:58Z</time>
      </trkpt>
      <trkpt lat="46.63953" lon="5.41741">
        <ele>223.4</ele>
        <time>2022-05-18T13:52:01Z</time>
      </trkpt>
      <trkpt lat="46.63928" lon="5.41756">
        <ele>222.8</ele>
        <time>2022-05-18T13:52:04Z</time>
      </trkpt>
      <trkpt lat="46.6392" lon="5.41761">
        <ele>222.2</ele>
        <time>2022-05-18T13:52:05Z</time>
      </trkpt>
      <trkpt lat="46.63873" lon="5.41789">
        <ele>221.2</ele>
        <time>2022-05-18T13:52:11Z</time>
      </trkpt>
      <trkpt lat="46.63865" lon="5.41794">
        <ele>221</ele>
        <time>2022-05-18T13:52:12Z</time>
      </trkpt>
      <trkpt lat="46.63821" lon="5.4182">
        <ele>220.8</ele>
        <time>2022-05-18T13:52:18Z</time>
      </trkpt>
      <trkpt lat="46.63782" lon="5.41844">
        <ele>221.6</ele>
        <time>2022-05-18T13:52:24Z</time>
      </trkpt>
      <trkpt lat="46.6377" lon="5.41852">
        <ele>222</ele>
        <time>2022-05-18T13:52:26Z</time>
      </trkpt>
      <trkpt lat="46.63728" lon="5.41877">
        <ele>222.4</ele>
        <time>2022-05-18T13:52:33Z</time>
      </trkpt>
      <trkpt lat="46.63722" lon="5.41881">
        <ele>222.4</ele>
        <time>2022-05-18T13:52:34Z</time>
      </trkpt>
      <trkpt lat="46.63683" lon="5.41904">
        <ele>223</ele>
        <time>2022-05-18T13:52:41Z</time>
      </trkpt>
      <trkpt lat="46.63672" lon="5.41911">
        <ele>223.4</ele>
        <time>2022-05-18T13:52:43Z</time>
      </trkpt>
      <trkpt lat="46.63647" lon="5.41933">
        <ele>224.4</ele>
        <time>2022-05-18T13:52:48Z</time>
      </trkpt>
      <trkpt lat="46.63642" lon="5.41937">
        <ele>224.4</ele>
        <time>2022-05-18T13:52:49Z</time>
      </trkpt>
      <trkpt lat="46.63607" lon="5.41967">
        <ele>225.4</ele>
        <time>2022-05-18T13:52:56Z</time>
      </trkpt>
      <trkpt lat="46.63602" lon="5.41972">
        <ele>225.6</ele>
        <time>2022-05-18T13:52:57Z</time>
      </trkpt>
      <trkpt lat="46.63567" lon="5.42">
        <ele>225.8</ele>
        <time>2022-05-18T13:53:04Z</time>
      </trkpt>
      <trkpt lat="46.63545" lon="5.42022">
        <ele>226</ele>
        <time>2022-05-18T13:53:09Z</time>
      </trkpt>
      <trkpt lat="46.6354" lon="5.42024">
        <ele>226.2</ele>
        <time>2022-05-18T13:53:10Z</time>
      </trkpt>
      <trkpt lat="46.63535" lon="5.42024">
        <ele>226.4</ele>
        <time>2022-05-18T13:53:11Z</time>
      </trkpt>
      <trkpt lat="46.63524" lon="5.4202">
        <ele>226.6</ele>
        <time>2022-05-18T13:53:13Z</time>
      </trkpt>
      <trkpt lat="46.63486" lon="5.41989">
        <ele>227</ele>
        <time>2022-05-18T13:53:20Z</time>
      </trkpt>
      <trkpt lat="46.63476" lon="5.4198">
        <ele>227</ele>
        <time>2022-05-18T13:53:22Z</time>
      </trkpt>
      <trkpt lat="46.63448" lon="5.4196">
        <ele>227</ele>
        <time>2022-05-18T13:53:27Z</time>
      </trkpt>
      <trkpt lat="46.63442" lon="5.41957">
        <ele>227</ele>
        <time>2022-05-18T13:53:28Z</time>
      </trkpt>
      <trkpt lat="46.63424" lon="5.41949">
        <ele>226.6</ele>
        <time>2022-05-18T13:53:31Z</time>
      </trkpt>
      <trkpt lat="46.63418" lon="5.41945">
        <ele>226.6</ele>
        <time>2022-05-18T13:53:32Z</time>
      </trkpt>
      <trkpt lat="46.63373" lon="5.41911">
        <ele>226.2</ele>
        <time>2022-05-18T13:53:39Z</time>
      </trkpt>
      <trkpt lat="46.63367" lon="5.41905">
        <ele>226.2</ele>
        <time>2022-05-18T13:53:40Z</time>
      </trkpt>
      <trkpt lat="46.63348" lon="5.41882">
        <ele>226</ele>
        <time>2022-05-18T13:53:43Z</time>
      </trkpt>
      <trkpt lat="46.63306" lon="5.41818">
        <ele>225.8</ele>
        <time>2022-05-18T13:53:51Z</time>
      </trkpt>
      <trkpt lat="46.63272" lon="5.41769">
        <ele>226.4</ele>
        <time>2022-05-18T13:53:58Z</time>
      </trkpt>
      <trkpt lat="46.63242" lon="5.4173">
        <ele>227.4</ele>
        <time>2022-05-18T13:54:04Z</time>
      </trkpt>
      <trkpt lat="46.63213" lon="5.41682">
        <ele>227.4</ele>
        <time>2022-05-18T13:54:10Z</time>
      </trkpt>
      <trkpt lat="46.63189" lon="5.41626">
        <ele>227.2</ele>
        <time>2022-05-18T13:54:16Z</time>
      </trkpt>
      <trkpt lat="46.63176" lon="5.41599">
        <ele>227.2</ele>
        <time>2022-05-18T13:54:19Z</time>
      </trkpt>
      <trkpt lat="46.63143" lon="5.4153">
        <ele>227.4</ele>
        <time>2022-05-18T13:54:27Z</time>
      </trkpt>
      <trkpt lat="46.6311" lon="5.41462">
        <ele>227</ele>
        <time>2022-05-18T13:54:35Z</time>
      </trkpt>
      <trkpt lat="46.63074" lon="5.41415">
        <ele>227.4</ele>
        <time>2022-05-18T13:54:42Z</time>
      </trkpt>
      <trkpt lat="46.63064" lon="5.41402">
        <ele>227.6</ele>
        <time>2022-05-18T13:54:44Z</time>
      </trkpt>
      <trkpt lat="46.63042" lon="5.41377">
        <ele>227.8</ele>
        <time>2022-05-18T13:54:48Z</time>
      </trkpt>
      <trkpt lat="46.63006" lon="5.41353">
        <ele>227.6</ele>
        <time>2022-05-18T13:54:53Z</time>
      </trkpt>
      <trkpt lat="46.62954" lon="5.41331">
        <ele>226.6</ele>
        <time>2022-05-18T13:54:59Z</time>
      </trkpt>
      <trkpt lat="46.62926" lon="5.41319">
        <ele>225.6</ele>
        <time>2022-05-18T13:55:02Z</time>
      </trkpt>
      <trkpt lat="46.62908" lon="5.41311">
        <ele>224.4</ele>
        <time>2022-05-18T13:55:04Z</time>
      </trkpt>
      <trkpt lat="46.62888" lon="5.41303">
        <ele>223.4</ele>
        <time>2022-05-18T13:55:06Z</time>
      </trkpt>
      <trkpt lat="46.62876" lon="5.41298">
        <ele>222.4</ele>
        <time>2022-05-18T13:55:07Z</time>
      </trkpt>
      <trkpt lat="46.62848" lon="5.41285">
        <ele>221</ele>
        <time>2022-05-18T13:55:10Z</time>
      </trkpt>
      <trkpt lat="46.62805" lon="5.41266">
        <ele>219.6</ele>
        <time>2022-05-18T13:55:14Z</time>
      </trkpt>
      <trkpt lat="46.62794" lon="5.41262">
        <ele>219.6</ele>
        <time>2022-05-18T13:55:15Z</time>
      </trkpt>
      <trkpt lat="46.62774" lon="5.41253">
        <ele>218.2</ele>
        <time>2022-05-18T13:55:17Z</time>
      </trkpt>
      <trkpt lat="46.62743" lon="5.4124">
        <ele>217</ele>
        <time>2022-05-18T13:55:20Z</time>
      </trkpt>
      <trkpt lat="46.62723" lon="5.41231">
        <ele>216</ele>
        <time>2022-05-18T13:55:22Z</time>
      </trkpt>
      <trkpt lat="46.62696" lon="5.41219">
        <ele>215</ele>
        <time>2022-05-18T13:55:25Z</time>
      </trkpt>
      <trkpt lat="46.62646" lon="5.41198">
        <ele>214</ele>
        <time>2022-05-18T13:55:30Z</time>
      </trkpt>
      <trkpt lat="46.62626" lon="5.4119">
        <ele>213.6</ele>
        <time>2022-05-18T13:55:32Z</time>
      </trkpt>
      <trkpt lat="46.62589" lon="5.41173">
        <ele>212.8</ele>
        <time>2022-05-18T13:55:36Z</time>
      </trkpt>
      <trkpt lat="46.62561" lon="5.41162">
        <ele>211.8</ele>
        <time>2022-05-18T13:55:39Z</time>
      </trkpt>
      <trkpt lat="46.62552" lon="5.41157">
        <ele>211.6</ele>
        <time>2022-05-18T13:55:40Z</time>
      </trkpt>
      <trkpt lat="46.62505" lon="5.41136">
        <ele>210.4</ele>
        <time>2022-05-18T13:55:45Z</time>
      </trkpt>
      <trkpt lat="46.6249" lon="5.41124">
        <ele>209.8</ele>
        <time>2022-05-18T13:55:47Z</time>
      </trkpt>
      <trkpt lat="46.6248" lon="5.41115">
        <ele>209.6</ele>
        <time>2022-05-18T13:55:48Z</time>
      </trkpt>
      <trkpt lat="46.62472" lon="5.41106">
        <ele>209.2</ele>
        <time>2022-05-18T13:55:49Z</time>
      </trkpt>
      <trkpt lat="46.62466" lon="5.41095">
        <ele>209.2</ele>
        <time>2022-05-18T13:55:50Z</time>
      </trkpt>
      <trkpt lat="46.62444" lon="5.41048">
        <ele>208.6</ele>
        <time>2022-05-18T13:55:54Z</time>
      </trkpt>
      <trkpt lat="46.62425" lon="5.41">
        <ele>208.2</ele>
        <time>2022-05-18T13:55:58Z</time>
      </trkpt>
      <trkpt lat="46.62396" lon="5.40932">
        <ele>207.6</ele>
        <time>2022-05-18T13:56:04Z</time>
      </trkpt>
      <trkpt lat="46.62382" lon="5.40915">
        <ele>207.4</ele>
        <time>2022-05-18T13:56:06Z</time>
      </trkpt>
      <trkpt lat="46.62367" lon="5.40901">
        <ele>207.4</ele>
        <time>2022-05-18T13:56:08Z</time>
      </trkpt>
      <trkpt lat="46.62331" lon="5.40865">
        <ele>207.2</ele>
        <time>2022-05-18T13:56:13Z</time>
      </trkpt>
      <trkpt lat="46.62325" lon="5.40856">
        <ele>207.2</ele>
        <time>2022-05-18T13:56:14Z</time>
      </trkpt>
      <trkpt lat="46.62292" lon="5.40803">
        <ele>207</ele>
        <time>2022-05-18T13:56:20Z</time>
      </trkpt>
      <trkpt lat="46.62246" lon="5.40755">
        <ele>206.8</ele>
        <time>2022-05-18T13:56:27Z</time>
      </trkpt>
      <trkpt lat="46.62238" lon="5.40748">
        <ele>206.8</ele>
        <time>2022-05-18T13:56:28Z</time>
      </trkpt>
      <trkpt lat="46.62212" lon="5.40722">
        <ele>206.8</ele>
        <time>2022-05-18T13:56:32Z</time>
      </trkpt>
      <trkpt lat="46.62205" lon="5.40716">
        <ele>206.8</ele>
        <time>2022-05-18T13:56:33Z</time>
      </trkpt>
      <trkpt lat="46.6219" lon="5.40709">
        <ele>206.6</ele>
        <time>2022-05-18T13:56:35Z</time>
      </trkpt>
      <trkpt lat="46.62175" lon="5.40705">
        <ele>206.4</ele>
        <time>2022-05-18T13:56:37Z</time>
      </trkpt>
      <trkpt lat="46.6216" lon="5.40706">
        <ele>206.4</ele>
        <time>2022-05-18T13:56:39Z</time>
      </trkpt>
      <trkpt lat="46.62145" lon="5.40713">
        <ele>206.6</ele>
        <time>2022-05-18T13:56:41Z</time>
      </trkpt>
      <trkpt lat="46.62125" lon="5.40731">
        <ele>206.6</ele>
        <time>2022-05-18T13:56:44Z</time>
      </trkpt>
      <trkpt lat="46.6212" lon="5.40738">
        <ele>206.4</ele>
        <time>2022-05-18T13:56:45Z</time>
      </trkpt>
      <trkpt lat="46.62115" lon="5.40747">
        <ele>206.4</ele>
        <time>2022-05-18T13:56:46Z</time>
      </trkpt>
      <trkpt lat="46.62103" lon="5.40777">
        <ele>206.2</ele>
        <time>2022-05-18T13:56:49Z</time>
      </trkpt>
      <trkpt lat="46.62075" lon="5.40851">
        <ele>206.4</ele>
        <time>2022-05-18T13:56:56Z</time>
      </trkpt>
      <trkpt lat="46.62071" lon="5.40863">
        <ele>206.4</ele>
        <time>2022-05-18T13:56:57Z</time>
      </trkpt>
      <trkpt lat="46.62045" lon="5.40941">
        <ele>206</ele>
        <time>2022-05-18T13:57:04Z</time>
      </trkpt>
      <trkpt lat="46.62042" lon="5.40952">
        <ele>206</ele>
        <time>2022-05-18T13:57:05Z</time>
      </trkpt>
      <trkpt lat="46.62016" lon="5.41027">
        <ele>206</ele>
        <time>2022-05-18T13:57:12Z</time>
      </trkpt>
      <trkpt lat="46.62007" lon="5.41047">
        <ele>205.8</ele>
        <time>2022-05-18T13:57:14Z</time>
      </trkpt>
      <trkpt lat="46.61979" lon="5.41089">
        <ele>205.8</ele>
        <time>2022-05-18T13:57:19Z</time>
      </trkpt>
      <trkpt lat="46.61938" lon="5.41145">
        <ele>205.6</ele>
        <time>2022-05-18T13:57:26Z</time>
      </trkpt>
      <trkpt lat="46.61926" lon="5.41161">
        <ele>205.6</ele>
        <time>2022-05-18T13:57:28Z</time>
      </trkpt>
      <trkpt lat="46.61885" lon="5.41218">
        <ele>205.4</ele>
        <time>2022-05-18T13:57:35Z</time>
      </trkpt>
      <trkpt lat="46.61873" lon="5.41234">
        <ele>205.4</ele>
        <time>2022-05-18T13:57:37Z</time>
      </trkpt>
      <trkpt lat="46.61836" lon="5.41296">
        <ele>205.4</ele>
        <time>2022-05-18T13:57:44Z</time>
      </trkpt>
      <trkpt lat="46.61827" lon="5.41314">
        <ele>205.4</ele>
        <time>2022-05-18T13:57:46Z</time>
      </trkpt>
      <trkpt lat="46.61786" lon="5.41385">
        <ele>205.8</ele>
        <time>2022-05-18T13:57:54Z</time>
      </trkpt>
      <trkpt lat="46.61775" lon="5.41401">
        <ele>205.8</ele>
        <time>2022-05-18T13:57:56Z</time>
      </trkpt>
      <trkpt lat="46.61763" lon="5.41416">
        <ele>205.6</ele>
        <time>2022-05-18T13:57:58Z</time>
      </trkpt>
      <trkpt lat="46.61748" lon="5.41427">
        <ele>205.4</ele>
        <time>2022-05-18T13:58:00Z</time>
      </trkpt>
      <trkpt lat="46.61741" lon="5.4143">
        <ele>205.4</ele>
        <time>2022-05-18T13:58:01Z</time>
      </trkpt>
      <trkpt lat="46.61717" lon="5.41436">
        <ele>205.6</ele>
        <time>2022-05-18T13:58:04Z</time>
      </trkpt>
      <trkpt lat="46.61686" lon="5.41428">
        <ele>205.4</ele>
        <time>2022-05-18T13:58:08Z</time>
      </trkpt>
      <trkpt lat="46.61678" lon="5.41424">
        <ele>205.4</ele>
        <time>2022-05-18T13:58:09Z</time>
      </trkpt>
      <trkpt lat="46.61657" lon="5.41407">
        <ele>205.8</ele>
        <time>2022-05-18T13:58:12Z</time>
      </trkpt>
      <trkpt lat="46.61651" lon="5.414">
        <ele>205.8</ele>
        <time>2022-05-18T13:58:13Z</time>
      </trkpt>
      <trkpt lat="46.6162" lon="5.41363">
        <ele>206</ele>
        <time>2022-05-18T13:58:18Z</time>
      </trkpt>
      <trkpt lat="46.61586" lon="5.41332">
        <ele>206</ele>
        <time>2022-05-18T13:58:23Z</time>
      </trkpt>
      <trkpt lat="46.61535" lon="5.41297">
        <ele>205.8</ele>
        <time>2022-05-18T13:58:30Z</time>
      </trkpt>
      <trkpt lat="46.61521" lon="5.41288">
        <ele>205.8</ele>
        <time>2022-05-18T13:58:32Z</time>
      </trkpt>
      <trkpt lat="46.61483" lon="5.41272">
        <ele>205.8</ele>
        <time>2022-05-18T13:58:37Z</time>
      </trkpt>
      <trkpt lat="46.61427" lon="5.41255">
        <ele>206.4</ele>
        <time>2022-05-18T13:58:44Z</time>
      </trkpt>
      <trkpt lat="46.6141" lon="5.41251">
        <ele>206.4</ele>
        <time>2022-05-18T13:58:46Z</time>
      </trkpt>
      <trkpt lat="46.61355" lon="5.41236">
        <ele>206</ele>
        <time>2022-05-18T13:58:53Z</time>
      </trkpt>
      <trkpt lat="46.61347" lon="5.41233">
        <ele>206</ele>
        <time>2022-05-18T13:58:54Z</time>
      </trkpt>
      <trkpt lat="46.61292" lon="5.41218">
        <ele>206</ele>
        <time>2022-05-18T13:59:01Z</time>
      </trkpt>
      <trkpt lat="46.61277" lon="5.41214">
        <ele>206</ele>
        <time>2022-05-18T13:59:03Z</time>
      </trkpt>
      <trkpt lat="46.61216" lon="5.41197">
        <ele>205.6</ele>
        <time>2022-05-18T13:59:11Z</time>
      </trkpt>
      <trkpt lat="46.61161" lon="5.41182">
        <ele>205.2</ele>
        <time>2022-05-18T13:59:18Z</time>
      </trkpt>
      <trkpt lat="46.61138" lon="5.41176">
        <ele>205.4</ele>
        <time>2022-05-18T13:59:21Z</time>
      </trkpt>
      <trkpt lat="46.61078" lon="5.41158">
        <ele>205.6</ele>
        <time>2022-05-18T13:59:29Z</time>
      </trkpt>
      <trkpt lat="46.61063" lon="5.41154">
        <ele>205.4</ele>
        <time>2022-05-18T13:59:31Z</time>
      </trkpt>
      <trkpt lat="46.61041" lon="5.4115">
        <ele>205.2</ele>
        <time>2022-05-18T13:59:34Z</time>
      </trkpt>
      <trkpt lat="46.61026" lon="5.41151">
        <ele>204.8</ele>
        <time>2022-05-18T13:59:36Z</time>
      </trkpt>
      <trkpt lat="46.61019" lon="5.41153">
        <ele>204.8</ele>
        <time>2022-05-18T13:59:37Z</time>
      </trkpt>
      <trkpt lat="46.61004" lon="5.41161">
        <ele>205</ele>
        <time>2022-05-18T13:59:39Z</time>
      </trkpt>
      <trkpt lat="46.60997" lon="5.41166">
        <ele>205</ele>
        <time>2022-05-18T13:59:40Z</time>
      </trkpt>
      <trkpt lat="46.60945" lon="5.41214">
        <ele>205.6</ele>
        <time>2022-05-18T13:59:48Z</time>
      </trkpt>
      <trkpt lat="46.60906" lon="5.4126">
        <ele>205.8</ele>
        <time>2022-05-18T13:59:55Z</time>
      </trkpt>
      <trkpt lat="46.60871" lon="5.41303">
        <ele>206.8</ele>
        <time>2022-05-18T14:00:02Z</time>
      </trkpt>
      <trkpt lat="46.60866" lon="5.41309">
        <ele>207.2</ele>
        <time>2022-05-18T14:00:03Z</time>
      </trkpt>
      <trkpt lat="46.60856" lon="5.41321">
        <ele>207.4</ele>
        <time>2022-05-18T14:00:05Z</time>
      </trkpt>
      <trkpt lat="46.60845" lon="5.41329">
        <ele>207.6</ele>
        <time>2022-05-18T14:00:07Z</time>
      </trkpt>
      <trkpt lat="46.60833" lon="5.4133">
        <ele>207.8</ele>
        <time>2022-05-18T14:00:09Z</time>
      </trkpt>
      <trkpt lat="46.6082" lon="5.41327">
        <ele>208</ele>
        <time>2022-05-18T14:00:11Z</time>
      </trkpt>
      <trkpt lat="46.60809" lon="5.41319">
        <ele>208</ele>
        <time>2022-05-18T14:00:13Z</time>
      </trkpt>
      <trkpt lat="46.60799" lon="5.41308">
        <ele>208.2</ele>
        <time>2022-05-18T14:00:15Z</time>
      </trkpt>
      <trkpt lat="46.6077" lon="5.41278">
        <ele>209.2</ele>
        <time>2022-05-18T14:00:21Z</time>
      </trkpt>
      <trkpt lat="46.6076" lon="5.41268">
        <ele>210.4</ele>
        <time>2022-05-18T14:00:23Z</time>
      </trkpt>
      <trkpt lat="46.6074" lon="5.41247">
        <ele>211.6</ele>
        <time>2022-05-18T14:00:27Z</time>
      </trkpt>
      <trkpt lat="46.60729" lon="5.41232">
        <ele>211.8</ele>
        <time>2022-05-18T14:00:29Z</time>
      </trkpt>
      <trkpt lat="46.60695" lon="5.41189">
        <ele>211.8</ele>
        <time>2022-05-18T14:00:35Z</time>
      </trkpt>
      <trkpt lat="46.60681" lon="5.4118">
        <ele>212</ele>
        <time>2022-05-18T14:00:37Z</time>
      </trkpt>
      <trkpt lat="46.60665" lon="5.41173">
        <ele>212</ele>
        <time>2022-05-18T14:00:39Z</time>
      </trkpt>
      <trkpt lat="46.60611" lon="5.41155">
        <ele>212</ele>
        <time>2022-05-18T14:00:46Z</time>
      </trkpt>
      <trkpt lat="46.60567" lon="5.41142">
        <ele>212.8</ele>
        <time>2022-05-18T14:00:52Z</time>
      </trkpt>
      <trkpt lat="46.60552" lon="5.4114">
        <ele>213</ele>
        <time>2022-05-18T14:00:54Z</time>
      </trkpt>
      <trkpt lat="46.60516" lon="5.41138">
        <ele>214</ele>
        <time>2022-05-18T14:00:59Z</time>
      </trkpt>
      <trkpt lat="46.60502" lon="5.41137">
        <ele>214.6</ele>
        <time>2022-05-18T14:01:01Z</time>
      </trkpt>
      <trkpt lat="46.60495" lon="5.41137">
        <ele>215.2</ele>
        <time>2022-05-18T14:01:02Z</time>
      </trkpt>
      <trkpt lat="46.60463" lon="5.41131">
        <ele>216</ele>
        <time>2022-05-18T14:01:07Z</time>
      </trkpt>
      <trkpt lat="46.60457" lon="5.41129">
        <ele>216.2</ele>
        <time>2022-05-18T14:01:08Z</time>
      </trkpt>
      <trkpt lat="46.60451" lon="5.41125">
        <ele>216.4</ele>
        <time>2022-05-18T14:01:09Z</time>
      </trkpt>
      <trkpt lat="46.60439" lon="5.41115">
        <ele>216.8</ele>
        <time>2022-05-18T14:01:11Z</time>
      </trkpt>
      <trkpt lat="46.60434" lon="5.41109">
        <ele>216.8</ele>
        <time>2022-05-18T14:01:12Z</time>
      </trkpt>
      <trkpt lat="46.6043" lon="5.41102">
        <ele>217</ele>
        <time>2022-05-18T14:01:13Z</time>
      </trkpt>
      <trkpt lat="46.60426" lon="5.41094">
        <ele>217.4</ele>
        <time>2022-05-18T14:01:14Z</time>
      </trkpt>
      <trkpt lat="46.60421" lon="5.41079">
        <ele>217.8</ele>
        <time>2022-05-18T14:01:16Z</time>
      </trkpt>
      <trkpt lat="46.60409" lon="5.41048">
        <ele>218.6</ele>
        <time>2022-05-18T14:01:20Z</time>
      </trkpt>
      <trkpt lat="46.60405" lon="5.41041">
        <ele>218.8</ele>
        <time>2022-05-18T14:01:21Z</time>
      </trkpt>
      <trkpt lat="46.60401" lon="5.41035">
        <ele>218.8</ele>
        <time>2022-05-18T14:01:22Z</time>
      </trkpt>
      <trkpt lat="46.60392" lon="5.41023">
        <ele>218.8</ele>
        <time>2022-05-18T14:01:24Z</time>
      </trkpt>
      <trkpt lat="46.60374" lon="5.41009">
        <ele>218.6</ele>
        <time>2022-05-18T14:01:27Z</time>
      </trkpt>
      <trkpt lat="46.60347" lon="5.4099">
        <ele>218.4</ele>
        <time>2022-05-18T14:01:31Z</time>
      </trkpt>
      <trkpt lat="46.6034" lon="5.40983">
        <ele>218</ele>
        <time>2022-05-18T14:01:32Z</time>
      </trkpt>
      <trkpt lat="46.60333" lon="5.40973">
        <ele>217.6</ele>
        <time>2022-05-18T14:01:33Z</time>
      </trkpt>
      <trkpt lat="46.60321" lon="5.40951">
        <ele>217</ele>
        <time>2022-05-18T14:01:35Z</time>
      </trkpt>
      <trkpt lat="46.60301" lon="5.40915">
        <ele>215.8</ele>
        <time>2022-05-18T14:01:38Z</time>
      </trkpt>
      <trkpt lat="46.60293" lon="5.40903">
        <ele>215.2</ele>
        <time>2022-05-18T14:01:39Z</time>
      </trkpt>
      <trkpt lat="46.60284" lon="5.40893">
        <ele>214.4</ele>
        <time>2022-05-18T14:01:40Z</time>
      </trkpt>
      <trkpt lat="46.60266" lon="5.40877">
        <ele>213.4</ele>
        <time>2022-05-18T14:01:42Z</time>
      </trkpt>
      <trkpt lat="46.60246" lon="5.40863">
        <ele>212.2</ele>
        <time>2022-05-18T14:01:44Z</time>
      </trkpt>
      <trkpt lat="46.60218" lon="5.4084">
        <ele>210.6</ele>
        <time>2022-05-18T14:01:48Z</time>
      </trkpt>
      <trkpt lat="46.60192" lon="5.40816">
        <ele>209.4</ele>
        <time>2022-05-18T14:01:51Z</time>
      </trkpt>
      <trkpt lat="46.60179" lon="5.40794">
        <ele>208.8</ele>
        <time>2022-05-18T14:01:53Z</time>
      </trkpt>
      <trkpt lat="46.60175" lon="5.40782">
        <ele>208.2</ele>
        <time>2022-05-18T14:01:54Z</time>
      </trkpt>
      <trkpt lat="46.60173" lon="5.40769">
        <ele>208</ele>
        <time>2022-05-18T14:01:55Z</time>
      </trkpt>
      <trkpt lat="46.60172" lon="5.40742">
        <ele>207.6</ele>
        <time>2022-05-18T14:01:57Z</time>
      </trkpt>
      <trkpt lat="46.60177" lon="5.40717">
        <ele>207.6</ele>
        <time>2022-05-18T14:01:59Z</time>
      </trkpt>
      <trkpt lat="46.6018" lon="5.40708">
        <ele>207.6</ele>
        <time>2022-05-18T14:02:00Z</time>
      </trkpt>
      <trkpt lat="46.60185" lon="5.40695">
        <ele>207.6</ele>
        <time>2022-05-18T14:02:01Z</time>
      </trkpt>
      <trkpt lat="46.60195" lon="5.40676">
        <ele>207.6</ele>
        <time>2022-05-18T14:02:03Z</time>
      </trkpt>
      <trkpt lat="46.6023" lon="5.40614">
        <ele>207.6</ele>
        <time>2022-05-18T14:02:10Z</time>
      </trkpt>
      <trkpt lat="46.60236" lon="5.40594">
        <ele>207.6</ele>
        <time>2022-05-18T14:02:12Z</time>
      </trkpt>
      <trkpt lat="46.60238" lon="5.40573">
        <ele>207.6</ele>
        <time>2022-05-18T14:02:14Z</time>
      </trkpt>
      <trkpt lat="46.60235" lon="5.40552">
        <ele>207.8</ele>
        <time>2022-05-18T14:02:16Z</time>
      </trkpt>
      <trkpt lat="46.60231" lon="5.40533">
        <ele>208</ele>
        <time>2022-05-18T14:02:18Z</time>
      </trkpt>
      <trkpt lat="46.6022" lon="5.40467">
        <ele>208.4</ele>
        <time>2022-05-18T14:02:25Z</time>
      </trkpt>
      <trkpt lat="46.60222" lon="5.40423">
        <ele>208.4</ele>
        <time>2022-05-18T14:02:30Z</time>
      </trkpt>
      <trkpt lat="46.60223" lon="5.40401">
        <ele>209</ele>
        <time>2022-05-18T14:02:33Z</time>
      </trkpt>
      <trkpt lat="46.60223" lon="5.40394">
        <ele>209.2</ele>
        <time>2022-05-18T14:02:34Z</time>
      </trkpt>
      <trkpt lat="46.60222" lon="5.40366">
        <ele>210.6</ele>
        <time>2022-05-18T14:02:38Z</time>
      </trkpt>
      <trkpt lat="46.6022" lon="5.40354">
        <ele>211</ele>
        <time>2022-05-18T14:02:40Z</time>
      </trkpt>
      <trkpt lat="46.60214" lon="5.40332">
        <ele>212</ele>
        <time>2022-05-18T14:02:43Z</time>
      </trkpt>
      <trkpt lat="46.60204" lon="5.40299">
        <ele>212.4</ele>
        <time>2022-05-18T14:02:47Z</time>
      </trkpt>
      <trkpt lat="46.60201" lon="5.4029">
        <ele>212.4</ele>
        <time>2022-05-18T14:02:48Z</time>
      </trkpt>
      <trkpt lat="46.60187" lon="5.40257">
        <ele>212.4</ele>
        <time>2022-05-18T14:02:52Z</time>
      </trkpt>
      <trkpt lat="46.60183" lon="5.40248">
        <ele>212.4</ele>
        <time>2022-05-18T14:02:53Z</time>
      </trkpt>
      <trkpt lat="46.60178" lon="5.40229">
        <ele>212.4</ele>
        <time>2022-05-18T14:02:55Z</time>
      </trkpt>
      <trkpt lat="46.60176" lon="5.40219">
        <ele>212.4</ele>
        <time>2022-05-18T14:02:56Z</time>
      </trkpt>
      <trkpt lat="46.60176" lon="5.40209">
        <ele>212.4</ele>
        <time>2022-05-18T14:02:57Z</time>
      </trkpt>
      <trkpt lat="46.60178" lon="5.40189">
        <ele>212.2</ele>
        <time>2022-05-18T14:02:59Z</time>
      </trkpt>
      <trkpt lat="46.60179" lon="5.4018">
        <ele>212.2</ele>
        <time>2022-05-18T14:03:00Z</time>
      </trkpt>
      <trkpt lat="46.6019" lon="5.40128">
        <ele>212.4</ele>
        <time>2022-05-18T14:03:06Z</time>
      </trkpt>
      <trkpt lat="46.60193" lon="5.40109">
        <ele>212.4</ele>
        <time>2022-05-18T14:03:08Z</time>
      </trkpt>
      <trkpt lat="46.60193" lon="5.40076">
        <ele>212.6</ele>
        <time>2022-05-18T14:03:11Z</time>
      </trkpt>
      <trkpt lat="46.60189" lon="5.39996">
        <ele>211.6</ele>
        <time>2022-05-18T14:03:18Z</time>
      </trkpt>
      <trkpt lat="46.60185" lon="5.39935">
        <ele>210.8</ele>
        <time>2022-05-18T14:03:23Z</time>
      </trkpt>
      <trkpt lat="46.60184" lon="5.39923">
        <ele>210.8</ele>
        <time>2022-05-18T14:03:24Z</time>
      </trkpt>
      <trkpt lat="46.60176" lon="5.399">
        <ele>210.2</ele>
        <time>2022-05-18T14:03:26Z</time>
      </trkpt>
      <trkpt lat="46.60171" lon="5.3989">
        <ele>210</ele>
        <time>2022-05-18T14:03:27Z</time>
      </trkpt>
      <trkpt lat="46.60165" lon="5.39882">
        <ele>209.8</ele>
        <time>2022-05-18T14:03:28Z</time>
      </trkpt>
      <trkpt lat="46.6015" lon="5.39868">
        <ele>209.4</ele>
        <time>2022-05-18T14:03:30Z</time>
      </trkpt>
      <trkpt lat="46.60114" lon="5.39836">
        <ele>208.6</ele>
        <time>2022-05-18T14:03:35Z</time>
      </trkpt>
      <trkpt lat="46.60093" lon="5.39815">
        <ele>208.4</ele>
        <time>2022-05-18T14:03:38Z</time>
      </trkpt>
      <trkpt lat="46.60083" lon="5.39796">
        <ele>208</ele>
        <time>2022-05-18T14:03:40Z</time>
      </trkpt>
      <trkpt lat="46.60079" lon="5.39786">
        <ele>208</ele>
        <time>2022-05-18T14:03:41Z</time>
      </trkpt>
      <trkpt lat="46.60066" lon="5.39747">
        <ele>207.8</ele>
        <time>2022-05-18T14:03:45Z</time>
      </trkpt>
      <trkpt lat="46.60064" lon="5.39737">
        <ele>207.8</ele>
        <time>2022-05-18T14:03:46Z</time>
      </trkpt>
      <trkpt lat="46.60063" lon="5.39727">
        <ele>208</ele>
        <time>2022-05-18T14:03:47Z</time>
      </trkpt>
      <trkpt lat="46.60066" lon="5.39707">
        <ele>208.4</ele>
        <time>2022-05-18T14:03:49Z</time>
      </trkpt>
      <trkpt lat="46.60073" lon="5.39691">
        <ele>208.6</ele>
        <time>2022-05-18T14:03:51Z</time>
      </trkpt>
      <trkpt lat="46.6008" lon="5.39675">
        <ele>208.6</ele>
        <time>2022-05-18T14:03:53Z</time>
      </trkpt>
      <trkpt lat="46.60086" lon="5.39659">
        <ele>208.8</ele>
        <time>2022-05-18T14:03:55Z</time>
      </trkpt>
      <trkpt lat="46.60089" lon="5.39642">
        <ele>209</ele>
        <time>2022-05-18T14:03:57Z</time>
      </trkpt>
      <trkpt lat="46.6009" lon="5.39634">
        <ele>209.6</ele>
        <time>2022-05-18T14:03:58Z</time>
      </trkpt>
      <trkpt lat="46.6009" lon="5.39626">
        <ele>209.8</ele>
        <time>2022-05-18T14:03:59Z</time>
      </trkpt>
      <trkpt lat="46.6009" lon="5.39618">
        <ele>210</ele>
        <time>2022-05-18T14:04:00Z</time>
      </trkpt>
      <trkpt lat="46.60089" lon="5.39603">
        <ele>210.2</ele>
        <time>2022-05-18T14:04:02Z</time>
      </trkpt>
      <trkpt lat="46.60087" lon="5.39596">
        <ele>210.4</ele>
        <time>2022-05-18T14:04:03Z</time>
      </trkpt>
      <trkpt lat="46.60082" lon="5.39583">
        <ele>210.8</ele>
        <time>2022-05-18T14:04:05Z</time>
      </trkpt>
      <trkpt lat="46.6008" lon="5.39576">
        <ele>211</ele>
        <time>2022-05-18T14:04:06Z</time>
      </trkpt>
      <trkpt lat="46.60068" lon="5.39552">
        <ele>212</ele>
        <time>2022-05-18T14:04:10Z</time>
      </trkpt>
      <trkpt lat="46.60059" lon="5.39535">
        <ele>212.2</ele>
        <time>2022-05-18T14:04:13Z</time>
      </trkpt>
      <trkpt lat="46.60051" lon="5.39518">
        <ele>213.2</ele>
        <time>2022-05-18T14:04:16Z</time>
      </trkpt>
      <trkpt lat="46.6004" lon="5.39489">
        <ele>214</ele>
        <time>2022-05-18T14:04:21Z</time>
      </trkpt>
      <trkpt lat="46.60039" lon="5.39483">
        <ele>214.4</ele>
        <time>2022-05-18T14:04:22Z</time>
      </trkpt>
      <trkpt lat="46.60036" lon="5.39469">
        <ele>215</ele>
        <time>2022-05-18T14:04:24Z</time>
      </trkpt>
      <trkpt lat="46.60035" lon="5.39455">
        <ele>215.4</ele>
        <time>2022-05-18T14:04:26Z</time>
      </trkpt>
      <trkpt lat="46.60035" lon="5.39448">
        <ele>215.4</ele>
        <time>2022-05-18T14:04:27Z</time>
      </trkpt>
      <trkpt lat="46.60035" lon="5.39441">
        <ele>215.6</ele>
        <time>2022-05-18T14:04:28Z</time>
      </trkpt>
      <trkpt lat="46.60043" lon="5.39394">
        <ele>216.2</ele>
        <time>2022-05-18T14:04:34Z</time>
      </trkpt>
      <trkpt lat="46.60052" lon="5.39339">
        <ele>216.2</ele>
        <time>2022-05-18T14:04:40Z</time>
      </trkpt>
      <trkpt lat="46.60055" lon="5.39303">
        <ele>216</ele>
        <time>2022-05-18T14:04:44Z</time>
      </trkpt>
      <trkpt lat="46.60054" lon="5.39287">
        <ele>215.8</ele>
        <time>2022-05-18T14:04:46Z</time>
      </trkpt>
      <trkpt lat="46.60053" lon="5.3928">
        <ele>216</ele>
        <time>2022-05-18T14:04:47Z</time>
      </trkpt>
      <trkpt lat="46.60049" lon="5.39259">
        <ele>216.4</ele>
        <time>2022-05-18T14:04:50Z</time>
      </trkpt>
      <trkpt lat="46.60047" lon="5.39252">
        <ele>216.4</ele>
        <time>2022-05-18T14:04:51Z</time>
      </trkpt>
      <trkpt lat="46.60041" lon="5.39235">
        <ele>217</ele>
        <time>2022-05-18T14:04:54Z</time>
      </trkpt>
      <trkpt lat="46.60035" lon="5.39224">
        <ele>217.8</ele>
        <time>2022-05-18T14:04:56Z</time>
      </trkpt>
      <trkpt lat="46.60032" lon="5.39219">
        <ele>217.8</ele>
        <time>2022-05-18T14:04:57Z</time>
      </trkpt>
      <trkpt lat="46.60022" lon="5.39207">
        <ele>218.8</ele>
        <time>2022-05-18T14:05:00Z</time>
      </trkpt>
      <trkpt lat="46.60009" lon="5.39197">
        <ele>219.6</ele>
        <time>2022-05-18T14:05:03Z</time>
      </trkpt>
      <trkpt lat="46.6" lon="5.39192">
        <ele>220</ele>
        <time>2022-05-18T14:05:05Z</time>
      </trkpt>
      <trkpt lat="46.59979" lon="5.39185">
        <ele>220.8</ele>
        <time>2022-05-18T14:05:09Z</time>
      </trkpt>
      <trkpt lat="46.59968" lon="5.39183">
        <ele>221.2</ele>
        <time>2022-05-18T14:05:11Z</time>
      </trkpt>
      <trkpt lat="46.59942" lon="5.39182">
        <ele>221.2</ele>
        <time>2022-05-18T14:05:16Z</time>
      </trkpt>
      <trkpt lat="46.59918" lon="5.39178">
        <ele>221.6</ele>
        <time>2022-05-18T14:05:21Z</time>
      </trkpt>
      <trkpt lat="46.59913" lon="5.39179">
        <ele>222.2</ele>
        <time>2022-05-18T14:05:22Z</time>
      </trkpt>
      <trkpt lat="46.59897" lon="5.39187">
        <ele>223.2</ele>
        <time>2022-05-18T14:05:25Z</time>
      </trkpt>
      <trkpt lat="46.59885" lon="5.39191">
        <ele>223.4</ele>
        <time>2022-05-18T14:05:27Z</time>
      </trkpt>
      <trkpt lat="46.59849" lon="5.39193">
        <ele>223.8</ele>
        <time>2022-05-18T14:05:33Z</time>
      </trkpt>
      <trkpt lat="46.59818" lon="5.39189">
        <ele>224.2</ele>
        <time>2022-05-18T14:05:38Z</time>
      </trkpt>
      <trkpt lat="46.59806" lon="5.39189">
        <ele>224.6</ele>
        <time>2022-05-18T14:05:40Z</time>
      </trkpt>
      <trkpt lat="46.59799" lon="5.39189">
        <ele>224.6</ele>
        <time>2022-05-18T14:05:41Z</time>
      </trkpt>
      <trkpt lat="46.59762" lon="5.39203">
        <ele>225</ele>
        <time>2022-05-18T14:05:47Z</time>
      </trkpt>
      <trkpt lat="46.5975" lon="5.39208">
        <ele>225.2</ele>
        <time>2022-05-18T14:05:49Z</time>
      </trkpt>
      <trkpt lat="46.59739" lon="5.39207">
        <ele>225.4</ele>
        <time>2022-05-18T14:05:51Z</time>
      </trkpt>
      <trkpt lat="46.59694" lon="5.39195">
        <ele>226.4</ele>
        <time>2022-05-18T14:05:58Z</time>
      </trkpt>
      <trkpt lat="46.5965" lon="5.39186">
        <ele>226.4</ele>
        <time>2022-05-18T14:06:04Z</time>
      </trkpt>
      <trkpt lat="46.59611" lon="5.39186">
        <ele>226</ele>
        <time>2022-05-18T14:06:09Z</time>
      </trkpt>
      <trkpt lat="46.59572" lon="5.39203">
        <ele>225.6</ele>
        <time>2022-05-18T14:06:14Z</time>
      </trkpt>
      <trkpt lat="46.59539" lon="5.39207">
        <ele>225.4</ele>
        <time>2022-05-18T14:06:18Z</time>
      </trkpt>
      <trkpt lat="46.59531" lon="5.39205">
        <ele>225.4</ele>
        <time>2022-05-18T14:06:19Z</time>
      </trkpt>
      <trkpt lat="46.59523" lon="5.39201">
        <ele>225.2</ele>
        <time>2022-05-18T14:06:20Z</time>
      </trkpt>
      <trkpt lat="46.5951" lon="5.39186">
        <ele>225.2</ele>
        <time>2022-05-18T14:06:22Z</time>
      </trkpt>
      <trkpt lat="46.59502" lon="5.39165">
        <ele>225</ele>
        <time>2022-05-18T14:06:24Z</time>
      </trkpt>
      <trkpt lat="46.595" lon="5.39153">
        <ele>225</ele>
        <time>2022-05-18T14:06:25Z</time>
      </trkpt>
      <trkpt lat="46.59491" lon="5.39079">
        <ele>224.8</ele>
        <time>2022-05-18T14:06:31Z</time>
      </trkpt>
      <trkpt lat="46.59482" lon="5.38993">
        <ele>224.6</ele>
        <time>2022-05-18T14:06:38Z</time>
      </trkpt>
      <trkpt lat="46.59476" lon="5.38959">
        <ele>224.4</ele>
        <time>2022-05-18T14:06:41Z</time>
      </trkpt>
      <trkpt lat="46.59473" lon="5.38948">
        <ele>224.2</ele>
        <time>2022-05-18T14:06:42Z</time>
      </trkpt>
      <trkpt lat="46.59462" lon="5.38918">
        <ele>224.2</ele>
        <time>2022-05-18T14:06:45Z</time>
      </trkpt>
      <trkpt lat="46.59455" lon="5.38897">
        <ele>224.2</ele>
        <time>2022-05-18T14:06:47Z</time>
      </trkpt>
      <trkpt lat="46.59451" lon="5.38875">
        <ele>224.6</ele>
        <time>2022-05-18T14:06:49Z</time>
      </trkpt>
      <trkpt lat="46.59444" lon="5.3881">
        <ele>225</ele>
        <time>2022-05-18T14:06:55Z</time>
      </trkpt>
      <trkpt lat="46.59437" lon="5.3879">
        <ele>225.2</ele>
        <time>2022-05-18T14:06:57Z</time>
      </trkpt>
      <trkpt lat="46.59426" lon="5.38772">
        <ele>225.2</ele>
        <time>2022-05-18T14:06:59Z</time>
      </trkpt>
      <trkpt lat="46.59386" lon="5.38729">
        <ele>225</ele>
        <time>2022-05-18T14:07:05Z</time>
      </trkpt>
      <trkpt lat="46.5934" lon="5.3868">
        <ele>224.2</ele>
        <time>2022-05-18T14:07:12Z</time>
      </trkpt>
      <trkpt lat="46.59334" lon="5.38672">
        <ele>224.2</ele>
        <time>2022-05-18T14:07:13Z</time>
      </trkpt>
      <trkpt lat="46.59294" lon="5.38629">
        <ele>224</ele>
        <time>2022-05-18T14:07:19Z</time>
      </trkpt>
      <trkpt lat="46.59248" lon="5.3858">
        <ele>224</ele>
        <time>2022-05-18T14:07:26Z</time>
      </trkpt>
      <trkpt lat="46.59231" lon="5.3856">
        <ele>224.6</ele>
        <time>2022-05-18T14:07:29Z</time>
      </trkpt>
      <trkpt lat="46.59196" lon="5.38524">
        <ele>224.8</ele>
        <time>2022-05-18T14:07:35Z</time>
      </trkpt>
      <trkpt lat="46.59159" lon="5.38477">
        <ele>224.6</ele>
        <time>2022-05-18T14:07:41Z</time>
      </trkpt>
      <trkpt lat="46.59132" lon="5.38429">
        <ele>224</ele>
        <time>2022-05-18T14:07:46Z</time>
      </trkpt>
      <trkpt lat="46.59111" lon="5.38405">
        <ele>223.4</ele>
        <time>2022-05-18T14:07:49Z</time>
      </trkpt>
      <trkpt lat="46.59103" lon="5.38397">
        <ele>222.8</ele>
        <time>2022-05-18T14:07:50Z</time>
      </trkpt>
      <trkpt lat="46.5908" lon="5.38376">
        <ele>222.2</ele>
        <time>2022-05-18T14:07:53Z</time>
      </trkpt>
      <trkpt lat="46.59055" lon="5.38356">
        <ele>221</ele>
        <time>2022-05-18T14:07:56Z</time>
      </trkpt>
      <trkpt lat="46.59047" lon="5.3835">
        <ele>220.6</ele>
        <time>2022-05-18T14:07:57Z</time>
      </trkpt>
      <trkpt lat="46.59022" lon="5.38329">
        <ele>220</ele>
        <time>2022-05-18T14:08:00Z</time>
      </trkpt>
      <trkpt lat="46.58981" lon="5.38295">
        <ele>219</ele>
        <time>2022-05-18T14:08:05Z</time>
      </trkpt>
      <trkpt lat="46.58973" lon="5.38288">
        <ele>218.8</ele>
        <time>2022-05-18T14:08:06Z</time>
      </trkpt>
      <trkpt lat="46.58937" lon="5.38257">
        <ele>218.4</ele>
        <time>2022-05-18T14:08:11Z</time>
      </trkpt>
      <trkpt lat="46.58903" lon="5.38216">
        <ele>218.4</ele>
        <time>2022-05-18T14:08:17Z</time>
      </trkpt>
      <trkpt lat="46.58866" lon="5.38171">
        <ele>219.2</ele>
        <time>2022-05-18T14:08:24Z</time>
      </trkpt>
      <trkpt lat="46.58852" lon="5.38152">
        <ele>220.2</ele>
        <time>2022-05-18T14:08:27Z</time>
      </trkpt>
      <trkpt lat="46.58819" lon="5.38111">
        <ele>221.2</ele>
        <time>2022-05-18T14:08:34Z</time>
      </trkpt>
      <trkpt lat="46.58778" lon="5.38067">
        <ele>221.8</ele>
        <time>2022-05-18T14:08:42Z</time>
      </trkpt>
      <trkpt lat="46.58772" lon="5.38063">
        <ele>221.6</ele>
        <time>2022-05-18T14:08:43Z</time>
      </trkpt>
      <trkpt lat="46.5875" lon="5.38056">
        <ele>221.6</ele>
        <time>2022-05-18T14:08:46Z</time>
      </trkpt>
      <trkpt lat="46.58704" lon="5.38053">
        <ele>220.8</ele>
        <time>2022-05-18T14:08:52Z</time>
      </trkpt>
      <trkpt lat="46.5865" lon="5.3805">
        <ele>220.4</ele>
        <time>2022-05-18T14:08:59Z</time>
      </trkpt>
      <trkpt lat="46.58642" lon="5.38048">
        <ele>220.4</ele>
        <time>2022-05-18T14:09:00Z</time>
      </trkpt>
      <trkpt lat="46.58633" lon="5.38046">
        <ele>220.4</ele>
        <time>2022-05-18T14:09:01Z</time>
      </trkpt>
      <trkpt lat="46.58626" lon="5.38043">
        <ele>220.2</ele>
        <time>2022-05-18T14:09:02Z</time>
      </trkpt>
      <trkpt lat="46.58618" lon="5.38039">
        <ele>220</ele>
        <time>2022-05-18T14:09:03Z</time>
      </trkpt>
      <trkpt lat="46.58604" lon="5.38029">
        <ele>219.6</ele>
        <time>2022-05-18T14:09:05Z</time>
      </trkpt>
      <trkpt lat="46.58584" lon="5.38009">
        <ele>219.4</ele>
        <time>2022-05-18T14:09:08Z</time>
      </trkpt>
      <trkpt lat="46.58569" lon="5.38">
        <ele>219.2</ele>
        <time>2022-05-18T14:09:10Z</time>
      </trkpt>
      <trkpt lat="46.58553" lon="5.38001">
        <ele>219</ele>
        <time>2022-05-18T14:09:12Z</time>
      </trkpt>
      <trkpt lat="46.58545" lon="5.38005">
        <ele>219</ele>
        <time>2022-05-18T14:09:13Z</time>
      </trkpt>
      <trkpt lat="46.58514" lon="5.38024">
        <ele>218.8</ele>
        <time>2022-05-18T14:09:17Z</time>
      </trkpt>
      <trkpt lat="46.58498" lon="5.38028">
        <ele>218.8</ele>
        <time>2022-05-18T14:09:19Z</time>
      </trkpt>
      <trkpt lat="46.58482" lon="5.38027">
        <ele>218.8</ele>
        <time>2022-05-18T14:09:21Z</time>
      </trkpt>
      <trkpt lat="46.58465" lon="5.38021">
        <ele>218.8</ele>
        <time>2022-05-18T14:09:23Z</time>
      </trkpt>
      <trkpt lat="46.5841" lon="5.38001">
        <ele>218</ele>
        <time>2022-05-18T14:09:29Z</time>
      </trkpt>
      <trkpt lat="46.58391" lon="5.37994">
        <ele>217</ele>
        <time>2022-05-18T14:09:31Z</time>
      </trkpt>
      <trkpt lat="46.58372" lon="5.37987">
        <ele>215.6</ele>
        <time>2022-05-18T14:09:33Z</time>
      </trkpt>
      <trkpt lat="46.58344" lon="5.37975">
        <ele>215</ele>
        <time>2022-05-18T14:09:36Z</time>
      </trkpt>
      <trkpt lat="46.58334" lon="5.37971">
        <ele>214.6</ele>
        <time>2022-05-18T14:09:37Z</time>
      </trkpt>
      <trkpt lat="46.58289" lon="5.37945">
        <ele>213.4</ele>
        <time>2022-05-18T14:09:42Z</time>
      </trkpt>
      <trkpt lat="46.58236" lon="5.37911">
        <ele>212.2</ele>
        <time>2022-05-18T14:09:48Z</time>
      </trkpt>
      <trkpt lat="46.58201" lon="5.37889">
        <ele>211.2</ele>
        <time>2022-05-18T14:09:52Z</time>
      </trkpt>
      <trkpt lat="46.58183" lon="5.37879">
        <ele>210</ele>
        <time>2022-05-18T14:09:54Z</time>
      </trkpt>
      <trkpt lat="46.58164" lon="5.37875">
        <ele>209.6</ele>
        <time>2022-05-18T14:09:56Z</time>
      </trkpt>
      <trkpt lat="46.58146" lon="5.37882">
        <ele>209.4</ele>
        <time>2022-05-18T14:09:58Z</time>
      </trkpt>
      <trkpt lat="46.58138" lon="5.37888">
        <ele>209.2</ele>
        <time>2022-05-18T14:09:59Z</time>
      </trkpt>
      <trkpt lat="46.58122" lon="5.37902">
        <ele>209</ele>
        <time>2022-05-18T14:10:01Z</time>
      </trkpt>
      <trkpt lat="46.58104" lon="5.3791">
        <ele>208.6</ele>
        <time>2022-05-18T14:10:03Z</time>
      </trkpt>
      <trkpt lat="46.5805" lon="5.37929">
        <ele>208.2</ele>
        <time>2022-05-18T14:10:09Z</time>
      </trkpt>
      <trkpt lat="46.58041" lon="5.37931">
        <ele>208.2</ele>
        <time>2022-05-18T14:10:10Z</time>
      </trkpt>
      <trkpt lat="46.58025" lon="5.37937">
        <ele>208.4</ele>
        <time>2022-05-18T14:10:12Z</time>
      </trkpt>
      <trkpt lat="46.58002" lon="5.37947">
        <ele>208.4</ele>
        <time>2022-05-18T14:10:15Z</time>
      </trkpt>
      <trkpt lat="46.5796" lon="5.37979">
        <ele>209</ele>
        <time>2022-05-18T14:10:21Z</time>
      </trkpt>
      <trkpt lat="46.57922" lon="5.38006">
        <ele>209.2</ele>
        <time>2022-05-18T14:10:27Z</time>
      </trkpt>
      <trkpt lat="46.57917" lon="5.38012">
        <ele>209.2</ele>
        <time>2022-05-18T14:10:28Z</time>
      </trkpt>
      <trkpt lat="46.57908" lon="5.38027">
        <ele>209.6</ele>
        <time>2022-05-18T14:10:30Z</time>
      </trkpt>
      <trkpt lat="46.57905" lon="5.38035">
        <ele>210</ele>
        <time>2022-05-18T14:10:31Z</time>
      </trkpt>
      <trkpt lat="46.57899" lon="5.38053">
        <ele>210.2</ele>
        <time>2022-05-18T14:10:33Z</time>
      </trkpt>
      <trkpt lat="46.57885" lon="5.38098">
        <ele>211.6</ele>
        <time>2022-05-18T14:10:38Z</time>
      </trkpt>
      <trkpt lat="46.57862" lon="5.38162">
        <ele>212</ele>
        <time>2022-05-18T14:10:45Z</time>
      </trkpt>
      <trkpt lat="46.5785" lon="5.38187">
        <ele>212</ele>
        <time>2022-05-18T14:10:48Z</time>
      </trkpt>
      <trkpt lat="46.5784" lon="5.38201">
        <ele>212.2</ele>
        <time>2022-05-18T14:10:50Z</time>
      </trkpt>
      <trkpt lat="46.57794" lon="5.38245">
        <ele>212.2</ele>
        <time>2022-05-18T14:10:58Z</time>
      </trkpt>
      <trkpt lat="46.57756" lon="5.38283">
        <ele>212.4</ele>
        <time>2022-05-18T14:11:05Z</time>
      </trkpt>
      <trkpt lat="46.57739" lon="5.38294">
        <ele>212.8</ele>
        <time>2022-05-18T14:11:08Z</time>
      </trkpt>
      <trkpt lat="46.57728" lon="5.38299">
        <ele>213</ele>
        <time>2022-05-18T14:11:10Z</time>
      </trkpt>
      <trkpt lat="46.57707" lon="5.38307">
        <ele>213</ele>
        <time>2022-05-18T14:11:15Z</time>
      </trkpt>
      <trkpt lat="46.57679" lon="5.38311">
        <ele>213</ele>
        <time>2022-05-18T14:11:20Z</time>
      </trkpt>
      <trkpt lat="46.57646" lon="5.38318">
        <ele>212.4</ele>
        <time>2022-05-18T14:11:25Z</time>
      </trkpt>
      <trkpt lat="46.57634" lon="5.38322">
        <ele>212.4</ele>
        <time>2022-05-18T14:11:27Z</time>
      </trkpt>
      <trkpt lat="46.57627" lon="5.38319">
        <ele>212.2</ele>
        <time>2022-05-18T14:11:28Z</time>
      </trkpt>
      <trkpt lat="46.57622" lon="5.38312">
        <ele>212.2</ele>
        <time>2022-05-18T14:11:29Z</time>
      </trkpt>
      <trkpt lat="46.57613" lon="5.38292">
        <ele>211.8</ele>
        <time>2022-05-18T14:11:31Z</time>
      </trkpt>
      <trkpt lat="46.57608" lon="5.38281">
        <ele>211.8</ele>
        <time>2022-05-18T14:11:32Z</time>
      </trkpt>
      <trkpt lat="46.57591" lon="5.38251">
        <ele>211.2</ele>
        <time>2022-05-18T14:11:35Z</time>
      </trkpt>
      <trkpt lat="46.57578" lon="5.38233">
        <ele>210.6</ele>
        <time>2022-05-18T14:11:37Z</time>
      </trkpt>
      <trkpt lat="46.57563" lon="5.38217">
        <ele>209.4</ele>
        <time>2022-05-18T14:11:39Z</time>
      </trkpt>
      <trkpt lat="46.57516" lon="5.3818">
        <ele>208.4</ele>
        <time>2022-05-18T14:11:45Z</time>
      </trkpt>
      <trkpt lat="46.57508" lon="5.38174">
        <ele>208.4</ele>
        <time>2022-05-18T14:11:46Z</time>
      </trkpt>
      <trkpt lat="46.57458" lon="5.38135">
        <ele>208.2</ele>
        <time>2022-05-18T14:11:53Z</time>
      </trkpt>
      <trkpt lat="46.57444" lon="5.38124">
        <ele>208.2</ele>
        <time>2022-05-18T14:11:55Z</time>
      </trkpt>
      <trkpt lat="46.57396" lon="5.38087">
        <ele>208.6</ele>
        <time>2022-05-18T14:12:02Z</time>
      </trkpt>
      <trkpt lat="46.5739" lon="5.3808">
        <ele>208.6</ele>
        <time>2022-05-18T14:12:03Z</time>
      </trkpt>
      <trkpt lat="46.57379" lon="5.38066">
        <ele>208.8</ele>
        <time>2022-05-18T14:12:05Z</time>
      </trkpt>
      <trkpt lat="46.57371" lon="5.38051">
        <ele>209</ele>
        <time>2022-05-18T14:12:07Z</time>
      </trkpt>
      <trkpt lat="46.57354" lon="5.38015">
        <ele>209.6</ele>
        <time>2022-05-18T14:12:12Z</time>
      </trkpt>
      <trkpt lat="46.57351" lon="5.38008">
        <ele>209.8</ele>
        <time>2022-05-18T14:12:13Z</time>
      </trkpt>
      <trkpt lat="46.57337" lon="5.37979">
        <ele>210.6</ele>
        <time>2022-05-18T14:12:17Z</time>
      </trkpt>
      <trkpt lat="46.57333" lon="5.37967">
        <ele>211.2</ele>
        <time>2022-05-18T14:12:19Z</time>
      </trkpt>
      <trkpt lat="46.57327" lon="5.37954">
        <ele>212</ele>
        <time>2022-05-18T14:12:21Z</time>
      </trkpt>
      <trkpt lat="46.57315" lon="5.37928">
        <ele>213.2</ele>
        <time>2022-05-18T14:12:25Z</time>
      </trkpt>
      <trkpt lat="46.57291" lon="5.37881">
        <ele>214.4</ele>
        <time>2022-05-18T14:12:32Z</time>
      </trkpt>
      <trkpt lat="46.57279" lon="5.37856">
        <ele>215</ele>
        <time>2022-05-18T14:12:36Z</time>
      </trkpt>
      <trkpt lat="46.57273" lon="5.37845">
        <ele>215.4</ele>
        <time>2022-05-18T14:12:38Z</time>
      </trkpt>
      <trkpt lat="46.57263" lon="5.37824">
        <ele>216.6</ele>
        <time>2022-05-18T14:12:42Z</time>
      </trkpt>
      <trkpt lat="46.57258" lon="5.37813">
        <ele>217</ele>
        <time>2022-05-18T14:12:44Z</time>
      </trkpt>
      <trkpt lat="46.57247" lon="5.37792">
        <ele>217.8</ele>
        <time>2022-05-18T14:12:48Z</time>
      </trkpt>
      <trkpt lat="46.5723" lon="5.37761">
        <ele>218.6</ele>
        <time>2022-05-18T14:12:54Z</time>
      </trkpt>
      <trkpt lat="46.57226" lon="5.37757">
        <ele>219</ele>
        <time>2022-05-18T14:12:55Z</time>
      </trkpt>
      <trkpt lat="46.57222" lon="5.37755">
        <ele>219.2</ele>
        <time>2022-05-18T14:12:56Z</time>
      </trkpt>
      <trkpt lat="46.57213" lon="5.37755">
        <ele>219.6</ele>
        <time>2022-05-18T14:12:58Z</time>
      </trkpt>
      <trkpt lat="46.57205" lon="5.3776">
        <ele>220</ele>
        <time>2022-05-18T14:13:00Z</time>
      </trkpt>
      <trkpt lat="46.57197" lon="5.37769">
        <ele>220.4</ele>
        <time>2022-05-18T14:13:02Z</time>
      </trkpt>
      <trkpt lat="46.57169" lon="5.37803">
        <ele>220.8</ele>
        <time>2022-05-18T14:13:08Z</time>
      </trkpt>
      <trkpt lat="46.57133" lon="5.3784">
        <ele>220.4</ele>
        <time>2022-05-18T14:13:14Z</time>
      </trkpt>
      <trkpt lat="46.57097" lon="5.37874">
        <ele>218.6</ele>
        <time>2022-05-18T14:13:19Z</time>
      </trkpt>
      <trkpt lat="46.57089" lon="5.3788">
        <ele>218.4</ele>
        <time>2022-05-18T14:13:20Z</time>
      </trkpt>
      <trkpt lat="46.57054" lon="5.3791">
        <ele>217.6</ele>
        <time>2022-05-18T14:13:25Z</time>
      </trkpt>
      <trkpt lat="46.57027" lon="5.37932">
        <ele>217.6</ele>
        <time>2022-05-18T14:13:29Z</time>
      </trkpt>
      <trkpt lat="46.56995" lon="5.37955">
        <ele>217.8</ele>
        <time>2022-05-18T14:13:34Z</time>
      </trkpt>
      <trkpt lat="46.56952" lon="5.37983">
        <ele>219</ele>
        <time>2022-05-18T14:13:41Z</time>
      </trkpt>
      <trkpt lat="46.56934" lon="5.37988">
        <ele>219.2</ele>
        <time>2022-05-18T14:13:44Z</time>
      </trkpt>
      <trkpt lat="46.56922" lon="5.37987">
        <ele>219.4</ele>
        <time>2022-05-18T14:13:46Z</time>
      </trkpt>
      <trkpt lat="46.56892" lon="5.37979">
        <ele>220</ele>
        <time>2022-05-18T14:13:51Z</time>
      </trkpt>
      <trkpt lat="46.5688" lon="5.37977">
        <ele>220.2</ele>
        <time>2022-05-18T14:13:53Z</time>
      </trkpt>
      <trkpt lat="46.56851" lon="5.37971">
        <ele>221.2</ele>
        <time>2022-05-18T14:13:58Z</time>
      </trkpt>
      <trkpt lat="46.56831" lon="5.37966">
        <ele>221.6</ele>
        <time>2022-05-18T14:14:01Z</time>
      </trkpt>
      <trkpt lat="46.56782" lon="5.37954">
        <ele>222</ele>
        <time>2022-05-18T14:14:08Z</time>
      </trkpt>
      <trkpt lat="46.56746" lon="5.37946">
        <ele>222.2</ele>
        <time>2022-05-18T14:14:13Z</time>
      </trkpt>
      <trkpt lat="46.56718" lon="5.3794">
        <ele>222.8</ele>
        <time>2022-05-18T14:14:17Z</time>
      </trkpt>
      <trkpt lat="46.56676" lon="5.37931">
        <ele>223.2</ele>
        <time>2022-05-18T14:14:23Z</time>
      </trkpt>
      <trkpt lat="46.56634" lon="5.37921">
        <ele>224.2</ele>
        <time>2022-05-18T14:14:29Z</time>
      </trkpt>
      <trkpt lat="46.56627" lon="5.3792">
        <ele>224.2</ele>
        <time>2022-05-18T14:14:30Z</time>
      </trkpt>
      <trkpt lat="46.56571" lon="5.37915">
        <ele>224.6</ele>
        <time>2022-05-18T14:14:38Z</time>
      </trkpt>
      <trkpt lat="46.56564" lon="5.37917">
        <ele>224.6</ele>
        <time>2022-05-18T14:14:39Z</time>
      </trkpt>
      <trkpt lat="46.5655" lon="5.37925">
        <ele>224.4</ele>
        <time>2022-05-18T14:14:41Z</time>
      </trkpt>
      <trkpt lat="46.56543" lon="5.3793">
        <ele>224.4</ele>
        <time>2022-05-18T14:14:42Z</time>
      </trkpt>
      <trkpt lat="46.56528" lon="5.3794">
        <ele>224.2</ele>
        <time>2022-05-18T14:14:44Z</time>
      </trkpt>
      <trkpt lat="46.56512" lon="5.37948">
        <ele>224</ele>
        <time>2022-05-18T14:14:46Z</time>
      </trkpt>
      <trkpt lat="46.56495" lon="5.3795">
        <ele>223.8</ele>
        <time>2022-05-18T14:14:48Z</time>
      </trkpt>
      <trkpt lat="46.56486" lon="5.37948">
        <ele>223.8</ele>
        <time>2022-05-18T14:14:49Z</time>
      </trkpt>
      <trkpt lat="46.56452" lon="5.3794">
        <ele>223.2</ele>
        <time>2022-05-18T14:14:53Z</time>
      </trkpt>
      <trkpt lat="46.5641" lon="5.37929">
        <ele>223</ele>
        <time>2022-05-18T14:14:58Z</time>
      </trkpt>
      <trkpt lat="46.56392" lon="5.37928">
        <ele>222.8</ele>
        <time>2022-05-18T14:15:00Z</time>
      </trkpt>
      <trkpt lat="46.56375" lon="5.37933">
        <ele>222.6</ele>
        <time>2022-05-18T14:15:02Z</time>
      </trkpt>
      <trkpt lat="46.5634" lon="5.3795">
        <ele>222</ele>
        <time>2022-05-18T14:15:06Z</time>
      </trkpt>
      <trkpt lat="46.56303" lon="5.37948">
        <ele>221.2</ele>
        <time>2022-05-18T14:15:10Z</time>
      </trkpt>
      <trkpt lat="46.56294" lon="5.37948">
        <ele>221</ele>
        <time>2022-05-18T14:15:11Z</time>
      </trkpt>
      <trkpt lat="46.56276" lon="5.37953">
        <ele>220.8</ele>
        <time>2022-05-18T14:15:13Z</time>
      </trkpt>
      <trkpt lat="46.56268" lon="5.37957">
        <ele>220.8</ele>
        <time>2022-05-18T14:15:14Z</time>
      </trkpt>
      <trkpt lat="46.56213" lon="5.37987">
        <ele>221</ele>
        <time>2022-05-18T14:15:21Z</time>
      </trkpt>
      <trkpt lat="46.562" lon="5.38001">
        <ele>221.2</ele>
        <time>2022-05-18T14:15:23Z</time>
      </trkpt>
      <trkpt lat="46.5619" lon="5.38018">
        <ele>221</ele>
        <time>2022-05-18T14:15:25Z</time>
      </trkpt>
      <trkpt lat="46.56156" lon="5.38081">
        <ele>221.8</ele>
        <time>2022-05-18T14:15:32Z</time>
      </trkpt>
      <trkpt lat="46.5615" lon="5.3809">
        <ele>222</ele>
        <time>2022-05-18T14:15:33Z</time>
      </trkpt>
      <trkpt lat="46.5613" lon="5.38109">
        <ele>222</ele>
        <time>2022-05-18T14:15:36Z</time>
      </trkpt>
      <trkpt lat="46.5608" lon="5.38146">
        <ele>222</ele>
        <time>2022-05-18T14:15:43Z</time>
      </trkpt>
      <trkpt lat="46.5606" lon="5.3816">
        <ele>222.2</ele>
        <time>2022-05-18T14:15:46Z</time>
      </trkpt>
      <trkpt lat="46.56053" lon="5.38165">
        <ele>222.2</ele>
        <time>2022-05-18T14:15:47Z</time>
      </trkpt>
      <trkpt lat="46.56026" lon="5.38187">
        <ele>222.6</ele>
        <time>2022-05-18T14:15:51Z</time>
      </trkpt>
      <trkpt lat="46.56019" lon="5.38194">
        <ele>222.8</ele>
        <time>2022-05-18T14:15:52Z</time>
      </trkpt>
      <trkpt lat="46.56014" lon="5.38202">
        <ele>222.8</ele>
        <time>2022-05-18T14:15:53Z</time>
      </trkpt>
      <trkpt lat="46.56006" lon="5.38223">
        <ele>222.8</ele>
        <time>2022-05-18T14:15:55Z</time>
      </trkpt>
      <trkpt lat="46.55996" lon="5.38292">
        <ele>222.8</ele>
        <time>2022-05-18T14:16:01Z</time>
      </trkpt>
      <trkpt lat="46.55992" lon="5.38325">
        <ele>222.8</ele>
        <time>2022-05-18T14:16:04Z</time>
      </trkpt>
      <trkpt lat="46.55988" lon="5.38346">
        <ele>223</ele>
        <time>2022-05-18T14:16:06Z</time>
      </trkpt>
      <trkpt lat="46.55987" lon="5.38356">
        <ele>223.4</ele>
        <time>2022-05-18T14:16:07Z</time>
      </trkpt>
      <trkpt lat="46.55983" lon="5.38396">
        <ele>224.2</ele>
        <time>2022-05-18T14:16:11Z</time>
      </trkpt>
      <trkpt lat="46.55981" lon="5.38423">
        <ele>224.6</ele>
        <time>2022-05-18T14:16:14Z</time>
      </trkpt>
      <trkpt lat="46.55979" lon="5.38451">
        <ele>225.2</ele>
        <time>2022-05-18T14:16:17Z</time>
      </trkpt>
      <trkpt lat="46.55978" lon="5.3846">
        <ele>225.6</ele>
        <time>2022-05-18T14:16:18Z</time>
      </trkpt>
      <trkpt lat="46.55978" lon="5.38477">
        <ele>226</ele>
        <time>2022-05-18T14:16:20Z</time>
      </trkpt>
      <trkpt lat="46.55979" lon="5.38495">
        <ele>226.4</ele>
        <time>2022-05-18T14:16:22Z</time>
      </trkpt>
      <trkpt lat="46.5598" lon="5.38505">
        <ele>226.6</ele>
        <time>2022-05-18T14:16:23Z</time>
      </trkpt>
      <trkpt lat="46.55988" lon="5.38558">
        <ele>227.2</ele>
        <time>2022-05-18T14:16:28Z</time>
      </trkpt>
      <trkpt lat="46.55997" lon="5.38632">
        <ele>226.4</ele>
        <time>2022-05-18T14:16:35Z</time>
      </trkpt>
      <trkpt lat="46.56002" lon="5.38672">
        <ele>226.2</ele>
        <time>2022-05-18T14:16:39Z</time>
      </trkpt>
      <trkpt lat="46.56002" lon="5.38695">
        <ele>226.2</ele>
        <time>2022-05-18T14:16:41Z</time>
      </trkpt>
      <trkpt lat="46.56009" lon="5.38771">
        <ele>226.8</ele>
        <time>2022-05-18T14:16:48Z</time>
      </trkpt>
      <trkpt lat="46.56009" lon="5.38794">
        <ele>226.8</ele>
        <time>2022-05-18T14:16:50Z</time>
      </trkpt>
      <trkpt lat="46.56007" lon="5.38821">
        <ele>226.4</ele>
        <time>2022-05-18T14:16:52Z</time>
      </trkpt>
      <trkpt lat="46.55995" lon="5.38876">
        <ele>225.2</ele>
        <time>2022-05-18T14:16:56Z</time>
      </trkpt>
      <trkpt lat="46.55987" lon="5.38903">
        <ele>224</ele>
        <time>2022-05-18T14:16:58Z</time>
      </trkpt>
      <trkpt lat="46.55974" lon="5.3894">
        <ele>223</ele>
        <time>2022-05-18T14:17:01Z</time>
      </trkpt>
      <trkpt lat="46.55969" lon="5.38953">
        <ele>222.6</ele>
        <time>2022-05-18T14:17:02Z</time>
      </trkpt>
      <trkpt lat="46.55956" lon="5.38988">
        <ele>221.8</ele>
        <time>2022-05-18T14:17:05Z</time>
      </trkpt>
      <trkpt lat="46.55946" lon="5.39024">
        <ele>221.6</ele>
        <time>2022-05-18T14:17:08Z</time>
      </trkpt>
      <trkpt lat="46.55944" lon="5.39035">
        <ele>221.6</ele>
        <time>2022-05-18T14:17:09Z</time>
      </trkpt>
      <trkpt lat="46.55937" lon="5.39102">
        <ele>222.4</ele>
        <time>2022-05-18T14:17:15Z</time>
      </trkpt>
      <trkpt lat="46.55936" lon="5.39122">
        <ele>223</ele>
        <time>2022-05-18T14:17:17Z</time>
      </trkpt>
      <trkpt lat="46.55935" lon="5.39155">
        <ele>224.2</ele>
        <time>2022-05-18T14:17:20Z</time>
      </trkpt>
      <trkpt lat="46.55935" lon="5.39187">
        <ele>225.2</ele>
        <time>2022-05-18T14:17:23Z</time>
      </trkpt>
      <trkpt lat="46.55935" lon="5.39198">
        <ele>225.6</ele>
        <time>2022-05-18T14:17:24Z</time>
      </trkpt>
      <trkpt lat="46.55933" lon="5.3924">
        <ele>226.4</ele>
        <time>2022-05-18T14:17:28Z</time>
      </trkpt>
      <trkpt lat="46.5593" lon="5.3927">
        <ele>226.8</ele>
        <time>2022-05-18T14:17:31Z</time>
      </trkpt>
      <trkpt lat="46.5592" lon="5.39349">
        <ele>227.2</ele>
        <time>2022-05-18T14:17:39Z</time>
      </trkpt>
      <trkpt lat="46.55919" lon="5.39358">
        <ele>227.4</ele>
        <time>2022-05-18T14:17:40Z</time>
      </trkpt>
      <trkpt lat="46.55918" lon="5.39368">
        <ele>227.4</ele>
        <time>2022-05-18T14:17:41Z</time>
      </trkpt>
      <trkpt lat="46.55911" lon="5.39432">
        <ele>228.4</ele>
        <time>2022-05-18T14:17:48Z</time>
      </trkpt>
      <trkpt lat="46.55904" lon="5.39496">
        <ele>229.4</ele>
        <time>2022-05-18T14:17:55Z</time>
      </trkpt>
      <trkpt lat="46.55901" lon="5.39515">
        <ele>229.6</ele>
        <time>2022-05-18T14:17:57Z</time>
      </trkpt>
      <trkpt lat="46.55891" lon="5.39599">
        <ele>230</ele>
        <time>2022-05-18T14:18:06Z</time>
      </trkpt>
      <trkpt lat="46.5589" lon="5.39608">
        <ele>230.2</ele>
        <time>2022-05-18T14:18:07Z</time>
      </trkpt>
      <trkpt lat="46.55883" lon="5.39645">
        <ele>230.6</ele>
        <time>2022-05-18T14:18:11Z</time>
      </trkpt>
      <trkpt lat="46.55874" lon="5.3968">
        <ele>230.6</ele>
        <time>2022-05-18T14:18:15Z</time>
      </trkpt>
      <trkpt lat="46.55854" lon="5.39758">
        <ele>231.2</ele>
        <time>2022-05-18T14:18:24Z</time>
      </trkpt>
      <trkpt lat="46.55847" lon="5.39782">
        <ele>231.6</ele>
        <time>2022-05-18T14:18:27Z</time>
      </trkpt>
      <trkpt lat="46.55834" lon="5.39831">
        <ele>232.4</ele>
        <time>2022-05-18T14:18:33Z</time>
      </trkpt>
      <trkpt lat="46.5583" lon="5.39849">
        <ele>232.6</ele>
        <time>2022-05-18T14:18:35Z</time>
      </trkpt>
      <trkpt lat="46.55817" lon="5.39896">
        <ele>232.6</ele>
        <time>2022-05-18T14:18:40Z</time>
      </trkpt>
      <trkpt lat="46.55814" lon="5.39904">
        <ele>232.6</ele>
        <time>2022-05-18T14:18:41Z</time>
      </trkpt>
      <trkpt lat="46.55805" lon="5.39915">
        <ele>232.6</ele>
        <time>2022-05-18T14:18:43Z</time>
      </trkpt>
      <trkpt lat="46.55793" lon="5.39911">
        <ele>232.4</ele>
        <time>2022-05-18T14:18:45Z</time>
      </trkpt>
      <trkpt lat="46.55758" lon="5.39883">
        <ele>232.4</ele>
        <time>2022-05-18T14:18:51Z</time>
      </trkpt>
      <trkpt lat="46.55715" lon="5.39843">
        <ele>233.4</ele>
        <time>2022-05-18T14:18:59Z</time>
      </trkpt>
      <trkpt lat="46.55706" lon="5.39834">
        <ele>233.8</ele>
        <time>2022-05-18T14:19:01Z</time>
      </trkpt>
      <trkpt lat="46.55691" lon="5.39822">
        <ele>235</ele>
        <time>2022-05-18T14:19:04Z</time>
      </trkpt>
      <trkpt lat="46.55681" lon="5.39813">
        <ele>235.6</ele>
        <time>2022-05-18T14:19:06Z</time>
      </trkpt>
      <trkpt lat="46.55666" lon="5.398">
        <ele>236</ele>
        <time>2022-05-18T14:19:09Z</time>
      </trkpt>
      <trkpt lat="46.55643" lon="5.39783">
        <ele>236.4</ele>
        <time>2022-05-18T14:19:13Z</time>
      </trkpt>
      <trkpt lat="46.556" lon="5.39753">
        <ele>236.4</ele>
        <time>2022-05-18T14:19:19Z</time>
      </trkpt>
      <trkpt lat="46.5555" lon="5.39712">
        <ele>235.4</ele>
        <time>2022-05-18T14:19:26Z</time>
      </trkpt>
      <trkpt lat="46.55543" lon="5.39706">
        <ele>235.2</ele>
        <time>2022-05-18T14:19:27Z</time>
      </trkpt>
      <trkpt lat="46.55537" lon="5.39701">
        <ele>235.2</ele>
        <time>2022-05-18T14:19:28Z</time>
      </trkpt>
      <trkpt lat="46.55499" lon="5.39669">
        <ele>235.6</ele>
        <time>2022-05-18T14:19:34Z</time>
      </trkpt>
      <trkpt lat="46.55447" lon="5.39626">
        <ele>235.8</ele>
        <time>2022-05-18T14:19:42Z</time>
      </trkpt>
      <trkpt lat="46.55441" lon="5.39621">
        <ele>235.8</ele>
        <time>2022-05-18T14:19:43Z</time>
      </trkpt>
      <trkpt lat="46.55414" lon="5.39598">
        <ele>236.4</ele>
        <time>2022-05-18T14:19:48Z</time>
      </trkpt>
      <trkpt lat="46.55393" lon="5.3958">
        <ele>237.6</ele>
        <time>2022-05-18T14:19:52Z</time>
      </trkpt>
      <trkpt lat="46.55371" lon="5.39561">
        <ele>238.4</ele>
        <time>2022-05-18T14:19:56Z</time>
      </trkpt>
      <trkpt lat="46.55342" lon="5.39538">
        <ele>238.8</ele>
        <time>2022-05-18T14:20:01Z</time>
      </trkpt>
      <trkpt lat="46.55337" lon="5.39533">
        <ele>238.8</ele>
        <time>2022-05-18T14:20:02Z</time>
      </trkpt>
      <trkpt lat="46.55287" lon="5.39496">
        <ele>239.2</ele>
        <time>2022-05-18T14:20:10Z</time>
      </trkpt>
      <trkpt lat="46.55268" lon="5.39481">
        <ele>239.4</ele>
        <time>2022-05-18T14:20:13Z</time>
      </trkpt>
      <trkpt lat="46.55237" lon="5.39452">
        <ele>239.2</ele>
        <time>2022-05-18T14:20:18Z</time>
      </trkpt>
      <trkpt lat="46.55231" lon="5.39444">
        <ele>239.2</ele>
        <time>2022-05-18T14:20:19Z</time>
      </trkpt>
      <trkpt lat="46.55226" lon="5.39436">
        <ele>239.2</ele>
        <time>2022-05-18T14:20:20Z</time>
      </trkpt>
      <trkpt lat="46.55213" lon="5.39426">
        <ele>239.2</ele>
        <time>2022-05-18T14:20:22Z</time>
      </trkpt>
      <trkpt lat="46.55182" lon="5.39423">
        <ele>239</ele>
        <time>2022-05-18T14:20:26Z</time>
      </trkpt>
      <trkpt lat="46.5516" lon="5.3942">
        <ele>239.4</ele>
        <time>2022-05-18T14:20:29Z</time>
      </trkpt>
      <trkpt lat="46.55146" lon="5.39414">
        <ele>239.4</ele>
        <time>2022-05-18T14:20:31Z</time>
      </trkpt>
      <trkpt lat="46.55104" lon="5.39395">
        <ele>239.8</ele>
        <time>2022-05-18T14:20:37Z</time>
      </trkpt>
      <trkpt lat="46.55082" lon="5.39386">
        <ele>240</ele>
        <time>2022-05-18T14:20:40Z</time>
      </trkpt>
      <trkpt lat="46.55036" lon="5.3936">
        <ele>239.2</ele>
        <time>2022-05-18T14:20:46Z</time>
      </trkpt>
      <trkpt lat="46.5501" lon="5.39343">
        <ele>238.8</ele>
        <time>2022-05-18T14:20:49Z</time>
      </trkpt>
      <trkpt lat="46.54981" lon="5.39327">
        <ele>238</ele>
        <time>2022-05-18T14:20:52Z</time>
      </trkpt>
      <trkpt lat="46.54971" lon="5.39323">
        <ele>237.8</ele>
        <time>2022-05-18T14:20:53Z</time>
      </trkpt>
      <trkpt lat="46.54951" lon="5.39314">
        <ele>236.2</ele>
        <time>2022-05-18T14:20:55Z</time>
      </trkpt>
      <trkpt lat="46.54923" lon="5.39304">
        <ele>235.2</ele>
        <time>2022-05-18T14:20:58Z</time>
      </trkpt>
      <trkpt lat="46.54915" lon="5.39301">
        <ele>235.2</ele>
        <time>2022-05-18T14:20:59Z</time>
      </trkpt>
      <trkpt lat="46.54882" lon="5.39291">
        <ele>235.2</ele>
        <time>2022-05-18T14:21:03Z</time>
      </trkpt>
      <trkpt lat="46.54859" lon="5.39282">
        <ele>236.2</ele>
        <time>2022-05-18T14:21:06Z</time>
      </trkpt>
      <trkpt lat="46.54836" lon="5.39273">
        <ele>237.4</ele>
        <time>2022-05-18T14:21:09Z</time>
      </trkpt>
      <trkpt lat="46.54828" lon="5.39269">
        <ele>237.6</ele>
        <time>2022-05-18T14:21:10Z</time>
      </trkpt>
      <trkpt lat="46.54813" lon="5.39261">
        <ele>238.2</ele>
        <time>2022-05-18T14:21:12Z</time>
      </trkpt>
      <trkpt lat="46.54805" lon="5.39257">
        <ele>238.8</ele>
        <time>2022-05-18T14:21:13Z</time>
      </trkpt>
      <trkpt lat="46.54783" lon="5.39245">
        <ele>240</ele>
        <time>2022-05-18T14:21:16Z</time>
      </trkpt>
      <trkpt lat="46.54762" lon="5.39235">
        <ele>240.8</ele>
        <time>2022-05-18T14:21:19Z</time>
      </trkpt>
      <trkpt lat="46.54755" lon="5.39231">
        <ele>241.2</ele>
        <time>2022-05-18T14:21:20Z</time>
      </trkpt>
      <trkpt lat="46.54718" lon="5.39212">
        <ele>242</ele>
        <time>2022-05-18T14:21:26Z</time>
      </trkpt>
      <trkpt lat="46.54712" lon="5.39209">
        <ele>242.4</ele>
        <time>2022-05-18T14:21:27Z</time>
      </trkpt>
      <trkpt lat="46.54675" lon="5.39192">
        <ele>243</ele>
        <time>2022-05-18T14:21:33Z</time>
      </trkpt>
      <trkpt lat="46.54635" lon="5.39174">
        <ele>243.4</ele>
        <time>2022-05-18T14:21:39Z</time>
      </trkpt>
      <trkpt lat="46.54628" lon="5.39171">
        <ele>243.4</ele>
        <time>2022-05-18T14:21:40Z</time>
      </trkpt>
      <trkpt lat="46.54571" lon="5.39145">
        <ele>243.2</ele>
        <time>2022-05-18T14:21:48Z</time>
      </trkpt>
      <trkpt lat="46.54565" lon="5.39141">
        <ele>243.2</ele>
        <time>2022-05-18T14:21:49Z</time>
      </trkpt>
      <trkpt lat="46.54528" lon="5.39119">
        <ele>243.8</ele>
        <time>2022-05-18T14:21:55Z</time>
      </trkpt>
      <trkpt lat="46.54518" lon="5.39113">
        <ele>244.2</ele>
        <time>2022-05-18T14:21:57Z</time>
      </trkpt>
      <trkpt lat="46.54513" lon="5.39112">
        <ele>244.4</ele>
        <time>2022-05-18T14:21:58Z</time>
      </trkpt>
      <trkpt lat="46.54508" lon="5.39113">
        <ele>244.6</ele>
        <time>2022-05-18T14:21:59Z</time>
      </trkpt>
      <trkpt lat="46.54502" lon="5.3912">
        <ele>245</ele>
        <time>2022-05-18T14:22:01Z</time>
      </trkpt>
      <trkpt lat="46.545" lon="5.39126">
        <ele>245.4</ele>
        <time>2022-05-18T14:22:02Z</time>
      </trkpt>
      <trkpt lat="46.54495" lon="5.39143">
        <ele>246.6</ele>
        <time>2022-05-18T14:22:05Z</time>
      </trkpt>
      <trkpt lat="46.5449" lon="5.39147">
        <ele>246.8</ele>
        <time>2022-05-18T14:22:06Z</time>
      </trkpt>
      <trkpt lat="46.54484" lon="5.39148">
        <ele>246.8</ele>
        <time>2022-05-18T14:22:07Z</time>
      </trkpt>
      <trkpt lat="46.54471" lon="5.39143">
        <ele>247</ele>
        <time>2022-05-18T14:22:09Z</time>
      </trkpt>
      <trkpt lat="46.5443" lon="5.39128">
        <ele>245.4</ele>
        <time>2022-05-18T14:22:14Z</time>
      </trkpt>
      <trkpt lat="46.54383" lon="5.39113">
        <ele>243.6</ele>
        <time>2022-05-18T14:22:19Z</time>
      </trkpt>
      <trkpt lat="46.54374" lon="5.39109">
        <ele>243.2</ele>
        <time>2022-05-18T14:22:20Z</time>
      </trkpt>
      <trkpt lat="46.54355" lon="5.39102">
        <ele>242.6</ele>
        <time>2022-05-18T14:22:22Z</time>
      </trkpt>
      <trkpt lat="46.54329" lon="5.39091">
        <ele>241.4</ele>
        <time>2022-05-18T14:22:25Z</time>
      </trkpt>
      <trkpt lat="46.54312" lon="5.39083">
        <ele>241</ele>
        <time>2022-05-18T14:22:27Z</time>
      </trkpt>
      <trkpt lat="46.54256" lon="5.39052">
        <ele>240.8</ele>
        <time>2022-05-18T14:22:34Z</time>
      </trkpt>
      <trkpt lat="46.54249" lon="5.39048">
        <ele>240.8</ele>
        <time>2022-05-18T14:22:35Z</time>
      </trkpt>
      <trkpt lat="46.54197" lon="5.39022">
        <ele>240.8</ele>
        <time>2022-05-18T14:22:42Z</time>
      </trkpt>
      <trkpt lat="46.5419" lon="5.39019">
        <ele>240.8</ele>
        <time>2022-05-18T14:22:43Z</time>
      </trkpt>
      <trkpt lat="46.54136" lon="5.38997">
        <ele>241.6</ele>
        <time>2022-05-18T14:22:51Z</time>
      </trkpt>
      <trkpt lat="46.54081" lon="5.38976">
        <ele>242.2</ele>
        <time>2022-05-18T14:22:59Z</time>
      </trkpt>
      <trkpt lat="46.54046" lon="5.3896">
        <ele>242.6</ele>
        <time>2022-05-18T14:23:04Z</time>
      </trkpt>
      <trkpt lat="46.54039" lon="5.38958">
        <ele>242.6</ele>
        <time>2022-05-18T14:23:05Z</time>
      </trkpt>
      <trkpt lat="46.53981" lon="5.38942">
        <ele>243</ele>
        <time>2022-05-18T14:23:13Z</time>
      </trkpt>
      <trkpt lat="46.53966" lon="5.38939">
        <ele>243.2</ele>
        <time>2022-05-18T14:23:15Z</time>
      </trkpt>
      <trkpt lat="46.53907" lon="5.38934">
        <ele>243.4</ele>
        <time>2022-05-18T14:23:23Z</time>
      </trkpt>
      <trkpt lat="46.539" lon="5.38934">
        <ele>243.4</ele>
        <time>2022-05-18T14:23:24Z</time>
      </trkpt>
      <trkpt lat="46.53851" lon="5.38929">
        <ele>243.8</ele>
        <time>2022-05-18T14:23:31Z</time>
      </trkpt>
      <trkpt lat="46.53845" lon="5.38927">
        <ele>243.8</ele>
        <time>2022-05-18T14:23:32Z</time>
      </trkpt>
      <trkpt lat="46.53794" lon="5.38907">
        <ele>244.6</ele>
        <time>2022-05-18T14:23:39Z</time>
      </trkpt>
      <trkpt lat="46.53735" lon="5.38889">
        <ele>244.6</ele>
        <time>2022-05-18T14:23:47Z</time>
      </trkpt>
      <trkpt lat="46.53694" lon="5.38871">
        <ele>244.6</ele>
        <time>2022-05-18T14:23:53Z</time>
      </trkpt>
      <trkpt lat="46.53648" lon="5.38851">
        <ele>244.8</ele>
        <time>2022-05-18T14:24:00Z</time>
      </trkpt>
      <trkpt lat="46.53599" lon="5.38823">
        <ele>244.8</ele>
        <time>2022-05-18T14:24:08Z</time>
      </trkpt>
      <trkpt lat="46.5358" lon="5.38813">
        <ele>245</ele>
        <time>2022-05-18T14:24:11Z</time>
      </trkpt>
      <trkpt lat="46.53561" lon="5.388">
        <ele>245</ele>
        <time>2022-05-18T14:24:14Z</time>
      </trkpt>
      <trkpt lat="46.5355" lon="5.38786">
        <ele>245</ele>
        <time>2022-05-18T14:24:16Z</time>
      </trkpt>
      <trkpt lat="46.5353" lon="5.38753">
        <ele>244.4</ele>
        <time>2022-05-18T14:24:20Z</time>
      </trkpt>
      <trkpt lat="46.53524" lon="5.38747">
        <ele>244.2</ele>
        <time>2022-05-18T14:24:21Z</time>
      </trkpt>
      <trkpt lat="46.53517" lon="5.38744">
        <ele>243.8</ele>
        <time>2022-05-18T14:24:22Z</time>
      </trkpt>
      <trkpt lat="46.53502" lon="5.38745">
        <ele>243.6</ele>
        <time>2022-05-18T14:24:24Z</time>
      </trkpt>
      <trkpt lat="46.53496" lon="5.38746">
        <ele>243.2</ele>
        <time>2022-05-18T14:24:25Z</time>
      </trkpt>
      <trkpt lat="46.5349" lon="5.38742">
        <ele>243</ele>
        <time>2022-05-18T14:24:26Z</time>
      </trkpt>
      <trkpt lat="46.53485" lon="5.38736">
        <ele>243</ele>
        <time>2022-05-18T14:24:27Z</time>
      </trkpt>
      <trkpt lat="46.5348" lon="5.38728">
        <ele>242.8</ele>
        <time>2022-05-18T14:24:28Z</time>
      </trkpt>
      <trkpt lat="46.53474" lon="5.38722">
        <ele>242.6</ele>
        <time>2022-05-18T14:24:29Z</time>
      </trkpt>
      <trkpt lat="46.5346" lon="5.38712">
        <ele>242.4</ele>
        <time>2022-05-18T14:24:31Z</time>
      </trkpt>
      <trkpt lat="46.53444" lon="5.38707">
        <ele>242.6</ele>
        <time>2022-05-18T14:24:33Z</time>
      </trkpt>
      <trkpt lat="46.53389" lon="5.38699">
        <ele>242.6</ele>
        <time>2022-05-18T14:24:40Z</time>
      </trkpt>
      <trkpt lat="46.53332" lon="5.38696">
        <ele>242.4</ele>
        <time>2022-05-18T14:24:47Z</time>
      </trkpt>
      <trkpt lat="46.53324" lon="5.38694">
        <ele>242.4</ele>
        <time>2022-05-18T14:24:48Z</time>
      </trkpt>
      <trkpt lat="46.53266" lon="5.38675">
        <ele>242</ele>
        <time>2022-05-18T14:24:55Z</time>
      </trkpt>
      <trkpt lat="46.53257" lon="5.38671">
        <ele>241.8</ele>
        <time>2022-05-18T14:24:56Z</time>
      </trkpt>
      <trkpt lat="46.53215" lon="5.38653">
        <ele>240.8</ele>
        <time>2022-05-18T14:25:01Z</time>
      </trkpt>
      <trkpt lat="46.53207" lon="5.38647">
        <ele>240.4</ele>
        <time>2022-05-18T14:25:02Z</time>
      </trkpt>
      <trkpt lat="46.53192" lon="5.38633">
        <ele>240</ele>
        <time>2022-05-18T14:25:04Z</time>
      </trkpt>
      <trkpt lat="46.53178" lon="5.38615">
        <ele>239.8</ele>
        <time>2022-05-18T14:25:06Z</time>
      </trkpt>
      <trkpt lat="46.53154" lon="5.38595">
        <ele>238.8</ele>
        <time>2022-05-18T14:25:09Z</time>
      </trkpt>
      <trkpt lat="46.53146" lon="5.38591">
        <ele>238.6</ele>
        <time>2022-05-18T14:25:10Z</time>
      </trkpt>
      <trkpt lat="46.53126" lon="5.3858">
        <ele>237.6</ele>
        <time>2022-05-18T14:25:13Z</time>
      </trkpt>
      <trkpt lat="46.53119" lon="5.38579">
        <ele>237.4</ele>
        <time>2022-05-18T14:25:14Z</time>
      </trkpt>
      <trkpt lat="46.53104" lon="5.38581">
        <ele>236.8</ele>
        <time>2022-05-18T14:25:16Z</time>
      </trkpt>
      <trkpt lat="46.53088" lon="5.38586">
        <ele>236.2</ele>
        <time>2022-05-18T14:25:18Z</time>
      </trkpt>
      <trkpt lat="46.53062" lon="5.38594">
        <ele>235</ele>
        <time>2022-05-18T14:25:21Z</time>
      </trkpt>
      <trkpt lat="46.53045" lon="5.38599">
        <ele>234.4</ele>
        <time>2022-05-18T14:25:23Z</time>
      </trkpt>
      <trkpt lat="46.53002" lon="5.38607">
        <ele>234</ele>
        <time>2022-05-18T14:25:28Z</time>
      </trkpt>
      <trkpt lat="46.52993" lon="5.38607">
        <ele>233.8</ele>
        <time>2022-05-18T14:25:29Z</time>
      </trkpt>
      <trkpt lat="46.52976" lon="5.38605">
        <ele>233.6</ele>
        <time>2022-05-18T14:25:31Z</time>
      </trkpt>
      <trkpt lat="46.52959" lon="5.38601">
        <ele>233.4</ele>
        <time>2022-05-18T14:25:33Z</time>
      </trkpt>
      <trkpt lat="46.5295" lon="5.38601">
        <ele>232.8</ele>
        <time>2022-05-18T14:25:34Z</time>
      </trkpt>
      <trkpt lat="46.52941" lon="5.38601">
        <ele>232.6</ele>
        <time>2022-05-18T14:25:35Z</time>
      </trkpt>
      <trkpt lat="46.52925" lon="5.38602">
        <ele>231.8</ele>
        <time>2022-05-18T14:25:37Z</time>
      </trkpt>
      <trkpt lat="46.52917" lon="5.38602">
        <ele>231.6</ele>
        <time>2022-05-18T14:25:38Z</time>
      </trkpt>
      <trkpt lat="46.52909" lon="5.38604">
        <ele>231</ele>
        <time>2022-05-18T14:25:39Z</time>
      </trkpt>
      <trkpt lat="46.52893" lon="5.38608">
        <ele>230.2</ele>
        <time>2022-05-18T14:25:41Z</time>
      </trkpt>
      <trkpt lat="46.52884" lon="5.38608">
        <ele>229.8</ele>
        <time>2022-05-18T14:25:42Z</time>
      </trkpt>
      <trkpt lat="46.52857" lon="5.38603">
        <ele>229.2</ele>
        <time>2022-05-18T14:25:45Z</time>
      </trkpt>
      <trkpt lat="46.5283" lon="5.38596">
        <ele>227.6</ele>
        <time>2022-05-18T14:25:48Z</time>
      </trkpt>
      <trkpt lat="46.52822" lon="5.38593">
        <ele>227</ele>
        <time>2022-05-18T14:25:49Z</time>
      </trkpt>
      <trkpt lat="46.52814" lon="5.38589">
        <ele>227</ele>
        <time>2022-05-18T14:25:50Z</time>
      </trkpt>
      <trkpt lat="46.52806" lon="5.38583">
        <ele>226.4</ele>
        <time>2022-05-18T14:25:51Z</time>
      </trkpt>
      <trkpt lat="46.52799" lon="5.38575">
        <ele>226.2</ele>
        <time>2022-05-18T14:25:52Z</time>
      </trkpt>
      <trkpt lat="46.52789" lon="5.38556">
        <ele>225.8</ele>
        <time>2022-05-18T14:25:54Z</time>
      </trkpt>
      <trkpt lat="46.52785" lon="5.38546">
        <ele>225.6</ele>
        <time>2022-05-18T14:25:55Z</time>
      </trkpt>
      <trkpt lat="46.52781" lon="5.38537">
        <ele>225.6</ele>
        <time>2022-05-18T14:25:56Z</time>
      </trkpt>
      <trkpt lat="46.52767" lon="5.38526">
        <ele>225.4</ele>
        <time>2022-05-18T14:25:58Z</time>
      </trkpt>
      <trkpt lat="46.52753" lon="5.38526">
        <ele>225.6</ele>
        <time>2022-05-18T14:26:00Z</time>
      </trkpt>
      <trkpt lat="46.52747" lon="5.38529">
        <ele>225.6</ele>
        <time>2022-05-18T14:26:01Z</time>
      </trkpt>
      <trkpt lat="46.5274" lon="5.38531">
        <ele>225.6</ele>
        <time>2022-05-18T14:26:02Z</time>
      </trkpt>
      <trkpt lat="46.52726" lon="5.38531">
        <ele>225.8</ele>
        <time>2022-05-18T14:26:04Z</time>
      </trkpt>
      <trkpt lat="46.52698" lon="5.38516">
        <ele>226</ele>
        <time>2022-05-18T14:26:08Z</time>
      </trkpt>
      <trkpt lat="46.52683" lon="5.38512">
        <ele>226</ele>
        <time>2022-05-18T14:26:10Z</time>
      </trkpt>
      <trkpt lat="46.52661" lon="5.38509">
        <ele>226.4</ele>
        <time>2022-05-18T14:26:13Z</time>
      </trkpt>
      <trkpt lat="46.52603" lon="5.38501">
        <ele>227.4</ele>
        <time>2022-05-18T14:26:21Z</time>
      </trkpt>
      <trkpt lat="46.52596" lon="5.38499">
        <ele>227.4</ele>
        <time>2022-05-18T14:26:22Z</time>
      </trkpt>
      <trkpt lat="46.52564" lon="5.38487">
        <ele>228</ele>
        <time>2022-05-18T14:26:27Z</time>
      </trkpt>
      <trkpt lat="46.52548" lon="5.38476">
        <ele>228.4</ele>
        <time>2022-05-18T14:26:30Z</time>
      </trkpt>
      <trkpt lat="46.52543" lon="5.38472">
        <ele>228.6</ele>
        <time>2022-05-18T14:26:31Z</time>
      </trkpt>
      <trkpt lat="46.52538" lon="5.38465">
        <ele>228.6</ele>
        <time>2022-05-18T14:26:32Z</time>
      </trkpt>
      <trkpt lat="46.52533" lon="5.38458">
        <ele>228.8</ele>
        <time>2022-05-18T14:26:33Z</time>
      </trkpt>
      <trkpt lat="46.52527" lon="5.38442">
        <ele>228.8</ele>
        <time>2022-05-18T14:26:35Z</time>
      </trkpt>
      <trkpt lat="46.52525" lon="5.38433">
        <ele>228.8</ele>
        <time>2022-05-18T14:26:36Z</time>
      </trkpt>
      <trkpt lat="46.52525" lon="5.38406">
        <ele>229</ele>
        <time>2022-05-18T14:26:39Z</time>
      </trkpt>
      <trkpt lat="46.52525" lon="5.38388">
        <ele>229.4</ele>
        <time>2022-05-18T14:26:41Z</time>
      </trkpt>
      <trkpt lat="46.52521" lon="5.38338">
        <ele>229.4</ele>
        <time>2022-05-18T14:26:46Z</time>
      </trkpt>
      <trkpt lat="46.5252" lon="5.38327">
        <ele>229.6</ele>
        <time>2022-05-18T14:26:47Z</time>
      </trkpt>
      <trkpt lat="46.52514" lon="5.38269">
        <ele>228.8</ele>
        <time>2022-05-18T14:26:52Z</time>
      </trkpt>
      <trkpt lat="46.52514" lon="5.38257">
        <ele>228.8</ele>
        <time>2022-05-18T14:26:53Z</time>
      </trkpt>
      <trkpt lat="46.52518" lon="5.38232">
        <ele>228.2</ele>
        <time>2022-05-18T14:26:55Z</time>
      </trkpt>
      <trkpt lat="46.5252" lon="5.3822">
        <ele>227.6</ele>
        <time>2022-05-18T14:26:56Z</time>
      </trkpt>
      <trkpt lat="46.52527" lon="5.38196">
        <ele>226.8</ele>
        <time>2022-05-18T14:26:58Z</time>
      </trkpt>
      <trkpt lat="46.52542" lon="5.38136">
        <ele>225.6</ele>
        <time>2022-05-18T14:27:03Z</time>
      </trkpt>
      <trkpt lat="46.52547" lon="5.38099">
        <ele>224.8</ele>
        <time>2022-05-18T14:27:06Z</time>
      </trkpt>
      <trkpt lat="46.52547" lon="5.38075">
        <ele>224.4</ele>
        <time>2022-05-18T14:27:08Z</time>
      </trkpt>
      <trkpt lat="46.52539" lon="5.38017">
        <ele>223.6</ele>
        <time>2022-05-18T14:27:13Z</time>
      </trkpt>
      <trkpt lat="46.52527" lon="5.37974">
        <ele>223.2</ele>
        <time>2022-05-18T14:27:17Z</time>
      </trkpt>
      <trkpt lat="46.52524" lon="5.37963">
        <ele>223</ele>
        <time>2022-05-18T14:27:18Z</time>
      </trkpt>
      <trkpt lat="46.52522" lon="5.37952">
        <ele>222.6</ele>
        <time>2022-05-18T14:27:19Z</time>
      </trkpt>
      <trkpt lat="46.5252" lon="5.37928">
        <ele>222.4</ele>
        <time>2022-05-18T14:27:21Z</time>
      </trkpt>
      <trkpt lat="46.52522" lon="5.37893">
        <ele>222.2</ele>
        <time>2022-05-18T14:27:24Z</time>
      </trkpt>
      <trkpt lat="46.52525" lon="5.37859">
        <ele>222</ele>
        <time>2022-05-18T14:27:27Z</time>
      </trkpt>
      <trkpt lat="46.5253" lon="5.3778">
        <ele>221.4</ele>
        <time>2022-05-18T14:27:34Z</time>
      </trkpt>
      <trkpt lat="46.52531" lon="5.37769">
        <ele>221.2</ele>
        <time>2022-05-18T14:27:35Z</time>
      </trkpt>
      <trkpt lat="46.52533" lon="5.37736">
        <ele>221.2</ele>
        <time>2022-05-18T14:27:38Z</time>
      </trkpt>
      <trkpt lat="46.52538" lon="5.37658">
        <ele>220.8</ele>
        <time>2022-05-18T14:27:45Z</time>
      </trkpt>
      <trkpt lat="46.52546" lon="5.37574">
        <ele>220.6</ele>
        <time>2022-05-18T14:27:53Z</time>
      </trkpt>
      <trkpt lat="46.52554" lon="5.37491">
        <ele>220.2</ele>
        <time>2022-05-18T14:28:01Z</time>
      </trkpt>
      <trkpt lat="46.52562" lon="5.3741">
        <ele>220</ele>
        <time>2022-05-18T14:28:09Z</time>
      </trkpt>
      <trkpt lat="46.52563" lon="5.374">
        <ele>220</ele>
        <time>2022-05-18T14:28:10Z</time>
      </trkpt>
      <trkpt lat="46.52565" lon="5.37316">
        <ele>219.4</ele>
        <time>2022-05-18T14:28:18Z</time>
      </trkpt>
      <trkpt lat="46.52565" lon="5.37294">
        <ele>219.2</ele>
        <time>2022-05-18T14:28:20Z</time>
      </trkpt>
      <trkpt lat="46.52557" lon="5.37253">
        <ele>219.2</ele>
        <time>2022-05-18T14:28:24Z</time>
      </trkpt>
      <trkpt lat="46.52538" lon="5.37207">
        <ele>218.8</ele>
        <time>2022-05-18T14:28:29Z</time>
      </trkpt>
      <trkpt lat="46.52504" lon="5.37164">
        <ele>218.4</ele>
        <time>2022-05-18T14:28:35Z</time>
      </trkpt>
      <trkpt lat="46.52466" lon="5.37113">
        <ele>218.2</ele>
        <time>2022-05-18T14:28:42Z</time>
      </trkpt>
      <trkpt lat="46.52458" lon="5.37095">
        <ele>218.2</ele>
        <time>2022-05-18T14:28:44Z</time>
      </trkpt>
      <trkpt lat="46.52447" lon="5.37067">
        <ele>218.2</ele>
        <time>2022-05-18T14:28:47Z</time>
      </trkpt>
      <trkpt lat="46.52439" lon="5.3703">
        <ele>218</ele>
        <time>2022-05-18T14:28:51Z</time>
      </trkpt>
      <trkpt lat="46.52435" lon="5.37022">
        <ele>218</ele>
        <time>2022-05-18T14:28:52Z</time>
      </trkpt>
      <trkpt lat="46.5243" lon="5.37017">
        <ele>218</ele>
        <time>2022-05-18T14:28:53Z</time>
      </trkpt>
      <trkpt lat="46.52426" lon="5.37016">
        <ele>217.8</ele>
        <time>2022-05-18T14:28:54Z</time>
      </trkpt>
      <trkpt lat="46.52422" lon="5.37017">
        <ele>217.8</ele>
        <time>2022-05-18T14:28:55Z</time>
      </trkpt>
      <trkpt lat="46.52419" lon="5.37023">
        <ele>217.8</ele>
        <time>2022-05-18T14:28:56Z</time>
      </trkpt>
      <trkpt lat="46.52401" lon="5.37054">
        <ele>217.8</ele>
        <time>2022-05-18T14:29:00Z</time>
      </trkpt>
      <trkpt lat="46.52373" lon="5.37089">
        <ele>217.8</ele>
        <time>2022-05-18T14:29:05Z</time>
      </trkpt>
      <trkpt lat="46.52348" lon="5.37117">
        <ele>218</ele>
        <time>2022-05-18T14:29:10Z</time>
      </trkpt>
      <trkpt lat="46.52338" lon="5.37128">
        <ele>218.4</ele>
        <time>2022-05-18T14:29:12Z</time>
      </trkpt>
      <trkpt lat="46.52311" lon="5.37157">
        <ele>219.4</ele>
        <time>2022-05-18T14:29:18Z</time>
      </trkpt>
      <trkpt lat="46.52297" lon="5.37174">
        <ele>220.4</ele>
        <time>2022-05-18T14:29:22Z</time>
      </trkpt>
      <trkpt lat="46.52293" lon="5.37178">
        <ele>220.6</ele>
        <time>2022-05-18T14:29:23Z</time>
      </trkpt>
      <trkpt lat="46.52275" lon="5.37198">
        <ele>221.8</ele>
        <time>2022-05-18T14:29:28Z</time>
      </trkpt>
      <trkpt lat="46.52271" lon="5.37201">
        <ele>222</ele>
        <time>2022-05-18T14:29:29Z</time>
      </trkpt>
      <trkpt lat="46.52253" lon="5.3722">
        <ele>222.8</ele>
        <time>2022-05-18T14:29:34Z</time>
      </trkpt>
      <trkpt lat="46.52231" lon="5.37241">
        <ele>223.6</ele>
        <time>2022-05-18T14:29:40Z</time>
      </trkpt>
      <trkpt lat="46.52227" lon="5.37244">
        <ele>224</ele>
        <time>2022-05-18T14:29:41Z</time>
      </trkpt>
      <trkpt lat="46.52206" lon="5.37261">
        <ele>225.2</ele>
        <time>2022-05-18T14:29:46Z</time>
      </trkpt>
      <trkpt lat="46.52199" lon="5.37267">
        <ele>225.6</ele>
        <time>2022-05-18T14:29:48Z</time>
      </trkpt>
      <trkpt lat="46.52182" lon="5.37279">
        <ele>226.6</ele>
        <time>2022-05-18T14:29:52Z</time>
      </trkpt>
      <trkpt lat="46.52173" lon="5.37285">
        <ele>227.2</ele>
        <time>2022-05-18T14:29:54Z</time>
      </trkpt>
      <trkpt lat="46.52165" lon="5.37291">
        <ele>227.6</ele>
        <time>2022-05-18T14:29:56Z</time>
      </trkpt>
      <trkpt lat="46.52145" lon="5.37304">
        <ele>228.4</ele>
        <time>2022-05-18T14:30:01Z</time>
      </trkpt>
      <trkpt lat="46.52142" lon="5.37306">
        <ele>228.8</ele>
        <time>2022-05-18T14:30:02Z</time>
      </trkpt>
      <trkpt lat="46.52123" lon="5.3732">
        <ele>230.2</ele>
        <time>2022-05-18T14:30:07Z</time>
      </trkpt>
      <trkpt lat="46.52115" lon="5.37325">
        <ele>230.4</ele>
        <time>2022-05-18T14:30:09Z</time>
      </trkpt>
      <trkpt lat="46.52087" lon="5.37348">
        <ele>231.4</ele>
        <time>2022-05-18T14:30:17Z</time>
      </trkpt>
      <trkpt lat="46.52081" lon="5.37359">
        <ele>232</ele>
        <time>2022-05-18T14:30:19Z</time>
      </trkpt>
      <trkpt lat="46.52079" lon="5.3737">
        <ele>232.4</ele>
        <time>2022-05-18T14:30:21Z</time>
      </trkpt>
      <trkpt lat="46.52077" lon="5.37376">
        <ele>232.4</ele>
        <time>2022-05-18T14:30:22Z</time>
      </trkpt>
      <trkpt lat="46.52069" lon="5.37415">
        <ele>233.6</ele>
        <time>2022-05-18T14:30:28Z</time>
      </trkpt>
      <trkpt lat="46.52066" lon="5.3743">
        <ele>234</ele>
        <time>2022-05-18T14:30:30Z</time>
      </trkpt>
      <trkpt lat="46.52055" lon="5.37478">
        <ele>234.6</ele>
        <time>2022-05-18T14:30:36Z</time>
      </trkpt>
      <trkpt lat="46.5205" lon="5.37497">
        <ele>234.6</ele>
        <time>2022-05-18T14:30:38Z</time>
      </trkpt>
      <trkpt lat="46.52043" lon="5.37531">
        <ele>234.6</ele>
        <time>2022-05-18T14:30:42Z</time>
      </trkpt>
      <trkpt lat="46.52025" lon="5.37609">
        <ele>234.6</ele>
        <time>2022-05-18T14:30:51Z</time>
      </trkpt>
      <trkpt lat="46.52022" lon="5.37617">
        <ele>234.6</ele>
        <time>2022-05-18T14:30:52Z</time>
      </trkpt>
      <trkpt lat="46.52012" lon="5.37627">
        <ele>234.6</ele>
        <time>2022-05-18T14:30:54Z</time>
      </trkpt>
      <trkpt lat="46.52008" lon="5.37629">
        <ele>234.8</ele>
        <time>2022-05-18T14:30:55Z</time>
      </trkpt>
      <trkpt lat="46.52001" lon="5.3763">
        <ele>235</ele>
        <time>2022-05-18T14:30:56Z</time>
      </trkpt>
      <trkpt lat="46.51972" lon="5.37634">
        <ele>235</ele>
        <time>2022-05-18T14:31:00Z</time>
      </trkpt>
      <trkpt lat="46.5192" lon="5.37643">
        <ele>235</ele>
        <time>2022-05-18T14:31:07Z</time>
      </trkpt>
      <trkpt lat="46.5189" lon="5.37647">
        <ele>235</ele>
        <time>2022-05-18T14:31:11Z</time>
      </trkpt>
      <trkpt lat="46.5187" lon="5.37647">
        <ele>235.2</ele>
        <time>2022-05-18T14:31:14Z</time>
      </trkpt>
      <trkpt lat="46.51832" lon="5.37647">
        <ele>235.8</ele>
        <time>2022-05-18T14:31:19Z</time>
      </trkpt>
      <trkpt lat="46.51817" lon="5.37648">
        <ele>236</ele>
        <time>2022-05-18T14:31:21Z</time>
      </trkpt>
      <trkpt lat="46.51776" lon="5.37645">
        <ele>236</ele>
        <time>2022-05-18T14:31:26Z</time>
      </trkpt>
      <trkpt lat="46.51718" lon="5.3763">
        <ele>234.6</ele>
        <time>2022-05-18T14:31:33Z</time>
      </trkpt>
      <trkpt lat="46.51709" lon="5.37629">
        <ele>234.2</ele>
        <time>2022-05-18T14:31:34Z</time>
      </trkpt>
      <trkpt lat="46.51692" lon="5.37632">
        <ele>233.8</ele>
        <time>2022-05-18T14:31:36Z</time>
      </trkpt>
      <trkpt lat="46.51684" lon="5.37637">
        <ele>233.4</ele>
        <time>2022-05-18T14:31:37Z</time>
      </trkpt>
      <trkpt lat="46.51661" lon="5.37653">
        <ele>232.6</ele>
        <time>2022-05-18T14:31:40Z</time>
      </trkpt>
      <trkpt lat="46.51644" lon="5.37661">
        <ele>232.4</ele>
        <time>2022-05-18T14:31:42Z</time>
      </trkpt>
      <trkpt lat="46.51605" lon="5.37677">
        <ele>232.2</ele>
        <time>2022-05-18T14:31:47Z</time>
      </trkpt>
      <trkpt lat="46.5156" lon="5.37682">
        <ele>232.6</ele>
        <time>2022-05-18T14:31:53Z</time>
      </trkpt>
      <trkpt lat="46.51515" lon="5.37692">
        <ele>233.6</ele>
        <time>2022-05-18T14:32:00Z</time>
      </trkpt>
      <trkpt lat="46.51509" lon="5.37694">
        <ele>233.6</ele>
        <time>2022-05-18T14:32:01Z</time>
      </trkpt>
      <trkpt lat="46.51467" lon="5.37704">
        <ele>234.6</ele>
        <time>2022-05-18T14:32:08Z</time>
      </trkpt>
      <trkpt lat="46.51411" lon="5.37718">
        <ele>235.6</ele>
        <time>2022-05-18T14:32:17Z</time>
      </trkpt>
      <trkpt lat="46.51405" lon="5.3772">
        <ele>235.6</ele>
        <time>2022-05-18T14:32:18Z</time>
      </trkpt>
      <trkpt lat="46.51399" lon="5.37723">
        <ele>235.6</ele>
        <time>2022-05-18T14:32:19Z</time>
      </trkpt>
      <trkpt lat="46.51357" lon="5.37743">
        <ele>236.6</ele>
        <time>2022-05-18T14:32:26Z</time>
      </trkpt>
      <trkpt lat="46.5135" lon="5.37747">
        <ele>236.8</ele>
        <time>2022-05-18T14:32:27Z</time>
      </trkpt>
      <trkpt lat="46.51311" lon="5.37767">
        <ele>237.8</ele>
        <time>2022-05-18T14:32:34Z</time>
      </trkpt>
      <trkpt lat="46.51299" lon="5.37774">
        <ele>238.4</ele>
        <time>2022-05-18T14:32:36Z</time>
      </trkpt>
      <trkpt lat="46.51276" lon="5.37785">
        <ele>239</ele>
        <time>2022-05-18T14:32:40Z</time>
      </trkpt>
      <trkpt lat="46.51245" lon="5.37799">
        <ele>239.6</ele>
        <time>2022-05-18T14:32:45Z</time>
      </trkpt>
      <trkpt lat="46.51238" lon="5.378">
        <ele>240</ele>
        <time>2022-05-18T14:32:46Z</time>
      </trkpt>
      <trkpt lat="46.51232" lon="5.37801">
        <ele>240</ele>
        <time>2022-05-18T14:32:47Z</time>
      </trkpt>
      <trkpt lat="46.51208" lon="5.37805">
        <ele>240.6</ele>
        <time>2022-05-18T14:32:51Z</time>
      </trkpt>
      <trkpt lat="46.51176" lon="5.37812">
        <ele>241</ele>
        <time>2022-05-18T14:32:56Z</time>
      </trkpt>
      <trkpt lat="46.51165" lon="5.37818">
        <ele>241.2</ele>
        <time>2022-05-18T14:32:58Z</time>
      </trkpt>
      <trkpt lat="46.51143" lon="5.37834">
        <ele>242</ele>
        <time>2022-05-18T14:33:02Z</time>
      </trkpt>
      <trkpt lat="46.51121" lon="5.37851">
        <ele>242.8</ele>
        <time>2022-05-18T14:33:06Z</time>
      </trkpt>
      <trkpt lat="46.51109" lon="5.37858">
        <ele>243</ele>
        <time>2022-05-18T14:33:08Z</time>
      </trkpt>
      <trkpt lat="46.51085" lon="5.37867">
        <ele>243.6</ele>
        <time>2022-05-18T14:33:12Z</time>
      </trkpt>
      <trkpt lat="46.51067" lon="5.3787">
        <ele>244</ele>
        <time>2022-05-18T14:33:15Z</time>
      </trkpt>
      <trkpt lat="46.51048" lon="5.37871">
        <ele>244.8</ele>
        <time>2022-05-18T14:33:18Z</time>
      </trkpt>
      <trkpt lat="46.51036" lon="5.37872">
        <ele>245.2</ele>
        <time>2022-05-18T14:33:20Z</time>
      </trkpt>
      <trkpt lat="46.51019" lon="5.37875">
        <ele>246.2</ele>
        <time>2022-05-18T14:33:23Z</time>
      </trkpt>
      <trkpt lat="46.50995" lon="5.37879">
        <ele>246.8</ele>
        <time>2022-05-18T14:33:27Z</time>
      </trkpt>
      <trkpt lat="46.50975" lon="5.37883">
        <ele>247.2</ele>
        <time>2022-05-18T14:33:30Z</time>
      </trkpt>
      <trkpt lat="46.5094" lon="5.37893">
        <ele>247.8</ele>
        <time>2022-05-18T14:33:36Z</time>
      </trkpt>
      <trkpt lat="46.50904" lon="5.37902">
        <ele>248</ele>
        <time>2022-05-18T14:33:41Z</time>
      </trkpt>
      <trkpt lat="46.50854" lon="5.37899">
        <ele>248</ele>
        <time>2022-05-18T14:33:48Z</time>
      </trkpt>
      <trkpt lat="46.50818" lon="5.37891">
        <ele>248</ele>
        <time>2022-05-18T14:33:53Z</time>
      </trkpt>
      <trkpt lat="46.50811" lon="5.37886">
        <ele>248.2</ele>
        <time>2022-05-18T14:33:54Z</time>
      </trkpt>
      <trkpt lat="46.50804" lon="5.37881">
        <ele>248.2</ele>
        <time>2022-05-18T14:33:55Z</time>
      </trkpt>
      <trkpt lat="46.50799" lon="5.37875">
        <ele>248.2</ele>
        <time>2022-05-18T14:33:56Z</time>
      </trkpt>
      <trkpt lat="46.50788" lon="5.37861">
        <ele>248.2</ele>
        <time>2022-05-18T14:33:58Z</time>
      </trkpt>
      <trkpt lat="46.50782" lon="5.37853">
        <ele>248.2</ele>
        <time>2022-05-18T14:33:59Z</time>
      </trkpt>
      <trkpt lat="46.50777" lon="5.37846">
        <ele>248.2</ele>
        <time>2022-05-18T14:34:00Z</time>
      </trkpt>
      <trkpt lat="46.50769" lon="5.3783">
        <ele>248.2</ele>
        <time>2022-05-18T14:34:02Z</time>
      </trkpt>
      <trkpt lat="46.50765" lon="5.37822">
        <ele>248.2</ele>
        <time>2022-05-18T14:34:03Z</time>
      </trkpt>
      <trkpt lat="46.5075" lon="5.37773">
        <ele>248</ele>
        <time>2022-05-18T14:34:08Z</time>
      </trkpt>
      <trkpt lat="46.50744" lon="5.37711">
        <ele>247.6</ele>
        <time>2022-05-18T14:34:14Z</time>
      </trkpt>
      <trkpt lat="46.50742" lon="5.37679">
        <ele>247</ele>
        <time>2022-05-18T14:34:17Z</time>
      </trkpt>
      <trkpt lat="46.50738" lon="5.3763">
        <ele>246.2</ele>
        <time>2022-05-18T14:34:21Z</time>
      </trkpt>
      <trkpt lat="46.50736" lon="5.37618">
        <ele>246</ele>
        <time>2022-05-18T14:34:22Z</time>
      </trkpt>
      <trkpt lat="46.50731" lon="5.37607">
        <ele>245.8</ele>
        <time>2022-05-18T14:34:23Z</time>
      </trkpt>
      <trkpt lat="46.50726" lon="5.37596">
        <ele>245.6</ele>
        <time>2022-05-18T14:34:24Z</time>
      </trkpt>
      <trkpt lat="46.50719" lon="5.37587">
        <ele>245.4</ele>
        <time>2022-05-18T14:34:25Z</time>
      </trkpt>
      <trkpt lat="46.50713" lon="5.37579">
        <ele>244.8</ele>
        <time>2022-05-18T14:34:26Z</time>
      </trkpt>
      <trkpt lat="46.50702" lon="5.37567">
        <ele>243.8</ele>
        <time>2022-05-18T14:34:28Z</time>
      </trkpt>
      <trkpt lat="46.50691" lon="5.37564">
        <ele>243</ele>
        <time>2022-05-18T14:34:30Z</time>
      </trkpt>
      <trkpt lat="46.50686" lon="5.37566">
        <ele>242.4</ele>
        <time>2022-05-18T14:34:31Z</time>
      </trkpt>
      <trkpt lat="46.50681" lon="5.37571">
        <ele>242.2</ele>
        <time>2022-05-18T14:34:32Z</time>
      </trkpt>
      <trkpt lat="46.50673" lon="5.37583">
        <ele>241.8</ele>
        <time>2022-05-18T14:34:34Z</time>
      </trkpt>
      <trkpt lat="46.50643" lon="5.37627">
        <ele>241.8</ele>
        <time>2022-05-18T14:34:40Z</time>
      </trkpt>
      <trkpt lat="46.50605" lon="5.37687">
        <ele>242.6</ele>
        <time>2022-05-18T14:34:48Z</time>
      </trkpt>
      <trkpt lat="46.50578" lon="5.37727">
        <ele>243.4</ele>
        <time>2022-05-18T14:34:54Z</time>
      </trkpt>
      <trkpt lat="46.50574" lon="5.37734">
        <ele>243.6</ele>
        <time>2022-05-18T14:34:55Z</time>
      </trkpt>
      <trkpt lat="46.50559" lon="5.37757">
        <ele>244.4</ele>
        <time>2022-05-18T14:34:59Z</time>
      </trkpt>
      <trkpt lat="46.50545" lon="5.37779">
        <ele>245.4</ele>
        <time>2022-05-18T14:35:03Z</time>
      </trkpt>
      <trkpt lat="46.50541" lon="5.37785">
        <ele>245.6</ele>
        <time>2022-05-18T14:35:04Z</time>
      </trkpt>
      <trkpt lat="46.50524" lon="5.37811">
        <ele>247</ele>
        <time>2022-05-18T14:35:09Z</time>
      </trkpt>
      <trkpt lat="46.50514" lon="5.37826">
        <ele>247.4</ele>
        <time>2022-05-18T14:35:12Z</time>
      </trkpt>
      <trkpt lat="46.50502" lon="5.37846">
        <ele>248.2</ele>
        <time>2022-05-18T14:35:16Z</time>
      </trkpt>
      <trkpt lat="46.50487" lon="5.3787">
        <ele>249.4</ele>
        <time>2022-05-18T14:35:21Z</time>
      </trkpt>
      <trkpt lat="46.50483" lon="5.37875">
        <ele>249.6</ele>
        <time>2022-05-18T14:35:22Z</time>
      </trkpt>
      <trkpt lat="46.50467" lon="5.379">
        <ele>250.6</ele>
        <time>2022-05-18T14:35:27Z</time>
      </trkpt>
      <trkpt lat="46.50451" lon="5.37925">
        <ele>251.4</ele>
        <time>2022-05-18T14:35:32Z</time>
      </trkpt>
      <trkpt lat="46.50445" lon="5.37933">
        <ele>251.6</ele>
        <time>2022-05-18T14:35:34Z</time>
      </trkpt>
      <trkpt lat="46.50439" lon="5.3794">
        <ele>252</ele>
        <time>2022-05-18T14:35:36Z</time>
      </trkpt>
      <trkpt lat="46.50433" lon="5.3795">
        <ele>252.6</ele>
        <time>2022-05-18T14:35:38Z</time>
      </trkpt>
      <trkpt lat="46.5042" lon="5.3797">
        <ele>253.8</ele>
        <time>2022-05-18T14:35:42Z</time>
      </trkpt>
      <trkpt lat="46.50417" lon="5.37975">
        <ele>254</ele>
        <time>2022-05-18T14:35:43Z</time>
      </trkpt>
      <trkpt lat="46.50406" lon="5.37991">
        <ele>255</ele>
        <time>2022-05-18T14:35:46Z</time>
      </trkpt>
      <trkpt lat="46.50389" lon="5.38018">
        <ele>256.2</ele>
        <time>2022-05-18T14:35:51Z</time>
      </trkpt>
      <trkpt lat="46.50385" lon="5.38023">
        <ele>256.4</ele>
        <time>2022-05-18T14:35:52Z</time>
      </trkpt>
      <trkpt lat="46.50375" lon="5.38027">
        <ele>257.2</ele>
        <time>2022-05-18T14:35:54Z</time>
      </trkpt>
      <trkpt lat="46.5037" lon="5.38025">
        <ele>257.4</ele>
        <time>2022-05-18T14:35:55Z</time>
      </trkpt>
      <trkpt lat="46.50367" lon="5.38021">
        <ele>257.6</ele>
        <time>2022-05-18T14:35:56Z</time>
      </trkpt>
      <trkpt lat="46.50364" lon="5.38014">
        <ele>257.8</ele>
        <time>2022-05-18T14:35:57Z</time>
      </trkpt>
      <trkpt lat="46.50363" lon="5.38007">
        <ele>258</ele>
        <time>2022-05-18T14:35:58Z</time>
      </trkpt>
      <trkpt lat="46.50364" lon="5.37987">
        <ele>258.4</ele>
        <time>2022-05-18T14:36:01Z</time>
      </trkpt>
      <trkpt lat="46.50365" lon="5.37966">
        <ele>258.6</ele>
        <time>2022-05-18T14:36:04Z</time>
      </trkpt>
      <trkpt lat="46.50364" lon="5.37952">
        <ele>258.8</ele>
        <time>2022-05-18T14:36:06Z</time>
      </trkpt>
      <trkpt lat="46.50364" lon="5.37944">
        <ele>259</ele>
        <time>2022-05-18T14:36:07Z</time>
      </trkpt>
      <trkpt lat="46.50362" lon="5.37929">
        <ele>259</ele>
        <time>2022-05-18T14:36:09Z</time>
      </trkpt>
      <trkpt lat="46.50357" lon="5.37914">
        <ele>259</ele>
        <time>2022-05-18T14:36:11Z</time>
      </trkpt>
      <trkpt lat="46.50353" lon="5.37906">
        <ele>259.2</ele>
        <time>2022-05-18T14:36:12Z</time>
      </trkpt>
      <trkpt lat="46.5035" lon="5.37898">
        <ele>259.2</ele>
        <time>2022-05-18T14:36:13Z</time>
      </trkpt>
      <trkpt lat="46.50335" lon="5.37878">
        <ele>259.2</ele>
        <time>2022-05-18T14:36:16Z</time>
      </trkpt>
      <trkpt lat="46.5033" lon="5.37872">
        <ele>259</ele>
        <time>2022-05-18T14:36:17Z</time>
      </trkpt>
      <trkpt lat="46.50301" lon="5.37844">
        <ele>258.6</ele>
        <time>2022-05-18T14:36:22Z</time>
      </trkpt>
      <trkpt lat="46.50256" lon="5.37799">
        <ele>258.2</ele>
        <time>2022-05-18T14:36:30Z</time>
      </trkpt>
      <trkpt lat="46.5021" lon="5.3776">
        <ele>258.4</ele>
        <time>2022-05-18T14:36:37Z</time>
      </trkpt>
      <trkpt lat="46.50203" lon="5.37755">
        <ele>258.4</ele>
        <time>2022-05-18T14:36:38Z</time>
      </trkpt>
      <trkpt lat="46.5018" lon="5.37747">
        <ele>258.4</ele>
        <time>2022-05-18T14:36:41Z</time>
      </trkpt>
      <trkpt lat="46.50173" lon="5.37744">
        <ele>258.4</ele>
        <time>2022-05-18T14:36:42Z</time>
      </trkpt>
      <trkpt lat="46.50163" lon="5.37729">
        <ele>258.4</ele>
        <time>2022-05-18T14:36:44Z</time>
      </trkpt>
      <trkpt lat="46.50149" lon="5.37684">
        <ele>258</ele>
        <time>2022-05-18T14:36:48Z</time>
      </trkpt>
      <trkpt lat="46.50148" lon="5.37671">
        <ele>257.8</ele>
        <time>2022-05-18T14:36:49Z</time>
      </trkpt>
      <trkpt lat="46.50147" lon="5.37658">
        <ele>257.6</ele>
        <time>2022-05-18T14:36:50Z</time>
      </trkpt>
      <trkpt lat="46.50146" lon="5.37645">
        <ele>257.2</ele>
        <time>2022-05-18T14:36:51Z</time>
      </trkpt>
      <trkpt lat="46.50144" lon="5.3763">
        <ele>256.6</ele>
        <time>2022-05-18T14:36:52Z</time>
      </trkpt>
      <trkpt lat="46.50143" lon="5.37603">
        <ele>255.8</ele>
        <time>2022-05-18T14:36:54Z</time>
      </trkpt>
      <trkpt lat="46.50141" lon="5.37565">
        <ele>255.2</ele>
        <time>2022-05-18T14:36:57Z</time>
      </trkpt>
      <trkpt lat="46.50138" lon="5.3754">
        <ele>254.6</ele>
        <time>2022-05-18T14:36:59Z</time>
      </trkpt>
      <trkpt lat="46.50131" lon="5.37518">
        <ele>254.4</ele>
        <time>2022-05-18T14:37:01Z</time>
      </trkpt>
      <trkpt lat="46.50127" lon="5.37507">
        <ele>254.2</ele>
        <time>2022-05-18T14:37:02Z</time>
      </trkpt>
      <trkpt lat="46.50112" lon="5.37478">
        <ele>253.8</ele>
        <time>2022-05-18T14:37:05Z</time>
      </trkpt>
      <trkpt lat="46.50096" lon="5.3745">
        <ele>253.6</ele>
        <time>2022-05-18T14:37:08Z</time>
      </trkpt>
      <trkpt lat="46.50082" lon="5.3742">
        <ele>253.2</ele>
        <time>2022-05-18T14:37:11Z</time>
      </trkpt>
      <trkpt lat="46.50072" lon="5.37374">
        <ele>252.8</ele>
        <time>2022-05-18T14:37:15Z</time>
      </trkpt>
      <trkpt lat="46.50067" lon="5.37351">
        <ele>252.6</ele>
        <time>2022-05-18T14:37:17Z</time>
      </trkpt>
      <trkpt lat="46.50053" lon="5.3728">
        <ele>252.2</ele>
        <time>2022-05-18T14:37:23Z</time>
      </trkpt>
      <trkpt lat="46.5004" lon="5.37218">
        <ele>251.6</ele>
        <time>2022-05-18T14:37:28Z</time>
      </trkpt>
      <trkpt lat="46.50027" lon="5.37142">
        <ele>250.4</ele>
        <time>2022-05-18T14:37:34Z</time>
      </trkpt>
      <trkpt lat="46.50015" lon="5.37077">
        <ele>249.2</ele>
        <time>2022-05-18T14:37:39Z</time>
      </trkpt>
      <trkpt lat="46.50003" lon="5.37012">
        <ele>248.4</ele>
        <time>2022-05-18T14:37:44Z</time>
      </trkpt>
      <trkpt lat="46.5" lon="5.36998">
        <ele>248</ele>
        <time>2022-05-18T14:37:45Z</time>
      </trkpt>
      <trkpt lat="46.49991" lon="5.36946">
        <ele>247.4</ele>
        <time>2022-05-18T14:37:49Z</time>
      </trkpt>
      <trkpt lat="46.49988" lon="5.36933">
        <ele>247.2</ele>
        <time>2022-05-18T14:37:50Z</time>
      </trkpt>
      <trkpt lat="46.49978" lon="5.36881">
        <ele>246.2</ele>
        <time>2022-05-18T14:37:54Z</time>
      </trkpt>
      <trkpt lat="46.49971" lon="5.36842">
        <ele>245.2</ele>
        <time>2022-05-18T14:37:57Z</time>
      </trkpt>
      <trkpt lat="46.49959" lon="5.36777">
        <ele>243.8</ele>
        <time>2022-05-18T14:38:02Z</time>
      </trkpt>
      <trkpt lat="46.49952" lon="5.3674">
        <ele>242.8</ele>
        <time>2022-05-18T14:38:05Z</time>
      </trkpt>
      <trkpt lat="46.49949" lon="5.36727">
        <ele>242.2</ele>
        <time>2022-05-18T14:38:06Z</time>
      </trkpt>
      <trkpt lat="46.49943" lon="5.3669">
        <ele>241.6</ele>
        <time>2022-05-18T14:38:09Z</time>
      </trkpt>
      <trkpt lat="46.49936" lon="5.36655">
        <ele>241</ele>
        <time>2022-05-18T14:38:12Z</time>
      </trkpt>
      <trkpt lat="46.49934" lon="5.36646">
        <ele>240.4</ele>
        <time>2022-05-18T14:38:13Z</time>
      </trkpt>
      <trkpt lat="46.49929" lon="5.36633">
        <ele>240</ele>
        <time>2022-05-18T14:38:15Z</time>
      </trkpt>
      <trkpt lat="46.49924" lon="5.36623">
        <ele>239.6</ele>
        <time>2022-05-18T14:38:17Z</time>
      </trkpt>
      <trkpt lat="46.49921" lon="5.36616">
        <ele>239.4</ele>
        <time>2022-05-18T14:38:18Z</time>
      </trkpt>
      <trkpt lat="46.49919" lon="5.36608">
        <ele>239.4</ele>
        <time>2022-05-18T14:38:19Z</time>
      </trkpt>
      <trkpt lat="46.49903" lon="5.36571">
        <ele>238.8</ele>
        <time>2022-05-18T14:38:23Z</time>
      </trkpt>
      <trkpt lat="46.49875" lon="5.36525">
        <ele>238.4</ele>
        <time>2022-05-18T14:38:28Z</time>
      </trkpt>
      <trkpt lat="46.49833" lon="5.36461">
        <ele>237.6</ele>
        <time>2022-05-18T14:38:35Z</time>
      </trkpt>
      <trkpt lat="46.49827" lon="5.36451">
        <ele>237.4</ele>
        <time>2022-05-18T14:38:36Z</time>
      </trkpt>
      <trkpt lat="46.49817" lon="5.3643">
        <ele>237.2</ele>
        <time>2022-05-18T14:38:38Z</time>
      </trkpt>
      <trkpt lat="46.49799" lon="5.36385">
        <ele>236.4</ele>
        <time>2022-05-18T14:38:42Z</time>
      </trkpt>
      <trkpt lat="46.4979" lon="5.36364">
        <ele>236.2</ele>
        <time>2022-05-18T14:38:44Z</time>
      </trkpt>
      <trkpt lat="46.49761" lon="5.36297">
        <ele>235.2</ele>
        <time>2022-05-18T14:38:50Z</time>
      </trkpt>
      <trkpt lat="46.49756" lon="5.36285">
        <ele>234.8</ele>
        <time>2022-05-18T14:38:51Z</time>
      </trkpt>
      <trkpt lat="46.49751" lon="5.36274">
        <ele>234.8</ele>
        <time>2022-05-18T14:38:52Z</time>
      </trkpt>
      <trkpt lat="46.49736" lon="5.36238">
        <ele>233.8</ele>
        <time>2022-05-18T14:38:55Z</time>
      </trkpt>
      <trkpt lat="46.4972" lon="5.36204">
        <ele>232.6</ele>
        <time>2022-05-18T14:38:58Z</time>
      </trkpt>
      <trkpt lat="46.49714" lon="5.36193">
        <ele>232.4</ele>
        <time>2022-05-18T14:38:59Z</time>
      </trkpt>
      <trkpt lat="46.4969" lon="5.36153">
        <ele>231.6</ele>
        <time>2022-05-18T14:39:03Z</time>
      </trkpt>
      <trkpt lat="46.49673" lon="5.36125">
        <ele>231.2</ele>
        <time>2022-05-18T14:39:06Z</time>
      </trkpt>
      <trkpt lat="46.49662" lon="5.36104">
        <ele>231.2</ele>
        <time>2022-05-18T14:39:08Z</time>
      </trkpt>
      <trkpt lat="46.49655" lon="5.36082">
        <ele>230.8</ele>
        <time>2022-05-18T14:39:10Z</time>
      </trkpt>
      <trkpt lat="46.49648" lon="5.36034">
        <ele>230.6</ele>
        <time>2022-05-18T14:39:14Z</time>
      </trkpt>
      <trkpt lat="46.49647" lon="5.36023">
        <ele>230.4</ele>
        <time>2022-05-18T14:39:15Z</time>
      </trkpt>
      <trkpt lat="46.49642" lon="5.35944">
        <ele>230.6</ele>
        <time>2022-05-18T14:39:22Z</time>
      </trkpt>
      <trkpt lat="46.49642" lon="5.35933">
        <ele>230.6</ele>
        <time>2022-05-18T14:39:23Z</time>
      </trkpt>
      <trkpt lat="46.4964" lon="5.35851">
        <ele>231</ele>
        <time>2022-05-18T14:39:31Z</time>
      </trkpt>
      <trkpt lat="46.49646" lon="5.35816">
        <ele>231.4</ele>
        <time>2022-05-18T14:39:35Z</time>
      </trkpt>
      <trkpt lat="46.49655" lon="5.35787">
        <ele>231.8</ele>
        <time>2022-05-18T14:39:39Z</time>
      </trkpt>
      <trkpt lat="46.49661" lon="5.35773">
        <ele>232.2</ele>
        <time>2022-05-18T14:39:41Z</time>
      </trkpt>
      <trkpt lat="46.49672" lon="5.35747">
        <ele>233</ele>
        <time>2022-05-18T14:39:45Z</time>
      </trkpt>
      <trkpt lat="46.49681" lon="5.35726">
        <ele>233.6</ele>
        <time>2022-05-18T14:39:48Z</time>
      </trkpt>
      <trkpt lat="46.49686" lon="5.35713">
        <ele>234</ele>
        <time>2022-05-18T14:39:50Z</time>
      </trkpt>
      <trkpt lat="46.49697" lon="5.35673">
        <ele>234.8</ele>
        <time>2022-05-18T14:39:56Z</time>
      </trkpt>
      <trkpt lat="46.49699" lon="5.35659">
        <ele>234.8</ele>
        <time>2022-05-18T14:39:58Z</time>
      </trkpt>
      <trkpt lat="46.49699" lon="5.35653">
        <ele>235</ele>
        <time>2022-05-18T14:39:59Z</time>
      </trkpt>
      <trkpt lat="46.49696" lon="5.35647">
        <ele>235.2</ele>
        <time>2022-05-18T14:40:00Z</time>
      </trkpt>
      <trkpt lat="46.49688" lon="5.3564">
        <ele>235.4</ele>
        <time>2022-05-18T14:40:02Z</time>
      </trkpt>
      <trkpt lat="46.49683" lon="5.35639">
        <ele>235.8</ele>
        <time>2022-05-18T14:40:03Z</time>
      </trkpt>
      <trkpt lat="46.49668" lon="5.35635">
        <ele>236</ele>
        <time>2022-05-18T14:40:06Z</time>
      </trkpt>
      <trkpt lat="46.49658" lon="5.35632">
        <ele>236</ele>
        <time>2022-05-18T14:40:08Z</time>
      </trkpt>
      <trkpt lat="46.49648" lon="5.35629">
        <ele>236.2</ele>
        <time>2022-05-18T14:40:10Z</time>
      </trkpt>
      <trkpt lat="46.49607" lon="5.35617">
        <ele>237</ele>
        <time>2022-05-18T14:40:18Z</time>
      </trkpt>
      <trkpt lat="46.49601" lon="5.35615">
        <ele>237.2</ele>
        <time>2022-05-18T14:40:19Z</time>
      </trkpt>
      <trkpt lat="46.49564" lon="5.35603">
        <ele>238.2</ele>
        <time>2022-05-18T14:40:26Z</time>
      </trkpt>
      <trkpt lat="46.49553" lon="5.35599">
        <ele>238.4</ele>
        <time>2022-05-18T14:40:28Z</time>
      </trkpt>
      <trkpt lat="46.49516" lon="5.35584">
        <ele>239.6</ele>
        <time>2022-05-18T14:40:35Z</time>
      </trkpt>
      <trkpt lat="46.4951" lon="5.35582">
        <ele>240</ele>
        <time>2022-05-18T14:40:36Z</time>
      </trkpt>
      <trkpt lat="46.49494" lon="5.35574">
        <ele>240.4</ele>
        <time>2022-05-18T14:40:39Z</time>
      </trkpt>
      <trkpt lat="46.49488" lon="5.35571">
        <ele>240.6</ele>
        <time>2022-05-18T14:40:40Z</time>
      </trkpt>
      <trkpt lat="46.49483" lon="5.35569">
        <ele>240.8</ele>
        <time>2022-05-18T14:40:41Z</time>
      </trkpt>
      <trkpt lat="46.49447" lon="5.35556">
        <ele>241.6</ele>
        <time>2022-05-18T14:40:47Z</time>
      </trkpt>
      <trkpt lat="46.49434" lon="5.3555">
        <ele>242</ele>
        <time>2022-05-18T14:40:49Z</time>
      </trkpt>
      <trkpt lat="46.4939" lon="5.35533">
        <ele>242.4</ele>
        <time>2022-05-18T14:40:56Z</time>
      </trkpt>
      <trkpt lat="46.49364" lon="5.3553">
        <ele>242.6</ele>
        <time>2022-05-18T14:41:00Z</time>
      </trkpt>
      <trkpt lat="46.49352" lon="5.35531">
        <ele>242.8</ele>
        <time>2022-05-18T14:41:02Z</time>
      </trkpt>
      <trkpt lat="46.49308" lon="5.35532">
        <ele>243.2</ele>
        <time>2022-05-18T14:41:09Z</time>
      </trkpt>
      <trkpt lat="46.49281" lon="5.35534">
        <ele>243.8</ele>
        <time>2022-05-18T14:41:13Z</time>
      </trkpt>
      <trkpt lat="46.49256" lon="5.35536">
        <ele>243.8</ele>
        <time>2022-05-18T14:41:17Z</time>
      </trkpt>
      <trkpt lat="46.49215" lon="5.35538">
        <ele>244.2</ele>
        <time>2022-05-18T14:41:23Z</time>
      </trkpt>
      <trkpt lat="46.49184" lon="5.35542">
        <ele>244.4</ele>
        <time>2022-05-18T14:41:27Z</time>
      </trkpt>
      <trkpt lat="46.49169" lon="5.35543">
        <ele>244.4</ele>
        <time>2022-05-18T14:41:29Z</time>
      </trkpt>
      <trkpt lat="46.49132" lon="5.35544">
        <ele>244.4</ele>
        <time>2022-05-18T14:41:34Z</time>
      </trkpt>
      <trkpt lat="46.49093" lon="5.35546">
        <ele>243.6</ele>
        <time>2022-05-18T14:41:39Z</time>
      </trkpt>
      <trkpt lat="46.49058" lon="5.35548">
        <ele>243.2</ele>
        <time>2022-05-18T14:41:43Z</time>
      </trkpt>
      <trkpt lat="46.49029" lon="5.3555">
        <ele>242.4</ele>
        <time>2022-05-18T14:41:46Z</time>
      </trkpt>
      <trkpt lat="46.49001" lon="5.35552">
        <ele>241.8</ele>
        <time>2022-05-18T14:41:49Z</time>
      </trkpt>
      <trkpt lat="46.48975" lon="5.35553">
        <ele>241.2</ele>
        <time>2022-05-18T14:41:52Z</time>
      </trkpt>
      <trkpt lat="46.48927" lon="5.35556">
        <ele>240.8</ele>
        <time>2022-05-18T14:41:58Z</time>
      </trkpt>
      <trkpt lat="46.48887" lon="5.35558">
        <ele>241.4</ele>
        <time>2022-05-18T14:42:04Z</time>
      </trkpt>
      <trkpt lat="46.48851" lon="5.3556">
        <ele>242</ele>
        <time>2022-05-18T14:42:10Z</time>
      </trkpt>
      <trkpt lat="46.48841" lon="5.35564">
        <ele>242.4</ele>
        <time>2022-05-18T14:42:13Z</time>
      </trkpt>
      <trkpt lat="46.48841" lon="5.35564">
        <ele>242.4</ele>
        <time>2022-05-18T14:42:14Z</time>
      </trkpt>
      <trkpt lat="46.48841" lon="5.35564">
        <ele>242.6</ele>
        <time>2022-05-18T14:42:16Z</time>
      </trkpt>
      <trkpt lat="46.48837" lon="5.35566">
        <ele>242.6</ele>
        <time>2022-05-18T14:42:18Z</time>
      </trkpt>
      <trkpt lat="46.48835" lon="5.35568">
        <ele>242.6</ele>
        <time>2022-05-18T14:42:19Z</time>
      </trkpt>
      <trkpt lat="46.48827" lon="5.35584">
        <ele>242.8</ele>
        <time>2022-05-18T14:42:23Z</time>
      </trkpt>
      <trkpt lat="46.48824" lon="5.35591">
        <ele>242.8</ele>
        <time>2022-05-18T14:42:24Z</time>
      </trkpt>
      <trkpt lat="46.48808" lon="5.35625">
        <ele>242.8</ele>
        <time>2022-05-18T14:42:28Z</time>
      </trkpt>
      <trkpt lat="46.48786" lon="5.35677">
        <ele>243</ele>
        <time>2022-05-18T14:42:34Z</time>
      </trkpt>
      <trkpt lat="46.48774" lon="5.35705">
        <ele>243.4</ele>
        <time>2022-05-18T14:42:37Z</time>
      </trkpt>
      <trkpt lat="46.48756" lon="5.35749">
        <ele>243.2</ele>
        <time>2022-05-18T14:42:42Z</time>
      </trkpt>
      <trkpt lat="46.48732" lon="5.35805">
        <ele>243</ele>
        <time>2022-05-18T14:42:49Z</time>
      </trkpt>
      <trkpt lat="46.48705" lon="5.35869">
        <ele>243.2</ele>
        <time>2022-05-18T14:42:57Z</time>
      </trkpt>
      <trkpt lat="46.48702" lon="5.35877">
        <ele>243.4</ele>
        <time>2022-05-18T14:42:58Z</time>
      </trkpt>
      <trkpt lat="46.48686" lon="5.35926">
        <ele>244</ele>
        <time>2022-05-18T14:43:04Z</time>
      </trkpt>
      <trkpt lat="46.48683" lon="5.35942">
        <ele>244.4</ele>
        <time>2022-05-18T14:43:06Z</time>
      </trkpt>
      <trkpt lat="46.48677" lon="5.35984">
        <ele>245.4</ele>
        <time>2022-05-18T14:43:11Z</time>
      </trkpt>
      <trkpt lat="46.48666" lon="5.36049">
        <ele>245.8</ele>
        <time>2022-05-18T14:43:18Z</time>
      </trkpt>
      <trkpt lat="46.48649" lon="5.36124">
        <ele>244.6</ele>
        <time>2022-05-18T14:43:25Z</time>
      </trkpt>
      <trkpt lat="46.48647" lon="5.36134">
        <ele>244.4</ele>
        <time>2022-05-18T14:43:26Z</time>
      </trkpt>
      <trkpt lat="46.48642" lon="5.36173">
        <ele>244</ele>
        <time>2022-05-18T14:43:30Z</time>
      </trkpt>
      <trkpt lat="46.48639" lon="5.36228">
        <ele>243.8</ele>
        <time>2022-05-18T14:43:36Z</time>
      </trkpt>
      <trkpt lat="46.48638" lon="5.36236">
        <ele>244</ele>
        <time>2022-05-18T14:43:37Z</time>
      </trkpt>
      <trkpt lat="46.48633" lon="5.36267">
        <ele>244.4</ele>
        <time>2022-05-18T14:43:41Z</time>
      </trkpt>
      <trkpt lat="46.48628" lon="5.36296">
        <ele>245</ele>
        <time>2022-05-18T14:43:45Z</time>
      </trkpt>
      <trkpt lat="46.48622" lon="5.3631">
        <ele>245.4</ele>
        <time>2022-05-18T14:43:47Z</time>
      </trkpt>
      <trkpt lat="46.48611" lon="5.36319">
        <ele>245.4</ele>
        <time>2022-05-18T14:43:49Z</time>
      </trkpt>
      <trkpt lat="46.48607" lon="5.3632">
        <ele>245.6</ele>
        <time>2022-05-18T14:43:50Z</time>
      </trkpt>
      <trkpt lat="46.48597" lon="5.36322">
        <ele>245.8</ele>
        <time>2022-05-18T14:43:52Z</time>
      </trkpt>
      <trkpt lat="46.48587" lon="5.36321">
        <ele>246.8</ele>
        <time>2022-05-18T14:43:54Z</time>
      </trkpt>
      <trkpt lat="46.48582" lon="5.36322">
        <ele>246.8</ele>
        <time>2022-05-18T14:43:55Z</time>
      </trkpt>
      <trkpt lat="46.48556" lon="5.36326">
        <ele>247.8</ele>
        <time>2022-05-18T14:44:00Z</time>
      </trkpt>
      <trkpt lat="46.48536" lon="5.3633">
        <ele>248.8</ele>
        <time>2022-05-18T14:44:04Z</time>
      </trkpt>
      <trkpt lat="46.48531" lon="5.3633">
        <ele>249</ele>
        <time>2022-05-18T14:44:05Z</time>
      </trkpt>
      <trkpt lat="46.48487" lon="5.36338">
        <ele>249.6</ele>
        <time>2022-05-18T14:44:13Z</time>
      </trkpt>
      <trkpt lat="46.48464" lon="5.36342">
        <ele>250</ele>
        <time>2022-05-18T14:44:17Z</time>
      </trkpt>
      <trkpt lat="46.48441" lon="5.36346">
        <ele>250.2</ele>
        <time>2022-05-18T14:44:21Z</time>
      </trkpt>
      <trkpt lat="46.48417" lon="5.36354">
        <ele>250.2</ele>
        <time>2022-05-18T14:44:25Z</time>
      </trkpt>
      <trkpt lat="46.484" lon="5.36366">
        <ele>250.4</ele>
        <time>2022-05-18T14:44:28Z</time>
      </trkpt>
      <trkpt lat="46.48364" lon="5.36404">
        <ele>250.8</ele>
        <time>2022-05-18T14:44:35Z</time>
      </trkpt>
      <trkpt lat="46.48343" lon="5.36428">
        <ele>251.2</ele>
        <time>2022-05-18T14:44:39Z</time>
      </trkpt>
      <trkpt lat="46.4832" lon="5.36453">
        <ele>251.8</ele>
        <time>2022-05-18T14:44:44Z</time>
      </trkpt>
      <trkpt lat="46.48302" lon="5.36473">
        <ele>252.2</ele>
        <time>2022-05-18T14:44:48Z</time>
      </trkpt>
      <trkpt lat="46.48285" lon="5.36492">
        <ele>252.8</ele>
        <time>2022-05-18T14:44:52Z</time>
      </trkpt>
      <trkpt lat="46.48276" lon="5.36501">
        <ele>253.4</ele>
        <time>2022-05-18T14:44:54Z</time>
      </trkpt>
      <trkpt lat="46.48256" lon="5.36524">
        <ele>254.4</ele>
        <time>2022-05-18T14:44:59Z</time>
      </trkpt>
      <trkpt lat="46.48235" lon="5.36547">
        <ele>255</ele>
        <time>2022-05-18T14:45:04Z</time>
      </trkpt>
      <trkpt lat="46.48226" lon="5.36555">
        <ele>255.2</ele>
        <time>2022-05-18T14:45:06Z</time>
      </trkpt>
      <trkpt lat="46.48216" lon="5.36557">
        <ele>255.2</ele>
        <time>2022-05-18T14:45:08Z</time>
      </trkpt>
      <trkpt lat="46.48205" lon="5.36555">
        <ele>255.4</ele>
        <time>2022-05-18T14:45:10Z</time>
      </trkpt>
      <trkpt lat="46.48195" lon="5.36559">
        <ele>255.6</ele>
        <time>2022-05-18T14:45:12Z</time>
      </trkpt>
      <trkpt lat="46.48188" lon="5.36571">
        <ele>255.6</ele>
        <time>2022-05-18T14:45:14Z</time>
      </trkpt>
      <trkpt lat="46.48187" lon="5.36579">
        <ele>256</ele>
        <time>2022-05-18T14:45:15Z</time>
      </trkpt>
      <trkpt lat="46.48183" lon="5.36595">
        <ele>256.2</ele>
        <time>2022-05-18T14:45:17Z</time>
      </trkpt>
      <trkpt lat="46.48176" lon="5.36608">
        <ele>256.6</ele>
        <time>2022-05-18T14:45:19Z</time>
      </trkpt>
      <trkpt lat="46.48143" lon="5.36646">
        <ele>257.2</ele>
        <time>2022-05-18T14:45:27Z</time>
      </trkpt>
      <trkpt lat="46.48123" lon="5.36667">
        <ele>257.8</ele>
        <time>2022-05-18T14:45:31Z</time>
      </trkpt>
      <trkpt lat="46.48119" lon="5.36671">
        <ele>257.8</ele>
        <time>2022-05-18T14:45:32Z</time>
      </trkpt>
      <trkpt lat="46.48116" lon="5.36674">
        <ele>258</ele>
        <time>2022-05-18T14:45:33Z</time>
      </trkpt>
      <trkpt lat="46.48111" lon="5.36679">
        <ele>258</ele>
        <time>2022-05-18T14:45:34Z</time>
      </trkpt>
      <trkpt lat="46.48105" lon="5.36689">
        <ele>258.4</ele>
        <time>2022-05-18T14:45:36Z</time>
      </trkpt>
      <trkpt lat="46.48105" lon="5.36696">
        <ele>258.6</ele>
        <time>2022-05-18T14:45:37Z</time>
      </trkpt>
      <trkpt lat="46.48106" lon="5.36701">
        <ele>258.8</ele>
        <time>2022-05-18T14:45:38Z</time>
      </trkpt>
      <trkpt lat="46.48112" lon="5.3671">
        <ele>259.2</ele>
        <time>2022-05-18T14:45:40Z</time>
      </trkpt>
      <trkpt lat="46.48133" lon="5.36725">
        <ele>260</ele>
        <time>2022-05-18T14:45:45Z</time>
      </trkpt>
      <trkpt lat="46.48156" lon="5.36744">
        <ele>261</ele>
        <time>2022-05-18T14:45:51Z</time>
      </trkpt>
      <trkpt lat="46.48175" lon="5.36759">
        <ele>262</ele>
        <time>2022-05-18T14:45:56Z</time>
      </trkpt>
      <trkpt lat="46.4819" lon="5.36772">
        <ele>262.6</ele>
        <time>2022-05-18T14:46:00Z</time>
      </trkpt>
      <trkpt lat="46.48197" lon="5.36777">
        <ele>263.2</ele>
        <time>2022-05-18T14:46:02Z</time>
      </trkpt>
      <trkpt lat="46.48217" lon="5.36794">
        <ele>264.4</ele>
        <time>2022-05-18T14:46:08Z</time>
      </trkpt>
      <trkpt lat="46.4822" lon="5.36796">
        <ele>264.4</ele>
        <time>2022-05-18T14:46:09Z</time>
      </trkpt>
      <trkpt lat="46.48235" lon="5.36809">
        <ele>265.6</ele>
        <time>2022-05-18T14:46:14Z</time>
      </trkpt>
      <trkpt lat="46.48251" lon="5.36823">
        <ele>266.6</ele>
        <time>2022-05-18T14:46:19Z</time>
      </trkpt>
      <trkpt lat="46.48253" lon="5.36825">
        <ele>266.6</ele>
        <time>2022-05-18T14:46:20Z</time>
      </trkpt>
    </trkseg>
  </trk>
</gpx>